     2.10           OBSERVATION DATA    G (GPS)             RINEX VERSION / TYPE
teqc 2000Jul20 Karen Wendt 20040525 20:58:16UTC             PGM / RUN BY / DATE
Linux 2.0.36|Pentium II|gcc -static|Linux|486/DX+           COMMENT
teqc 2000Jul20 Karen Wendt 20040525 20:58:15UTC             COMMENT
BIT 2 OF LLI FLAGS DATA COLLECTED UNDER A/S CONDITION       COMMENT
earn Eagle_1958_USC&GS_(Reno_net)                           MARKER NAME
GDH USGS                                                    OBSERVER / AGENCY
ZE120033802 ASHTECH UZ-12 ZE00                              REC # / TYPE / VERS
CR14329 ASH700936D_M NONE                                   ANT # / TYPE
 -2424170.0000 -4287759.0000  4040650.0000                  APPROX POSITION XYZ
        0.4124        0.0000        0.0000                  ANTENNA: DELTA H/E/N
     1     1                                                WAVELENGTH FACT L1/2
     5    C1    L1    L2    P1    P2                        # / TYPES OF OBSERV
    30.0000                                                 INTERVAL
                                                            COMMENT
National Earthquake Hazard Reduction Program                COMMENT
Crustal Strain Project                                      COMMENT
345 Middlefield Road, MS/977                                COMMENT
U.S. Geological Survey, Menlo Park, California 94025        COMMENT
Contact: kwendt@usgs.gov (Ph: 650-329-4866)                 COMMENT
Antenna height is vertical to base of antenna               COMMENT
                                                            COMMENT
SNR is mapped to RINEX snr flag value [1-9]                 COMMENT
L1: 1 -> 1; 90 -> 5; 210 -> 9                               COMMENT
L2: 1 -> 1; 150 -> 5; 250 -> 9                              COMMENT
  2004     5    20     0     0    0.0000000     GPS         TIME OF FIRST OBS
                                                            END OF HEADER
 04  5 20  0  0  0.0000000  0  7G 1G22G20G14G30G11G25
  23594540.949    -8926308.30943  -6911259.18242  23594541.314    23594541.782
  24672388.709    23609281.36243  18391992.78042  24672387.642    24672385.494
  22803349.610     3714879.50243   2931397.17742  22803349.599    22803346.976
  22608847.350    22452870.16843  17487471.90942  22608847.575    22608843.618
  24113718.465    -6210029.28243  -4834379.94742  24113719.382    24113716.964
  21455792.216    12179031.98243   9492908.14642  21455792.562    21455788.333
  20646526.562    10068711.19143   7855893.63042  20646526.692    20646522.571
 04  5 20  0  0 30.0000000  0  7G 1G22G20G14G30G11G25
  23579894.880    -9003273.29443  -6971231.73942  23579895.242    23579895.749
  24688946.314    23696291.62943  18459792.83442  24688945.271    24688943.084
  22786908.829     3628482.74243   2864075.07542  22786908.799    22786906.168
  22623404.380    22529367.63343  17547080.27642  22623404.621    22623400.635
  24111067.129    -6223958.42843  -4845233.80942  24111068.707    24111066.488
  21458556.718    12193559.59143   9504228.34542  21458557.083    21458552.874
  20645659.592    10064155.20444   7852343.51842  20645659.701    20645655.592
 04  5 20  0  1  0.0000000  0  7G 1G22G20G14G30G11G25
  23565279.497    -9080076.80143  -7031078.47142  23565279.852    23565280.347
  24705528.578    23783431.24043  18527693.67342  24705527.595    24705525.360
  22770487.664     3542189.19743   2796833.40842  22770487.657    22770484.980
  22637977.398    22605949.38443  17606754.34142  22637977.692    22637973.689
  24108514.383    -6237373.54043  -4855687.08642  24108515.593    24108513.501
  21461424.652    12208630.47243   9515971.86942  21461424.978    21461420.781
  20644893.647    10060130.25743   7849207.20742  20644893.783    20644889.655
 04  5 20  0  1 30.0000000  0  6G 1G20G14G30G11G25
  23550698.481    -9156700.02243  -7090784.70142  23550698.798    23550699.290
  22754090.023     3456019.22043   2729688.02742  22754089.996    22754087.330
  22652569.815    22682632.87543  17666507.68042  22652570.124    22652566.118
  24106063.056    -6250254.83743  -4865724.44842  24106064.358    24106062.254
  21464399.318    12224262.45143   9528152.61342  21464399.657    21464395.482
  20644232.245    10056654.55744   7846498.88242  20644232.385    20644228.254
 04  5 20  0  2  0.0000000  0  6G 1G20G14G30G11G25
  23536146.964    -9233168.27943  -7150370.19842  23536147.306    23536147.703
  22737711.271     3369948.77443   2662620.19942  22737711.254    22737708.605
  22667176.511    22759391.43343  17726319.49842  22667176.801    22667172.842
  24103709.470    -6262626.51043  -4875364.67942  24103710.314    24103708.022
  21467475.767    12240429.19343   9540750.05442  21467476.109    21467471.937
  20643670.423    10053702.13443   7844198.30142  20643670.547    20643666.414
 04  5 20  0  2 30.0000000  0  6G 1G20G14G30G11G25
  23521627.572    -9309467.36743  -7209823.86742  23521627.884    23521628.319
  22721354.493     3283993.48743   2595642.11042  22721354.475    22721351.798
  22681800.023    22836238.27343  17786200.11842  22681800.289    22681796.374
  24101454.661    -6274473.37243  -4884595.97642  24101455.734    24101453.614
  21470656.469    12257143.83943   9553774.43042  21470656.824    21470652.674
  20643210.726    10051286.48243   7842315.98842  20643210.857    20643206.717
 04  5 20  0  3  0.0000000  0  6G 1G20G14G30G11G25
  23507139.287    -9385603.02643  -7269150.19142  23507139.647    23507140.018
  22705018.778     3198148.83943   2528750.23342  22705018.748    22705016.009
  22696438.960    22913166.16043  17846143.87942  22696439.218    22696435.317
  24099299.423    -6285800.24043  -4893422.08742  24099300.462    24099298.417
  21473940.168    12274399.57143   9567220.43142  21473940.508    21473936.369
  20642851.989    10049401.26744   7840846.99742  20642852.116    20642847.969
 04  5 20  0  3 30.0000000  0  6G 1G20G14G30G11G25
  23492683.136    -9461570.14243  -7328345.18842  23492683.531    23492683.767
  22688705.339     3112421.42643   2461949.71042  22688705.328    22688702.572
  22711094.125    22990179.23443  17906154.02242  22711094.357    22711090.445
  24097244.368    -6296601.11743  -4901838.32342  24097245.524    24097242.854
  21477327.623    12292200.54543   9581091.29542  21477327.954    21477323.829
  20642595.053    10048051.13943   7839794.95742  20642595.176    20642591.046
 04  5 20  0  4  0.0000000  0  6G 1G20G14G30G11G25
  23478259.649    -9537365.16643  -7387406.07242  23478260.027    23478260.282
  22672415.162     3026816.32143   2395244.48942  22672415.165    22672412.396
  22725765.937    23067279.86843  17966232.40342  22725766.170    22725762.248
  24095289.521    -6306871.26543  -4909841.01742  24095291.000    24095288.717
  21480819.381    12310549.72743   9595389.33342  21480819.707    21480815.568
  20642440.450    10047238.75043   7839161.93642  20642440.574    20642436.458
 04  5 20  0  4 30.0000000  0  6G 1G20G14G30G11G25
  23463867.160    -9612997.71443  -7446340.35942  23463867.533    23463867.827
  22656146.765     2941325.41643   2328628.25042  22656146.733    22656143.982
  22740452.324    23144457.47343  18026370.75142  22740452.584    22740448.724
  24093435.004    -6316619.51343  -4917437.01142  24093435.900    24093433.545
  21484413.450    12329436.78843   9610106.49642  21484413.802    21484409.695
  20642386.273    10046954.17943   7838940.20042  20642386.407    20642382.313
 04  5 20  0  5  0.0000000  0  6G 1G20G14G30G11G25
  23449507.134    -9688459.37543  -7505141.49442  23449507.573    23449507.722
  22639901.904     2855958.31243   2262108.48442  22639901.831    22639899.092
  22755154.730    23221719.01543  18086574.50942  22755155.013    22755151.165
  24091680.302    -6325836.77143  -4924619.28942  24091681.895    24091679.700
  21488111.162    12348868.26043   9625247.87842  21488111.492    21488107.400
  20642433.996    10047204.91644   7839135.58542  20642434.120    20642430.030
 04  5 20  0  5 30.0000000  0  6G 1G20G14G30G11G25
  23435177.913    -9763759.18843  -7563816.49642  23435178.341    23435178.530
  22623679.163     2770707.57243   2195679.40642  22623679.099    22623676.407
  22769871.249    23299054.25243  18146835.67942  22769871.445    22769867.550
  24090026.175    -6334530.81943  -4931393.83342  24090027.548    24090025.148
  21491910.509    12368833.96343   9640805.53942  21491910.859    21491906.775
  20642581.652    10047980.92444   7839740.27742  20642581.786    20642577.695
 04  5 20  0  6  0.0000000  0  6G 1G20G14G30G11G25
  23420882.294    -9838882.83243  -7622354.23842  23420882.732    23420882.813
  22607481.577     2685589.01143   2129353.31942  22607481.500    22607478.820
  22784604.232    23376476.40843  18207164.58342  22784604.417    22784600.528
  24088473.761    -6342686.59743  -4937748.95042  24088475.347    24088472.988
  21495814.075    12389347.30843   9656789.93642  21495814.445    21495810.362
  20642831.880    10049295.92443   7840764.95942  20642832.012    20642827.936
 04  5 20  0  6 30.0000000  0  6G 1G20G14G30G11G25
  23406617.300    -9913844.99443  -7680766.14742  23406617.740    23406617.836
  22591306.616     2600589.37643   2063119.89542  22591306.566    22591303.863
  22799350.766    23453969.73543  18267548.94842  22799350.949    22799347.043
  24087022.110    -6350318.11043  -4943695.56542  24087023.159    24087020.870
  21499818.848    12410392.36443   9673188.65342  21499819.211    21499815.126
  20643181.765    10051134.59143   7842197.69842  20643181.912    20643177.813
 04  5 20  0  7  0.0000000  0  6G 1G20G14G30G11G25
  23392384.969    -9988635.67043  -7739044.43542  23392385.416    23392385.542
  22575156.509     2515720.06243   1996988.01742  22575156.456    22575153.739
  22814112.488    23531542.93843  18327995.54242  22814112.670    22814108.766
  24085671.470    -6357414.45143  -4949225.17542  24085672.788    24085670.384
  21503926.509    12431978.13543   9690008.70542  21503926.870    21503922.762
  20643633.039    10053506.03543   7844045.58242  20643633.170    20643629.088
 04  5 20  0  7 30.0000000  0  6G 1G20G14G30G11G25
  23378184.284   -10063260.28143  -7797193.32342  23378184.686    23378184.883
  22559030.447     2430977.32943   1930954.77342  22559030.415    22559027.678
  22828888.108    23609189.36543  18388499.21042  22828888.302    22828884.430
  24084422.240    -6363980.21043  -4954341.31542  24084423.299    24084420.945
  21508135.878    12454098.21543   9707245.10242  21508136.202    21508132.089
  20644184.525    10056404.24344   7846303.93842  20644184.663    20644180.592
 04  5 20  0  8  0.0000000  0  6G 1G20G14G30G11G25
  23364016.631   -10137711.18443  -7855206.84642  23364017.025    23364017.189
  22542930.221     2346370.26343   1865027.24942  22542930.220    22542927.433
  22843678.930    23686915.79243  18449065.21042  22843679.164    22843675.314
  24083275.196    -6370007.10543  -4959037.55242  24083276.107    24083274.023
  21512448.022    12476758.63743   9724902.54942  21512448.339    21512444.254
  20644837.532    10059835.84143   7848977.91542  20644837.665    20644833.594
 04  5 20  0  8 30.0000000  0  6G 1G20G14G30G11G25
  23349880.614   -10211995.89743  -7913090.88842  23349880.966    23349881.147
  22526854.667     2261892.76443   1799200.67542  22526854.666    22526851.826
  22858483.465    23764713.77943  18509686.97342  22858483.655    22858479.819
  24082229.359    -6375501.71143  -4963319.04242  24082230.445    24082228.239
  21516861.413    12499951.04543   9742974.53142  21516861.739    21516857.647
  20645590.522    10063792.81244   7852061.27942  20645590.653    20645586.573
 04  5 20  0  9  0.0000000  0  6G 1G20G14G30G11G25
  23335776.366   -10286113.68343  -7970844.84842  23335776.730    23335776.846
  22510804.227     2177547.29743   1733476.99642  22510804.236    22510801.362
  22873301.405    23842582.69343  18570364.00842  22873301.630    22873297.829
  24081285.492    -6380462.62643  -4967184.66242  24081286.321    24081284.280
  21521375.925    12523674.84943   9761460.58542  21521376.243    21521372.160
  20646443.407    10068274.70444   7855553.67342  20646443.543    20646439.446
 04  5 20  0  9 30.0000000  0  6G 1G20G14G30G11G25
  23321704.882   -10360059.40343  -8028464.75242  23321705.234    23321705.226
  22494780.186     2093340.56043   1667861.40142  22494780.168    22494777.295
  22888133.598    23920526.66843  18631099.52542  22888133.877    22888130.108
  24080443.937    -6384883.94543  -4970629.80942  24080444.920    24080442.898
  21525992.305    12547933.85543   9780363.68242  21525992.593    21525988.551
  20647397.021    10073285.92044   7859458.52242  20647397.158    20647393.036
 04  5 20  0 10  0.0000000  0  6G 1G20G14G30G11G25
  23307665.500   -10433836.17243  -8085953.00342  23307665.848    23307665.808
  22478782.158     2009270.71143   1602352.47942  22478782.159    22478779.283
  22902979.414    23998541.68143  18691890.41242  22902979.672    22902975.952
  24079704.783    -6388768.13043  -4973656.45042  24079705.741    24079703.844
  21530709.667    12572723.84343   9799680.53342  21530709.991    21530705.982
  20648450.610    10078822.57744   7863772.80742  20648450.761    20648446.645
 04  5 20  0 10 30.0000000  0  6G 1G20G14G30G11G25
  23293657.902   -10507446.00743  -8143311.17642  23293658.203    23293658.165
  22462810.141     1925337.51443   1536950.03442  22462810.122    22462807.267
  22917838.118    24076624.42143  18752734.06042  22917838.337    22917834.656
  24079067.579    -6392116.47443  -4976265.53442  24079068.528    24079066.631
  21535527.477    12598041.56343   9819408.60142  21535527.788    21535523.815
  20649603.665    10084881.85044   7868494.32342  20649603.811    20649599.688
 04  5 20  0 11  0.0000000  0  6G 1G20G14G30G11G25
  23279682.980   -10580884.34343  -8200535.73142  23279683.265    23279683.144
  22446865.297     1841547.03543   1471658.80842  22446865.281    22446862.440
  22932710.357    24154778.58643  18813633.35842  22932710.660    22932706.982
  24078533.464    -6394923.89743  -4978453.12842  24078534.562    24078532.408
  21540446.317    12623890.10943   9839550.30142  21540446.648    21540442.667
  20650856.793    10091467.07143   7873625.67242  20650856.938    20650852.797
 04  5 20  0 11 30.0000000  0  6G 1G20G14G30G11G25
  23265740.665   -10654151.27543  -8257626.71242  23265740.969    23265740.771
  22430947.933     1757900.82243   1406479.98342  22430947.927    22430945.040
  22947596.038    24233002.97543  18874587.39042  22947596.314    22947592.664
  24078102.268    -6397189.68243  -4980218.64242  24078103.404    24078101.275
  21545465.890    12650268.07743   9860104.53542  21545466.233    21545462.247
  20652209.808    10098577.14844   7879165.99442  20652209.923    20652205.783
 04  5 20  0 12  0.0000000  0  6G 1G20G14G30G11G25
  23251830.250   -10727250.50843  -8314587.02242  23251830.571    23251830.246
  22415057.667     1674396.86043   1341412.00742  22415057.644    22415054.704
  22962494.162    24311293.04343  18935592.58542  22962494.454    22962490.875
  24077773.513    -6398917.07043  -4981564.62242  24077774.644    24077772.468
  21550585.320    12677170.67043   9881067.57342  21550585.636    21550581.666
  20653661.866    10106207.78543   7885111.94942  20653661.979    20653657.863
 04  5 20  0 12 30.0000000  0  6G 1G20G14G30G11G25
  23237952.177   -10800179.76943  -8371414.88842  23237952.485    23237952.132
  22399195.168     1591038.90743   1276457.81042  22399195.124    22399192.164
  22977405.005    24389649.91243  18996649.86642  22977405.288    22977401.764
  24077547.673    -6400102.87843  -4982488.64142  24077549.019    24077546.870
  21555804.704    12704598.59743   9902439.96042  21555805.018    21555801.044
  20655213.184    10114360.18644   7891464.47842  20655213.317    20655209.212
 04  5 20  0 13  0.0000000  0  6G 1G20G14G30G11G25
  23224106.585   -10872938.48543  -8428109.87442  23224106.867    23224106.478
  22383360.862     1507829.09643   1211619.04142  22383360.806    22383357.800
  22992328.548    24468073.06143  19057758.75642  22992328.770    22992325.199
  24077425.072    -6400746.29143  -4982989.97242  24077426.531    24077424.214
  21561123.932    12732551.15743   9924221.15042  21561124.256    21561120.278
  20656863.757    10123034.08143   7898223.35942  20656863.890    20656859.801
 04  5 20  0 13 30.0000000  0  6G 1G20G14G30G11G25
  23210293.456   -10945526.61343  -8484671.94642  23210293.709    23210293.304
  22367555.020     1424769.18243   1146897.07942  22367554.995    22367551.979
  23007264.544    24546561.82543  19118918.78842  23007264.765    23007261.162
  24077406.291    -6400846.46743  -4983068.02242  24077407.414    24077404.909
  21566542.743    12761026.97443   9946410.07342  21566543.070    21566539.053
  20658613.447    10132228.77243   7905388.05242  20658613.587    20658609.489
 04  5 20  0 14  0.0000000  0  6G 1G20G14G30G11G25
  23196512.219   -11017947.42343  -8541103.62142  23196512.434    23196512.030
  22351777.489     1341857.82043   1082290.86742  22351777.480    22351774.427
  23022212.155    24625111.85443  19180126.56442  23022212.333    23022208.743
  24077490.300    -6400406.17043  -4982724.90342  24077491.280    24077488.740
  21572060.236    12790021.68443   9969003.32742  21572060.583    21572056.592
  20660461.415    10141939.93543   7912955.19442  20660461.536    20660457.460
 04  5 20  0 14 30.0000000  0  6G 1G20G14G30G11G25
  23182764.113   -11090193.81343  -8597399.38842  23182764.375    23182763.850
  22336029.863     1259103.59143   1017807.10542  22336029.855    22336026.776
  23037172.611    24703729.36843  19241386.92542  23037172.761    23037169.193
  24077678.186    -6399417.78943  -4981954.76042  24077679.259    24077676.853
  21577677.522    12819540.65343   9992005.09842  21577677.886    21577673.900
  20662408.804    10152173.54543   7920929.43942  20662408.930    20662404.835
 04  5 20  0 15  0.0000000  0  6G 1G20G14G30G11G25
  23169048.536   -11162269.17243  -8653561.88442  23169048.789    23169048.201
  22320311.776     1176504.59243    953444.29742  22320311.763    22320308.654
  23052145.017    24782409.81143  19302696.31842  23052145.182    23052141.586
  24077970.050    -6397884.31443  -4980759.81442  24077971.020    24077968.540
  21583393.658    12849579.13443  10015411.68242  21583394.035    21583390.049
  20664454.727    10162925.02643   7929307.21942  20664454.832    20664450.783
 04  5 20  0 15 30.0000000  0  6G 1G20G14G30G11G25
  23155364.765   -11234177.23843  -8709594.02842  23155364.977    23155364.392
  22304622.877     1094058.97943    889201.00642  22304622.859    22304619.753
  23067128.584    24861148.72943  19364051.27742  23067128.756    23067125.183
  24078365.071    -6395808.97143  -4979142.66542  24078365.987    24078363.625
  21589207.699    12880131.91543  10039219.01642  21589208.046    21589204.067
  20666598.271    10174189.40743   7938084.66042  20666598.369    20666594.335
 04  5 20  0 16  0.0000000  0  6G 1G20G14G30G11G25
  23141713.809   -11305913.17743  -8765492.06342  23141714.012    23141713.401
  22288964.374     1011773.24043    825082.29642  22288964.378    22288961.239
  23082124.011    24939949.99643  19425454.81542  23082124.178    23082120.630
  24078864.421    -6393186.33843  -4977099.04142  24078865.100    24078862.662
  21595120.263    12911202.60143  10063429.91142  21595120.620    21595116.650
  20668840.237    10185971.13443   7947265.23042  20668840.343    20668836.307
 04  5 20  0 16 30.0000000  0  6G 1G20G14G30G11G25
  23128095.492   -11377477.39343  -8821256.29242  23128095.691    23128095.017
  22273336.546      929648.67843    761089.17542  22273336.535    22273333.411
  23097130.973    25018812.27543  19486905.89042  23097131.195    23097127.696
  24079467.720    -6390016.34843  -4974628.89742  24079468.221    24079465.793
  21601131.025    12942789.18943  10088042.80542  21601131.393    21601127.397
  20671180.352    10198268.44543   7956847.55442  20671180.436    20671176.416
 04  5 20  0 17  0.0000000  0  6G 1G20G14G30G11G25
  23114510.051   -11448868.74943  -8876885.79842  23114510.216    23114509.607
  22257739.959      847688.30143    697223.99542  22257739.962    22257736.807
  23112149.684    25097735.79043  19548404.69942  23112149.901    23112146.391
  24080175.064    -6386297.65843  -4971731.20642  24080176.038    24080173.509
  21607239.910    12974891.34143  10113057.43442  21607240.255    21607236.256
  20673618.593    10211081.47043   7966831.73242  20673618.685    20673614.625
 04  5 20  0 17 30.0000000  0  6G 1G20G14G30G11G25
  23100956.553   -11520092.47643  -8932384.69442  23100956.695    23100956.095
  22242173.924      765888.50243    633483.93642  22242173.937    22242170.790
  23127178.886    25176714.34043  19609946.37142  23127179.065    23127175.514
  24080986.011    -6382035.09643  -4968409.71142  24080986.857    24080984.621
  21613445.577    13007502.30643  10138468.54442  21613445.933    21613441.941
  20676153.691    10224403.47243   7977212.51842  20676153.774    20676149.699
 04  5 20  0 18  0.0000000  0  6G 1G20G14G30G11G25
  23087435.962   -11591143.13843  -8987748.73842  23087436.161    23087435.505
  22226639.824      684256.37943    569874.53142  22226639.794    22226636.659
  23142219.444    25255752.70743  19671534.68042  23142219.640    23142216.037
  24081901.982    -6377222.62943  -4964659.74042  24081902.678    24081900.522
  21619748.831    13040625.95443  10164279.14542  21619749.181    21619745.196
  20678786.580    10238239.37343   7987993.74242  20678786.676    20678782.575
 04  5 20  0 18 30.0000000  0  6G 1G20G14G30G11G25
  23073947.963   -11662022.40543  -9042979.22542  23073948.169    23073947.515
  22211137.648      602792.06743    506395.88942  22211137.607    22211134.482
  23157270.861    25334848.15143  19733167.44742  23157271.051    23157267.470
  24082922.179    -6371861.57343  -4960482.28542  24082922.860    24082920.601
  21626149.046    13074259.16243  10190486.80642  21626149.371    21626145.399
  20681516.753    10252586.44343   7999173.27942  20681516.851    20681512.735
 04  5 20  0 19  0.0000000  0  6G 1G20G14G30G11G25
  23060492.273   -11732731.67543  -9098077.24642  23060492.517    23060491.856
  22195667.416      521495.76243    443048.15742  22195667.404    22195664.295
  23172332.690    25413998.42343  19794842.93642  23172332.901    23172329.334
  24084046.480    -6365953.33243  -4955878.44742  24084047.324    24084044.664
  21632645.647    13108398.82343  10217089.10642  21632645.945    21632642.004
  20684343.583    10267441.59643   8010748.72642  20684343.703    20684339.576
 04  5 20  0 19 30.0000000  0  6G 1G20G14G30G11G25
  23047070.019   -11803265.46443  -9153038.52142  23047070.223    23047069.664
  22180230.615      440374.89143    379837.12742  22180230.592    22180227.460
  23187405.814    25493208.21943  19856564.80442  23187406.050    23187402.542
  24085275.950    -6359491.86843  -4950843.53242  24085276.817    24085274.736
  21639239.319    13143048.65143  10244088.94142  21639239.611    21639235.686
  20687267.972    10282809.32543   8022723.58742  20687268.074    20687263.940
 04  5 20  0 20  0.0000000  0  6G 1G20G14G30G11G25
  23033679.822   -11873631.02443  -9207868.72142  23033680.026    23033679.376
  22164826.138      359423.90043    316758.47142  22164826.117    22164822.973
  23202488.731    25572469.43943  19918326.73342  23202488.971    23202485.528
  24086609.364    -6352484.26643  -4945383.05042  24086610.360    24086608.116
  21645928.429    13178200.07943  10271479.63042  21645928.717    21645924.827
  20690288.293    10298681.30443   8035091.36642  20690288.427    20690284.261
 04  5 20  0 20 30.0000000  0  6G 1G20G14G30G11G25
  23020321.970   -11943827.06043  -9262566.82842  23020322.141    23020321.388
  22149454.553      278645.88043    253814.59642  22149454.504    22149451.394
  23217581.621    25651782.63343  19980129.18342  23217581.817    23217578.367
  24088046.963    -6344928.99043  -4939495.79442  24088047.911    24088045.840
  21652712.924    13213852.75943  10299260.90442  21652713.203    21652709.337
  20693404.601    10315057.53143   8047852.06042  20693404.720    20693400.535
 04  5 20  0 21  0.0000000  0  6G 1G20G14G30G11G25
  23006997.713   -12013846.31143  -9317127.18342  23006997.916    23006997.066
  22134117.617      198049.94943    191012.60642  22134117.590    22134114.482
  23232685.513    25731154.12543  20041977.03742  23232685.695    23232682.302
  24089590.519    -6336818.37943  -4933175.83942  24089591.513    24089589.320
  21659593.854    13250012.30343  10327437.13842  21659594.152    21659590.301
  20696618.038    10331944.32643   8061010.60442  20696618.163    20696613.966
 04  5 20  0 21 30.0000000  0  6G 1G20G14G30G11G25
  22993705.613   -12083696.40343  -9371555.72142  22993705.826    22993704.954
  22118814.180      117630.21843    128347.92442  22118814.183    22118811.071
  23247798.928    25810575.56843  20103863.83242  23247799.121    23247795.724
  24091238.241    -6328159.88843  -4926428.92842  24091239.252    24091236.850
  21666569.504    13286669.50543  10356001.16142  21666569.814    21666565.968
  20699926.919    10349332.67943   8074559.97142  20699927.042    20699922.866
 04  5 20  0 22  0.0000000  0  6G 1G20G14G30G11G25
  22980445.990   -12153375.92943  -9425851.36742  22980446.167    22980445.292
  22103544.994       37390.10443     65823.19642  22103544.969    22103541.851
  23262921.937    25890047.50643  20165789.96742  23262922.094    23262918.802
  24092990.505    -6318951.81843  -4919253.79542  24092991.476    24092988.816
  21673639.850    13323824.44943  10384953.03342  21673640.193    21673636.354
  20703331.280    10367222.81743   8088500.33842  20703331.404    20703327.249
 04  5 20  0 22 30.0000000  0  6G 1G20G14G30G11G25
  22967219.120   -12222883.12843  -9480012.71142  22967219.327    22967218.403
  22088310.573      -42667.16643      3440.94942  22088310.544    22088307.439
  23278054.716    25969571.01743  20227756.27942  23278054.934    23278051.689
  24094847.593    -6309192.13643  -4911648.84942  24094848.569    24094846.053
  21680804.872    13361476.78943  10414292.48242  21680805.199    21680801.386
  20706831.335    10385615.58243   8102832.36442  20706831.415    20706827.270
 04  5 20  0 23  0.0000000  0  6G 1G20G14G30G11G25
  22954025.759   -12292214.75143  -9534037.27042  22954025.935    22954024.938
  22073112.029     -122535.94843    -58794.42742  22073111.999    22073108.878
  23293197.830    26049148.53143  20289764.68042  23293198.017    23293194.816
  24096810.329    -6298877.62343  -4903611.54142  24096811.293    24096808.964
  21688064.840    13399628.02443  10444020.68542  21688065.176    21688061.358
  20710427.301    10404512.52943   8117557.24842  20710427.401    20710423.220
 04  5 20  0 23 30.0000000  0  6G 1G20G14G30G11G25
  22940864.322   -12361378.16943  -9587930.74342  22940864.506    22940863.468
  22057948.227     -202222.14743   -120887.52442  22057948.196    22057945.070
  23308349.643    26128771.80443  20351808.73242  23308349.892    23308346.673
  24098877.391    -6288015.55243  -4895147.59642  24098878.454    24098876.192
  21695418.076    13438269.31343  10474130.74942  21695418.388    21695414.590
  20714117.621    10423905.31443   8132668.50942  20714117.712    20714113.539
 04  5 20  0 24  0.0000000  0  6G 1G20G14G30G11G25
  22927735.832   -12430368.32443  -9641689.21342  22927736.006    22927735.010
  22042820.522     -281718.72143   -182832.86842  22042820.476    22042817.359
  23323511.143    26208445.46443  20413892.05042  23323511.357    23323508.090
  24101049.591    -6276600.60343  -4886252.80642  24101050.763    24101047.955
  21702865.175    13477404.01943  10504625.29142  21702865.501    21702861.696
  20717903.001    10443797.69243   8148169.05842  20717903.101    20717898.913
 04  5 20  0 24 30.0000000  0  6G 1G20G14G30G11G25
  22914639.766   -12499188.00243  -9695314.85042  22914639.968    22914638.949
  22027728.683     -361026.63143   -244631.19442  22027728.653    22027725.521
  23338681.469    26288165.83343  20476011.76242  23338681.644    23338678.419
  24103326.374    -6264635.42543  -4876929.31442  24103327.576    24103324.918
  21710405.293    13517027.52543  10535500.72342  21710405.633    21710401.827
  20721782.715    10464185.67843   8164055.79842  20721782.818    20721778.635
 04  5 20  0 25  0.0000000  0  6G 1G20G14G30G11G25
  22901577.172   -12567831.93043  -9748803.53242  22901577.375    22901576.343
  22012674.129     -440138.62643   -306276.86142  22012674.122    22012670.956
  23353861.488    26367937.42943  20538171.39342  23353861.629    23353858.504
  24105708.812    -6252114.69243  -4867172.89442  24105710.082    24105707.750
  21718039.139    13557143.45543  10566759.85742  21718039.483    21718035.672
  20725757.439    10485073.05543   8180331.67342  20725757.543    20725753.401
 04  5 20  0 25 30.0000000  0  6G 1G20G14G30G11G25
  22888546.812   -12636306.45243  -9802160.21442  22888546.996    22888546.013
  21997656.060     -519059.09943   -367773.28742  21997656.071    21997652.846
  23369049.901    26447753.33443  20600365.53742  23369050.131    23369047.009
  24108196.072    -6239044.64643  -4856988.42142  24108197.174    24108194.711
  21725765.221    13597743.88043  10598396.51742  21725765.531    21725761.707
  20729825.841    10506452.68043   8196991.12242  20729825.960    20729821.810
 04  5 20  0 26  0.0000000  0  6G 1G20G14G30G11G25
  22875549.278   -12704608.39043  -9855382.42042  22875549.478    22875548.479
  21982675.340     -597783.04343   -429116.57442  21982675.380    21982672.134
  23384247.337    26527615.80243  20662595.96642  23384247.494    23384244.360
  24110788.240    -6225422.17743  -4846373.48642  24110789.378    24110786.979
  21733583.678    13638829.93043  10630411.58642  21733583.996    21733580.144
  20733988.182    10528325.95843   8214035.23642  20733988.303    20733984.177
 04  5 20  0 26 30.0000000  0  6G 1G20G14G30G11G25
  22862584.916   -12772736.04943  -9908468.80642  22862585.137    22862584.144
  21967732.700     -676307.02843   -490304.05342  21967732.729    21967729.475
  23399453.697    26607525.68543  20724863.34942  23399453.845    23399450.701
  24113485.854    -6211245.57643  -4835326.76242  24113486.959    24113484.789
  21741494.489    13680401.35143  10662804.86042  21741494.803    21741490.963
  20738244.463    10550692.80343   8231463.94442  20738244.549    20738240.452
 04  5 20  0 27  0.0000000  0  6G 1G20G14G30G11G25
  22849652.869   -12840693.95743  -9961422.93042  22849653.074    22849652.020
  21952827.613     -754633.72643   -551337.79842  21952827.630    21952824.342
  23414668.153    26687477.78343  20787163.62842  23414668.278    23414665.119
  24116287.926    -6196519.56243  -4823851.94342  24116289.242    24116286.949
  21749496.493    13722452.04043  10695571.59442  21749496.820    21749492.966
  20742593.651    10573547.97143   8249273.16542  20742593.747    20742589.661
 04  5 20  0 27 30.0000000  0  6G 1G20G14G30G11G25
  22836753.397   -12908480.83643 -10014243.78442  22836753.555    22836752.543
  21937960.675     -832759.86743   -612215.27242  21937960.686    21937957.375
  23429890.771    26767472.86943  20849497.41042  23429890.914    23429887.689
  24119195.418    -6181242.78943  -4811947.94442  24119196.498    24119193.957
  21757589.599    13764981.39643  10728711.31842  21757589.912    21757586.064
  20747035.697    10596891.20343   8267462.69942  20747035.818    20747031.752
 04  5 20  0 28  0.0000000  0  6G 1G20G14G30G11G25
  22823887.353   -12976092.20143 -10066927.88642  22823887.493    22823886.456
  21923133.111     -910679.16443   -672931.57242  21923133.116    21923129.781
  23445122.258    26847514.47643  20911867.43342  23445122.432    23445119.140
  24122207.954    -6165410.88743  -4799611.37842  24122209.064    24122206.562
  21765774.288    13807991.93443  10762225.98442  21765774.594    21765770.736
  20751571.266    10620725.69143   8286035.03042  20751571.363    20751567.307
 04  5 20  0 28 30.0000000  0  6G 1G20G14G30G11G25
  22811054.212   -13043530.71643 -10119477.31042  22811054.337    22811053.221
  21908344.779     -988392.13243   -733487.09142  21908344.805    21908341.447
  23460361.963    26927599.50843  20974271.30242  23460362.131    23460358.879
  24125325.830    -6149026.38543  -4786844.22842  24125326.957    24125324.516
  21774049.682    13851479.13343  10796112.07942  21774049.972    21774046.148
  20756199.541    10645047.39243   8304987.00742  20756199.625    20756195.576
 04  5 20  0 29  0.0000000  0  6G 1G20G14G30G11G25
  22798253.671   -13110797.64743 -10171893.00642  22798253.784    22798252.613
  21893595.856    -1065898.03243   -793881.26142  21893595.877    21893592.524
  23475609.558    27007725.99943  21036707.47342  23475609.821    23475606.489
  24128548.533    -6132090.74543  -4773647.60142  24128549.633    24128547.210
  21782415.201    13895440.00843  10830367.27342  21782415.491    21782411.663
  20760920.035    10669853.74143   8324316.63342  20760920.137    20760916.051
 04  5 20  0 29 30.0000000  0  6G 1G20G14G30G11G25
  22785485.640   -13177893.90243 -10224175.71842  22785485.724    22785484.561
  21878886.519    -1143195.83443   -854113.28342  21878886.560    21878883.200
  23490864.907    27087892.66243  21099174.95242  23490865.152    23490861.777
  24131876.120    -6114604.93243  -4760022.27442  24131877.121    24131874.792
  21790870.238    13939871.47143  10864989.15842  21790870.549    21790866.745
  20765732.233    10695142.01443   8344021.77942  20765732.348    20765728.239
 04  5 20  0 30  0.0000000  0  6G 1G20G14G30G11G25
  22772750.615   -13244816.73443 -10276323.30742  22772750.719    22772749.521
  21864217.700    -1220280.91043   -914179.54242  21864217.714    21864214.371
  23506128.182    27168101.53443  21161675.31842  23506128.546    23506125.078
  24135308.750    -6096566.41143  -4745966.27842  24135309.654    24135307.641
  21799415.072    13984774.81743  10899978.74442  21799415.400    21799411.579
  20770636.433    10720913.87943   8364103.75142  20770636.575    20770632.466
 04  5 20  0 30 30.0000000  0  6G 1G20G14G30G11G25
  22760048.032   -13311568.94343 -10328337.92842  22760048.161    22760046.922
  21849589.231    -1297153.93543   -974080.56742  21849589.225    21849585.878
  23521398.828    27248348.81043  21224205.61542  23521399.148    23521395.707
  24138846.133    -6077978.05843  -4731481.82342  24138846.783    24138844.736
  21808048.819    14030145.27843  10935332.31042  21808049.126    21808045.321
  20775631.842    10747165.02943   8384559.19642  20775632.001    20775627.905
 04  5 20  0 31  0.0000000  0  6G 1G20G14G30G11G25
  22747379.560   -13378141.91243 -10380212.88842  22747379.685    22747378.460
  21835003.090    -1373804.57943  -1033808.31242  21835003.057    21834999.714
  23536678.280    27328642.70143  21286772.21342  23536678.593    23536675.226
  24142489.383    -6058831.66443  -4716562.56542  24142490.228    24142488.236
  21816772.655    14075989.38243  10971054.94942  21816772.997    21816769.199
  20780719.878    10773902.68843   8405393.73342  20780720.013    20780715.921
 04  5 20  0 31 30.0000000  0  6G 1G20G14G30G11G25
  22734743.089   -13444546.63943 -10431956.74442  22734743.237    22734742.005
  21820457.585    -1450241.75843  -1093369.72342  21820457.544    21820454.169
  23551964.443    27408971.53843  21349366.07242  23551964.675    23551961.371
  24146237.013    -6039138.20843  -4701216.98942  24146237.900    24146235.693
  21825584.168    14122294.17543  11007136.56642  21825584.502    21825580.761
  20785898.101    10801114.40343   8426597.66442  20785898.224    20785894.139
 04  5 20  0 32  0.0000000  0  6G 1G20G14G30G11G25
  22722139.383   -13510779.27543 -10483566.50642  22722139.529    22722138.280
  21805953.796    -1526459.51843  -1152760.15542  21805953.780    21805950.380
  23567257.754    27489338.66143  21411989.74142  23567258.123    23567254.755
  24150089.241    -6018894.33443  -4685442.54142  24150090.075    24150087.887
  21834483.723    14169061.63143  11043578.69242  21834484.072    21834480.356
  20791166.929    10828802.29343   8448172.63942  20791167.046    20791162.964
 04  5 20  0 32 30.0000000  0  6G 1G20G14G30G11G25
  22709568.659   -13576838.27243 -10535040.96542  22709568.842    22709567.585
  21791492.403    -1602454.50043  -1211976.99642  21791492.392    21791488.976
  23582558.648    27569745.07943  21474644.04842  23582559.015    23582555.601
  24154046.554    -5998098.38443  -4669237.90442  24154047.545    24154044.998
  21843471.232    14216291.05343  11080380.79642  21843471.556    21843467.852
  20796526.475    10856966.87543   8470119.06442  20796526.581    20796522.499
 04  5 20  0 33  0.0000000  0  6G 1G20G14G30G11G25
  22697030.546   -13642726.40143 -10586382.29542  22697030.670    22697029.344
  21777073.292    -1678227.28043  -1271020.69342  21777073.294    21777069.859
  23597866.402    27650187.28343  21537326.23942  23597866.708    23597863.265
  24158108.214    -5976753.80143  -4652605.71642  24158109.079    24158106.866
  21852545.827    14263978.12843  11117539.51442  21852546.147    21852542.449
  20801975.889    10885603.63743   8492433.41742  20801975.982    20801971.898
 04  5 20  0 33 30.0000000  0  6G 1G20G14G30G11G25
  22684525.679   -13708439.43643 -10637587.16342  22684525.812    22684524.514
  21762697.611    -1753771.81943  -1329886.53442  21762697.613    21762694.177
  23613181.624    27730668.91343  21600039.15642  23613181.853    23613178.513
  24162275.371    -5954856.56343  -4635542.94142  24162276.093    24162273.682
  21861707.851    14312124.81143  11155056.37042  21861708.178    21861704.493
  20807515.636    10914715.05543   8515117.63942  20807515.714    20807511.632
 04  5 20  0 34  0.0000000  0  6G 1G20G14G30G11G25
  22672053.184   -13773982.19543 -10688659.36242  22672053.330    22672052.043
  21748364.895    -1829090.67543  -1388576.52342  21748364.892    21748361.445
  23628503.265    27811184.52243  21662778.52842  23628503.532    23628500.204
  24166546.591    -5932411.62643  -4618053.34042  24166547.364    24166544.792
  21870956.037    14360724.25843  11192926.02642  21870956.383    21870952.720
  20813144.528    10944294.96543   8538166.91242  20813144.580    20813140.496
 04  5 20  0 34 30.0000000  0  6G 1G20G14G30G11G25
  22659614.253   -13839349.05343 -10739594.51042  22659614.372    22659613.006
  21734076.502    -1904176.50343  -1447084.92942  21734076.497    21734073.062
  23643832.319    27891739.07943  21725548.25842  23643832.549    23643829.275
  24170923.103    -5909414.03043  -4600133.13142  24170923.899    24170921.307
  21880291.075    14409779.90643  11231151.15942  21880291.386    21880287.749
  20818863.364    10974347.63043   8561584.57142  20818863.433    20818859.325
 04  5 20  0 35  0.0000000  0  6G 1G20G14G30G11G25
  22647207.604   -13904545.91543 -10790397.17742  22647207.716    22647206.375
  21719831.732    -1979033.02143  -1505414.64842  21719831.728    21719828.321
  23659167.604    27972326.39643  21788343.52442  23659167.878    23659164.578
  24175403.552    -5885869.70443  -4581786.88542  24175404.325    24175401.763
  21889711.405    14459283.82143  11269725.59642  21889711.722    21889708.061
  20824670.728    11004865.39843   8585364.64742  20824670.781    20824666.663
 04  5 20  0 35 30.0000000  0  6G 1G20G14G30G11G25
  22634834.189   -13969568.35843 -10841063.93742  22634834.310    22634832.898
  21705631.861    -2053653.70843  -1563560.60442  21705631.841    21705628.424
  23674509.919    28052950.37543  21851167.37442  23674510.120    23674506.881
  24179988.286    -5861774.68243  -4563011.53442  24179989.440    24179986.937
  21899217.536    14509238.63143  11308651.37742  21899217.848    21899214.173
  20830567.168    11035851.32443   8609509.51742  20830567.218    20830563.079
 04  5 20  0 36  0.0000000  0  6G 1G20G14G30G11G25
  22622493.593   -14034418.30543 -10891596.28542  22622493.738    22622492.290
  21691476.915    -2128038.32243  -1621522.60742  21691476.887    21691473.474
  23689858.651    28133608.66643  21914017.93642  23689858.840    23689855.645
  24184677.727    -5837131.33343  -4543808.90242  24184678.863    24184676.228
  21908808.690    14559640.45243  11347925.48542  21908809.034    21908805.359
  20836551.971    11067301.73843   8634016.32742  20836552.024    20836547.901
 04  5 20  0 36 30.0000000  0  6G 1G20G14G30G11G25
  22610185.096   -14099099.70143 -10941997.29842  22610185.204    22610183.742
  21677366.499    -2202188.89643  -1679302.24042  21677366.454    21677363.060
  23705213.066    28214296.53643  21976891.55742  23705213.279    23705210.042
  24189470.639    -5811944.17643  -4524182.52142  24189471.680    24189469.224
  21918483.712    14610483.06443  11387543.06642  21918484.088    21918480.431
  20842624.080    11099210.87943   8658880.58942  20842624.134    20842620.006
 04  5 20  0 37  0.0000000  0  6G 1G20G14G30G11G25
  22597911.195   -14163599.21143 -10992256.59142  22597911.279    22597909.817
  21663303.541    -2276090.12643  -1736887.57942  21663303.488    21663300.100
  23720575.503    28295026.70143  22039798.12342  23720575.734    23720572.507
  24194369.330    -5786200.25143  -4504122.30242  24194370.561    24194367.938
  21928244.794    14661777.62143  11427512.81542  21928245.153    21928241.487
  20848785.856    11131591.20243   8684112.00642  20848785.917    20848781.785
 04  5 20  0 37 30.0000000  0  6G 1G20G14G30G11G25
  22585668.068   -14227936.97143 -11042389.84342  22585668.123    22585666.678
  21649284.615    -2349759.99443  -1794292.63642  21649284.571    21649281.151
  23735942.051    28375778.50443  22102721.55542  23735942.330    23735939.183
  24199370.032    -5759920.18643  -4483644.28742  24199371.217    24199368.685
  21938087.643    14713501.86143  11467817.37842  21938087.993    21938084.334
  20855033.051    11164420.53743   8709693.29942  20855033.129    20855029.018
 04  5 20  0 38  0.0000000  0  6G 1G20G14G30G11G25
  22573458.765   -14292096.89743 -11092384.52042  22573458.873    22573457.394
  21635313.212    -2423180.12043  -1851503.08942  21635313.150    21635309.708
  23751315.840    28456567.81443  22165674.21542  23751315.996    23751312.897
  24204475.961    -5733088.19543  -4462736.24242  24204477.052    24204474.588
  21948014.971    14765670.04443  11508467.87642  21948015.294    21948011.676
  20861368.505    11197713.59443   8735635.93742  20861368.600    20861364.470
 04  5 20  0 38 30.0000000  0  6G 1G20G14G30G11G25
  22561282.629   -14356082.68343 -11142243.50442  22561282.755    22561281.232
  21621388.969    -2496352.34143  -1908520.36842  21621388.926    21621385.445
  23766695.920    28537390.45943  22228652.85842  23766696.076    23766693.003
  24209686.282    -5705708.46743  -4441401.39642  24209687.359    24209685.015
  21958025.664    14818276.31143  11549459.73542  21958025.982    21958022.360
  20867791.186    11231464.97243   8761935.71042  20867791.272    20867787.131
 04  5 20  0 39  0.0000000  0  6G 1G20G14G30G11G25
  22549139.230   -14419896.39743 -11191968.40742  22549139.354    22549137.833
  21607511.958    -2569276.52343  -1965344.37642  21607511.899    21607508.394
  23782081.844    28618243.78343  22291655.40042  23782081.975    23782078.956
  24214999.806    -5677783.79743  -4419641.89942  24215000.922    24214998.911
  21968118.877    14871316.44243  11590789.66742  21968119.225    21968115.597
  20874300.380    11265670.95143   8788589.71442  20874300.485    20874296.317
 04  5 20  0 39 30.0000000  0  6G 1G20G14G30G11G25
  22537027.765   -14483542.31443 -11241562.55342  22537027.912    22537026.360
  21593681.721    -2641954.72943  -2021976.71142  21593681.680    21593678.144
  23797472.727    28699123.07743  22354678.17742  23797472.864    23797469.856
  24220416.902    -5649318.87643  -4397461.40742  24220417.770    24220415.549
  21978293.380    14924783.79343  11632452.50042  21978293.734    21978290.154
  20880894.990    11300325.73443   8815593.43542  20880895.076    20880890.899
 04  5 20  0 40  0.0000000  0  7G 1G16G20G14G30G11G25
  22524947.086   -14547026.61443 -11291030.77542  22524947.228    22524945.671
  24656741.290    -4126825.91553  -3136919.05952  24656741.857    24656744.075
  21579897.463    -2714391.39943  -2078420.83842  21579897.424    21579893.877
  23812867.181    28780021.38943  22417715.76642  23812867.321    23812864.323
  24225934.863    -5620320.62243  -4374865.37242  24225936.171    24225933.840
  21988547.596    14978670.02743  11674441.73242  21988547.952    21988544.389
  20887573.488    11335421.51043   8842940.78942  20887573.597    20887569.423
 04  5 20  0 40 30.0000000  0  7G 1G16G20G14G30G11G25
  22512902.412   -14610321.85443 -11340351.68042  22512902.542    22512900.936
  24638723.545    -4221508.12643  -3210697.08942  24638723.921    24638726.154
  21566164.833    -2786556.80243  -2134653.59042  21566164.777    21566161.232
  23828270.514    28860966.04843  22480789.45242  23828270.643    23828267.682
  24231560.012    -5590762.28443  -4351832.89942  24231561.106    24231558.477
  21998886.332    15033000.33143  11716776.98942  21998886.671    21998883.141
  20894340.816    11370983.94743   8870651.77242  20894340.893    20894336.731
 04  5 20  0 41  0.0000000  0  7G 1G16G20G14G30G11G25
  22500890.296   -14673445.67643 -11389539.00442  22500890.440    22500888.805
  24620698.427    -4316229.03243  -3284505.26742  24620698.916    24620700.947
  21552480.895    -2858466.21443  -2190686.86642  21552480.865    21552477.280
  23843679.195    28941939.18443  22543885.35042  23843679.346    23843676.351
  24237287.578    -5560661.66943  -4328377.82942  24237288.726    24237286.162
  22009305.860    15087755.31443  11759443.16542  22009306.229    22009302.706
  20901193.294    11406993.85143   8898711.43142  20901193.365    20901189.193
 04  5 20  0 41 30.0000000  0  7G 1G16G20G14G30G11G25
  22488911.076   -14736396.52243 -11438591.55042  22488911.236    22488909.599
  24602666.728    -4410984.52643  -3358340.39942  24602667.146    24602669.374
  21538846.319    -2930116.31343  -2246518.08342  21538846.285    21538842.685
  23859093.421    29022941.46243  22607003.95142  23859093.592    23859090.603
  24243119.017    -5530018.22443  -4304499.84042  24243120.280    24243117.694
  22019806.058    15142933.98443  11802439.48242  22019806.407    22019802.899
  20908130.828    11443450.97943   8927119.57842  20908130.911    20908126.775
 04  5 20  0 42  0.0000000  0  7G 1G16G20G14G30G11G25
  22476964.375   -14799176.66743 -11487511.07442  22476964.547    22476962.901
  24584628.634    -4505773.93243  -3432201.98742  24584629.153    24584631.314
  21525261.029    -3001507.25243  -2302147.35542  21525261.004    21525257.405
  23874512.705    29103970.03743  22670143.05742  23874512.867    23874509.899
  24249053.116    -5498835.16043  -4280201.30142  24249054.129    24249051.590
  22030385.977    15198531.63843  11845762.28342  22030386.300    22030382.818
  20915152.738    11480351.36043   8955873.11642  20915152.818    20915148.703
 04  5 20  0 42 30.0000000  0  7G 1G16G20G14G30G11G25
  22465050.669   -14861783.37843 -11536295.45742  22465050.830    22465049.166
  24566585.189    -4600591.76643  -3506085.72342  24566585.744    24566587.830
  21511725.984    -3072634.18943  -2357570.91342  21511725.966    21511722.380
  23889937.449    29185027.48943  22733304.64242  23889937.695    23889934.645
  24255089.892    -5467110.02243  -4255480.42442  24255091.149    24255088.995
  22041045.735    15254548.89943  11889412.04142  22041046.068    22041042.578
  20922259.170    11517695.95143   8984972.79242  20922259.252    20922255.140
 04  5 20  0 43  0.0000000  0  7G 1G16G20G14G30G11G25
  22453169.680   -14924218.04543 -11584945.76142  22453169.847    22453168.143
  24548536.612    -4695436.72243  -3579990.61142  24548537.243    24548539.042
  21498241.341    -3143496.38543  -2412788.17842  21498241.296    21498237.715
  23905367.444    29266111.85343  22796487.20342  23905367.602    23905364.501
  24261229.550    -5434845.18443  -4230339.00342  24261230.735    24261228.837
  22051784.641    15310982.11343  11933385.91942  22051784.967    22051781.502
  20929449.635    11555482.06143   9014416.51042  20929449.706    20929445.625
 04  5 20  0 43 30.0000000  0  7G 1G16G20G14G30G11G25
  22441321.593   -14986479.89043 -11633461.40942  22441321.727    22441320.028
  24530483.500    -4790305.13543  -3653913.77342  24530484.301    24530485.867
  21484807.611    -3214090.93643  -2467796.88842  21484807.572    21484803.997
  23920802.477    29347223.40043  22859690.94542  23920802.602    23920799.597
  24267471.990    -5402040.75043  -4204777.08942  24267473.084    24267471.308
  22062602.452    15367829.76943  11977682.74342  22062602.773    22062599.313
  20936723.831    11593708.31843   9044203.19642  20936723.927    20936719.842
 04  5 20  0 44  0.0000000  0  7G 1G16G20G14G30G11G25
  22429506.279   -15048569.45743 -11681842.81842  22429506.411    22429504.750
  24512426.412    -4885194.30343  -3727853.11742  24512427.214    24512428.590
  21471425.173    -3284416.10443  -2522595.69242  21471425.122    21471421.538
  23936242.565    29428361.43843  22922915.32542  23936242.725    23936239.731
  24273816.911    -5368697.66343  -4178795.46642  24273818.082    24273816.134
  22073498.664    15425089.25843  12022300.47542  22073498.932    22073495.472
  20944081.397    11632372.66843   9074331.25542  20944081.510    20944077.406
 04  5 20  0 44 30.0000000  0  7G 1G16G20G14G30G11G25
  22417723.528   -15110487.83543 -11730090.82342  22417723.659    22417722.007
  24494365.759    -4980102.64943  -3801807.42142  24494366.488    24494367.772
  21458094.145    -3354470.99843  -2577183.89542  21458094.109    21458090.507
  23951687.374    29509524.12043  22986158.91242  23951687.577    23951684.525
  24280264.178    -5334817.97543  -4152395.71142  24280264.905    24280263.161
  22084472.498    15482757.00243  12067236.32542  22084472.786    22084469.328
  20951521.783    11671472.10043   9104798.34142  20951521.863    20951517.783
 04  5 20  0 45  0.0000000  0  7G 1G16G20G14G30G11G25
  22405973.853   -15172232.43843 -11778203.42042  22405973.982    22405972.337
  24476302.547    -5075024.57043  -3875772.28842  24476303.151    24476304.459
  21444815.458    -3424250.85743  -2631557.78042  21444815.442    21444811.804
  23967137.239    29590713.81143  23049423.53742  23967137.491    23967134.386
  24286814.041    -5300399.97943  -4125576.46642  24286814.639    24286812.644
  22095524.084    15540833.32643  12112490.54342  22095524.383    22095520.915
  20959045.095    11711007.49143   9135605.12642  20959045.191    20959041.121
 04  5 20  0 45 30.0000000  0  7G 1G16G20G14G30G11G25
  22394257.199   -15233803.39043 -11826180.70342  22394257.317    22394255.674
  24458237.175    -5169957.47243  -3949745.71642  24458237.807    24458239.009
  21431589.476    -3493753.74643  -2685715.84142  21431589.443    21431585.849
  23982592.103    29671929.90743  23112708.74542  23982592.546    23982589.388
  24293465.133    -5265444.36843  -4098338.35342  24293466.062    24293464.659
  22106652.980    15599315.83943  12158061.27942  22106653.258    22106649.802
  20966651.022    11750976.83543   9166750.06742  20966651.109    20966647.024
 04  5 20  0 46  0.0000000  0  7G 1G16G20G14G30G11G25
  22382573.511   -15295201.26143 -11874023.12442  22382573.635    22382571.979
  24440170.288    -5264898.73343  -4023725.65942  24440170.845    24440172.097
  21418416.570    -3562977.65043  -2739656.51242  21418416.537    21418412.949
  23998051.875    29753171.71243  23176013.97542  23998052.245    23998049.205
  24300219.817    -5229952.79943  -4070682.57442  24300220.367    24300217.519
  22117858.733    15658202.23543  12203946.73242  22117859.009    22117855.575
  20974339.135    11791378.02143   9198231.50542  20974339.218    20974335.119
 04  5 20  0 46 30.0000000  0  7G 1G16G20G14G30G11G25
  22370921.934   -15356430.44543 -11921734.09942  22370922.038    22370920.378
  24422101.432    -5359849.82943  -4097713.27942  24422101.985    24422103.309
  21405296.302    -3631925.17243  -2793381.82642  21405296.242    21405292.654
  24013515.720    29834434.55643  23239335.59842  24013516.081    24013513.107
  24307075.010    -5193930.38243  -4042613.10142  24307075.659    24307072.145
  22129139.905    15717484.85243  12250140.92142  22129140.189    22129136.737
  20982108.306    11832205.13343   9230044.82842  20982108.374    20982104.263
 04  5 20  0 47  0.0000000  0  7G 1G16G20G14G30G11G25
  22359303.125   -15417487.38043 -11969310.85442  22359303.242    22359301.571
  24404031.925    -5454804.64543  -4171703.79942  24404032.577    24404033.707
  21392229.716    -3700590.37343  -2846887.14242  21392229.668    21392226.071
  24028984.097    29915721.24943  23302675.80842  24028984.402    24028981.637
  24314030.762    -5157374.38143  -4014127.93642  24314031.587    24314029.108
  22140496.816    15777165.32843  12296645.12942  22140497.064    22140493.626
  20989958.765    11873459.64343   9262191.19142  20989958.842    20989954.739
 04  5 20  0 47 30.0000000  0  7G 1G16G20G14G30G11G25
  22347717.432   -15478370.20543 -12016751.93842  22347717.547    22347715.882
  24385962.738    -5549758.15943  -4245693.31142  24385963.256    24385964.351
  21379217.583    -3768969.36743  -2900169.44542  21379217.532    21379213.954
  24044457.286    29997033.28543  23366035.75642  24044457.645    24044454.934
  24321089.055    -5120284.06943  -3985226.39542  24321089.788    24321087.327
  22151929.254    15837242.92843  12343458.79142  22151929.471    22151926.088
  20997890.623    11915141.75343   9294670.74742  20997890.702    20997886.599
 04  5 20  0 48  0.0000000  0  7G 1G16G20G14G30G11G25
  22336164.307   -15539082.19843 -12064059.90542  22336164.380    22336162.691
  24367893.744    -5644710.59043  -4319681.97742  24367894.230    24367895.091
  21366259.683    -3837063.43143  -2953229.72042  21366259.628    21366256.060
  24059934.735    30078366.97843  23429412.59642  24059935.016    24059932.257
  24328247.997    -5082663.60443  -3955911.72542  24328248.772    24328246.086
  22163436.188    15897712.16543  12390577.62042  22163436.432    22163433.055
  21005902.876    11957246.25143   9327479.44042  21005902.929    21005898.841
 04  5 20  0 48 30.0000000  0  7G 1G16G20G14G30G11G25
  22324643.955   -15599621.67543 -12111233.44942  22324644.045    22324642.318
  24349825.797    -5739657.51443  -4393666.34742  24349826.390    24349827.140
  21353356.807    -3904868.42343  -3006064.75242  21353356.736    21353353.162
  24075416.643    30159723.91043  23492807.55942  24075416.845    24075414.078
  24335507.849    -5044512.14743  -3926183.31342  24335508.907    24335505.955
  22175017.501    15958572.23943  12438000.99642  22175017.756    22175014.390
  21013995.517    11999773.34443   9360617.42442  21013995.591    21013991.474
 04  5 20  0 49  0.0000000  0  6G 1G16G20G14G11G25
  22313156.547   -15659988.16843 -12158272.21242  22313156.645    22313154.888
  24331759.605    -5834595.23343  -4467643.54842  24331760.150    24331760.980
  21340509.450    -3972381.74843  -3058672.51142  21340509.356    21340505.775
  24090902.827    30241104.16443  23556220.68142  24090903.023    24090900.333
  22186672.962    16019821.66543  12485727.76442  22186673.175    22186669.833
  21022168.183    12042721.11943   9394083.21342  21022168.280    21022164.178
 04  5 20  0 49 30.0000000  0  6G 1G16G20G14G11G25
  22301701.641   -15720183.75043 -12205177.79042  22301701.759    22301699.975
  24313695.267    -5929523.16543  -4541613.13342  24313695.825    24313696.494
  21327717.549    -4039603.49143  -3111053.06242  21327717.453    21327713.873
  24106392.948    30322505.29043  23619650.07342  24106393.152    24106390.531
  22198401.599    16081455.83943  12533754.34242  22198401.827    22198398.463
  21030420.195    12086085.73143   9427873.81042  21030420.295    21030416.215
 04  5 20  0 50  0.0000000  0  6G 1G16G20G14G11G25
  22290279.785   -15780205.81043 -12251948.16342  22290279.896    22290278.069
  24295633.879    -6024435.58443  -4615570.64242  24295634.387    24295635.096
  21314982.052    -4106528.77243  -3163202.60842  21314981.973    21314978.370
  24121887.570    30403929.52443  23683097.47842  24121887.829    24121885.109
  22210203.404    16143474.54743  12582080.55042  22210203.634    22210200.255
  21038751.737    12129868.27543   9461990.06742  21038751.825    21038747.778
 04  5 20  0 50 30.0000000  0  6G 1G16G20G14G11G25
  22278890.162   -15840058.20143 -12298586.31442  22278890.291    22278888.459
  24277575.258    -6119333.48343  -4689516.84042  24277575.670    24277576.391
  21302302.615    -4173159.37043  -3215122.53942  21302302.553    21302298.973
  24137385.681    30485372.60343  23746559.56642  24137385.897    24137383.266
  22222077.253    16205871.93143  12630701.83142  22222077.481    22222074.107
  21047161.753    12174063.10543   9496427.58342  21047161.843    21047157.791
 04  5 20  0 51  0.0000000  0  6G 1G16G20G14G11G25
  22267533.502   -15899737.55443 -12345089.64342  22267533.643    22267531.770
  24259520.593    -6214210.61943  -4763446.86842  24259520.951    24259521.663
  21289680.351    -4239489.58643  -3266808.40142  21289680.316    21289676.724
  24152888.079    30566837.46143  23810038.62842  24152888.173    24152885.543
  22234023.327    16268648.83043  12679618.84142  22234023.574    22234020.220
  21055650.517    12218671.76543   9531187.56642  21055650.597    21055646.559
 04  5 20  0 51 30.0000000  0  6G 1G16G20G14G11G25
  22256210.438   -15959240.36443 -12391455.41542  22256210.577    22256208.695
  24241471.133    -6309060.28743  -4837355.48842  24241471.434    24241472.218
  21277116.337    -4305513.88443  -3318255.88742  21277116.275    21277112.690
  24168395.114    30648327.60943  23873537.40342  24168395.188    24168392.608
  22246041.758    16331806.00543  12728832.16342  22246042.017    22246038.702
  21064218.340    12263695.90843   9566271.30742  21064218.414    21064214.376
 04  5 20  0 52  0.0000000  0  6G 1G16G20G14G11G25
  22244919.317   -16018575.38343 -12437690.43142  22244919.439    22244917.552
  24223425.805    -6403887.84843  -4911246.88042  24223426.148    24223426.947
  21264609.333    -4371238.54343  -3369469.89142  21264609.264    21264605.688
  24183905.241    30729833.84443  23937048.70242  24183905.328    24183902.791
  22258130.504    16395332.64043  12778333.37842  22258130.751    22258127.462
  21072863.221    12309124.87243   9601670.49342  21072863.266    21072859.209
 04  5 20  0 52 30.0000000  0  6G 1G16G20G14G11G25
  22233660.720   -16077739.63743 -12483792.39442  22233660.823    22233658.883
  24205385.794    -6498688.06643  -4985116.99442  24205386.181    24205386.836
  21252160.294    -4436658.61743  -3420446.55942  21252160.243    21252156.627
  24199419.028    30811358.73443  24000574.53442  24199419.101    24199416.513
  22270289.640    16459229.25443  12828122.88842  22270289.889    22270286.644
  21081585.341    12354959.86143   9637386.05642  21081585.401    21081581.309
 04  5 20  0 53  0.0000000  0  6G 1G16G20G14G11G25
  22222435.883   -16136726.53043 -12529756.15542  22222435.948    22222433.972
  24187352.880    -6593450.98343  -5058958.04442  24187353.238    24187353.796
  21239770.882    -4501765.34543  -3471179.06242  21239770.817    21239767.215
  24214937.468    30892908.80243  24064120.00542  24214937.623    24214935.076
  22282519.955    16523499.77943  12878203.75642  22282520.191    22282516.990
  21090385.621    12401205.72443   9673421.78742  21090385.695    21090381.594
 04  5 20  0 53 30.0000000  0  6G 1G16G20G14G11G25
  22211242.697   -16195546.80043 -12575590.08142  22211242.767    22211240.809
  24169325.567    -6688184.52243  -5132776.21342  24169325.818    24169326.429
  21227439.504    -4566567.20343  -3521674.00542  21227439.430    21227435.816
  24230458.606    30974472.81843  24127676.33042  24230458.777    24230456.245
  22294818.891    16588130.96143  12928565.65642  22294819.121    22294815.958
  21099261.622    12447849.43043   9709767.52242  21099261.715    21099257.602
 04  5 20  0 54  0.0000000  0  6G 1G16G20G14G11G25
  22200082.580   -16254193.52743 -12621288.78042  22200082.635    22200080.657
  24151305.695    -6782878.63843  -5206563.66742  24151306.055    24151306.455
  21215167.862    -4631055.08543  -3571924.29042  21215167.787    21215164.163
  24245983.694    31056057.31743  24191248.61542  24245983.863    24245981.373
  22307187.354    16653127.35043  12979212.12842  22307187.576    22307184.423
  21108214.292    12494895.99643   9746427.17542  21108214.374    21108210.253
 04  5 20  0 54 30.0000000  0  6G 1G16G20G14G11G25
  22188954.959   -16312669.45443 -12666854.39042  22188955.005    22188952.981
  24133293.388    -6877533.06043  -5280320.18642  24133293.724    24133294.121
  21202955.857    -4695229.55943  -3621930.35942  21202955.778    21202952.142
  24261512.090    31137659.26943  24254834.49842  24261512.280    24261509.703
  22319624.315    16718483.57543  13030138.99242  22319624.533    22319621.359
  21117242.749    12542340.94943   9783397.26142  21117242.853    21117238.716
 04  5 20  0 55  0.0000000  0  6G 1G16G20G14G11G25
  22177860.582   -16370970.65843 -12712283.84342  22177860.636    22177858.569
  24115289.974    -6972140.88043  -5354040.39242  24115290.357    24115290.732
  21190804.635    -4759084.62443  -3671687.54042  21190804.549    21190800.914
  24277044.377    31219282.49343  24318436.94242  24277044.629    24277042.164
  22332130.043    16784201.35243  13081347.58442  22332130.247    22332127.094
  21126347.441    12590186.40243   9820679.42542  21126347.537    21126343.395
 04  5 20  0 55 30.0000000  0  6G 1G16G20G14G11G25
  22166798.520   -16429101.92643 -12757580.88442  22166798.575    22166796.510
  24097295.137    -7066703.83043  -5427725.62642  24097295.525    24097295.885
  21178713.696    -4822622.76243  -3721197.76342  21178713.630    21178710.009
  24292579.894    31300921.88743  24382052.00842  24292580.165    24292577.549
  22344703.131    16850273.07743  13132831.97142  22344703.304    22344700.183
  21135527.041    12638425.61843   9858268.41842  21135527.154    21135523.015
 04  5 20  0 56  0.0000000  0  6G 1G16G20G14G11G25
  22155768.774   -16487063.36543 -12802745.59642  22155768.818    22155766.757
  24079309.422    -7161218.91743  -5501373.57442  24079309.847    24079310.088
  21166683.479    -4885841.96243  -3770459.46042  21166683.403    21166679.773
  24308118.364    31382576.89843  24445679.22342  24308118.595    24308116.127
  22357343.047    16916696.14543  13184590.13742  22357343.201    22357340.122
  21144781.171    12687056.25543   9896162.41242  21144781.268    21144777.120
 04  5 20  0 56 30.0000000  0  6G 1G16G20G14G11G25
  22144772.584   -16544848.66243 -12847773.05142  22144772.606    22144770.523
  24061334.600    -7255676.84543  -5574976.97242  24061334.882    24061335.114
  21154715.536    -4948733.81843  -3819466.08442  21154715.451    21154711.817
  24323661.090    31464253.41443  24509323.18842  24323661.137    24323658.645
  22370050.587    16983474.30343  13236624.99742  22370050.738    22370047.649
  21154110.683    12736083.02343   9934365.08242  21154110.756    21154106.613
 04  5 20  0 57  0.0000000  0  6G 1G16G20G14G11G25
  22133808.501   -16602465.14043 -12892668.95042  22133808.558    22133806.402
  24043369.797    -7350082.04743  -5648539.28642  24043370.007    24043370.223
  21142808.977    -5011303.24443  -3868221.46242  21142808.882    21142805.237
  24339206.433    31545944.20143  24572978.29242  24339206.320    24339203.897
  22382823.752    17050597.35943  13288928.61442  22382823.921    22382820.811
  21163513.773    12785496.48143   9972869.06842  21163513.823    21163509.694
 04  5 20  0 57 30.0000000  0  6G 1G16G20G14G11G25
  22122877.168   -16659909.48043 -12937430.72142  22122877.234    22122875.017
  24025416.196    -7444428.21243  -5722055.61542  24025416.492    24025416.509
  21130964.802    -5073544.83943  -3916721.38342  21130964.713    21130961.064
  24354754.894    31627652.10743  24636646.72842  24354754.890    24354752.369
  22395662.733    17118066.52643  13341501.92742  22395662.949    22395659.833
  21172990.653    12835297.99743  10011675.43642  21172990.729    21172986.615
 04  5 20  0 58  0.0000000  0  6G 1G16G20G14G11G25
  22111978.208   -16717183.70643 -12982059.93142  22111978.278    22111976.045
  24007474.050    -7538714.32343  -5795525.14442  24007474.274    24007474.306
  21119182.981    -5135458.65643  -3964965.89242  21119182.882    21119179.223
  24370306.243    31709374.78243  24700326.64942  24370306.254    24370303.849
  22408566.700    17185877.19143  13394341.34942  22408566.914    22408563.821
  21182540.645    12885483.55543  10050781.05642  21182540.722    21182536.620
 04  5 20  0 58 30.0000000  0  6G 1G16G20G14G11G25
  22101112.185   -16774284.83843 -13026554.26342  22101112.246    22101110.006
  23989544.476    -7632933.95443  -5868942.88842  23989544.765    23989544.725
  21107464.535    -5197039.22043  -4012950.71842  21107464.457    21107460.810
  24385860.963    31791115.23643  24764020.46042  24385861.080    24385858.583
  22421535.704    17254029.57143  13447447.03342  22421535.937    22421532.841
  21192164.018    12936054.68443  10090187.12242  21192164.072    21192159.980
 04  5 20  0 59  0.0000000  0  6G 1G16G20G14G11G25
  22090279.267   -16831211.97743 -13070913.01542  22090279.333    22090277.086
  23971628.330    -7727083.51543  -5942306.02142  23971628.580    23971628.443
  21095810.115    -5258283.49443  -4060673.50542  21095810.039    21095806.397
  24401419.142    31872873.81343  24827728.37842  24401419.150    24401416.712
  22434569.456    17322522.19943  13500817.84442  22434569.697    22434566.604
  21201860.480    12987009.95843  10129892.52142  21201860.525    21201856.481
 04  5 20  0 59 30.0000000  0  6G 1G16G20G14G11G25
  22079478.560   -16887969.78643 -13115139.81842  22079478.591    22079476.381
  23953725.183    -7821164.50843  -6015615.72742  23953725.414    23953725.277
  21084219.226    -5319194.01543  -4108136.22142  21084219.123    21084215.464
  24416979.925    31954645.74543  24891446.69342  24416979.860    24416977.427
  22447666.549    17391347.58543  13554447.95742  22447666.758    22447663.717
  21211628.809    13038342.92143  10169892.22142  21211628.858    21211624.840
 04  5 20  1  0  0.0000000  0  6G 1G16G20G14G11G25
  22068710.943   -16944553.85143 -13159231.24742  22068710.955    22068708.723
  23935836.550    -7915169.37843  -6088866.11042  23935836.811    23935836.554
  21072693.085    -5379764.24643  -4155333.77842  21072692.972    21072689.299
  24432544.013    32036435.24043  24955178.70742  24432543.946    24432541.466
  22460827.345    17460507.89043  13608339.04042  22460827.541    22460824.530
  21221469.475    13090055.85843  10210188.00442  21221469.514    21221465.507
 04  5 20  1  0 30.0000000  0  6G 1G16G20G14G11G25
  22057975.231   -17000970.21043 -13203191.99342  22057975.225    22057972.990
  23917961.765    -8009101.23843  -6162059.61042  23917962.037    23917961.762
  21061230.948    -5439998.06643  -4202269.19642  21061230.839    21061227.143
  24448110.277    32118235.86843  25018919.38342  24448110.223    24448107.745
  22474050.149    17529993.99543  13662483.99142  22474050.318    22474047.388
  21231380.868    13142140.66043  10250773.55142  21231380.922    21231376.933
 04  5 20  1  1  0.0000000  0  6G 1G16G20G14G11G25
  22047272.520   -17057212.85443 -13247017.37742  22047272.544    22047270.330
  23900102.586    -8102951.12043  -6235189.23442  23900102.909    23900102.569
  21049834.438    -5499886.94943  -4248935.83442  21049834.334    21049830.651
  24463679.661    32200053.53743  25082673.34742  24463679.628    24463677.124
  22487335.673    17599809.73043  13716885.79442  22487335.817    22487332.912
  21241363.781    13194601.07243  10291651.78242  21241363.821    21241359.824
 04  5 20  1  1 30.0000000  0  6G 1G16G20G14G11G25
  22036602.278   -17113285.10643 -13290709.99042  22036602.273    22036600.080
  23882259.016    -8196719.04743  -6308255.00542  23882259.272    23882258.963
  21038503.268    -5559432.45743  -4295334.90942  21038503.182    21038499.468
  24479251.487    32281884.74343  25146437.86842  24479251.576    24479249.180
  22500682.757    17669948.86743  13771539.60642  22500682.907    22500680.028
  21251417.208    13247432.14843  10332818.83942  21251417.245    21251413.242
 04  5 20  1  2  0.0000000  0  6G 1G16G20G14G11G25
  22025964.425   -17169187.09443 -13334269.92942  22025964.421    22025962.235
  23864431.596    -8290402.15443  -6381254.67342  23864431.947    23864431.469
  21027237.871    -5618632.46643  -4341464.76542  21027237.781    21027234.057
  24494826.094    32363729.06043  25210212.58542  24494826.057    24494823.690
  22514090.797    17740408.57643  13826443.21142  22514090.975    22514088.121
  21261540.813    13300631.98843  10374273.24742  21261540.836    21261536.846
 04  5 20  1  2 30.0000000  0  6G 1G16G20G14G11G25
  22015359.052   -17224918.56243 -13377696.99842  22015359.027    22015356.858
  23846621.012    -8383997.01143  -6454185.56942  23846621.323    23846620.788
  21016038.708    -5677484.41643  -4387323.41142  21016038.612    21016034.883
  24510403.136    32445586.44743  25273997.53142  24510403.069    24510400.812
  22527559.448    17811186.56743  13881594.81642  22527559.590    22527556.797
  21271734.231    13354198.66943  10416013.49942  21271734.250    21271730.256
 04  5 20  1  3  0.0000000  0  6G 1G16G20G14G11G25
  22004787.068   -17280474.40743 -13420987.21842  22004787.042    22004784.871
  23828828.695    -8477495.61343  -6527041.45942  23828829.037    23828828.502
  21004907.147    -5735980.92143  -4432905.08842  21004907.062    21004903.351
  24525983.539    32527461.86643  25337796.49242  24525983.548    24525981.405
  22541089.130    17882285.44343  13936996.46542  22541089.301    22541086.533
  21281998.041    13408135.28943  10458042.02342  21281998.048    21281994.068
 04  5 20  1  3 30.0000000  0  6G 1G16G20G14G11G25
  21994247.703   -17335858.90343 -13464143.91842  21994247.698    21994245.507
  23811054.424    -8570898.89943  -6599823.09542  23811054.817    23811054.371
  20993842.824    -5794124.14343  -4478211.48242  20993842.739    20993839.040
  24541566.564    32609350.89743  25401606.06842  24541566.609    24541564.306
  22554678.606    17953698.36843  13992642.83242  22554678.801    22554676.054
  21292331.062    13462435.74643  10500354.04942  21292331.076    21292327.109
 04  5 20  1  4  0.0000000  0  6G 1G16G20G14G11G25
  21983740.128   -17391076.22343 -13507170.34842  21983740.135    21983737.945
  23793298.180    -8664208.07843  -6672531.40242  23793298.595    23793298.055
  20982845.320    -5851916.26643  -4523244.29442  20982845.233    20982841.553
  24557151.350    32691248.84543  25465422.60342  24557151.311    24557148.898
  22568326.476    18025418.17443  14048528.33742  22568326.680    22568323.932
  21302732.107    13517093.63243  10542944.59242  21302732.127    21302728.169
 04  5 20  1  4 30.0000000  0  6G 1G16G20G14G11G25
  21973265.730   -17446119.23543 -13550060.95242  21973265.738    21973263.556
  23775561.777    -8757413.05343  -6745158.50342  23775562.127    23775561.561
  20971916.439    -5909347.91243  -4567996.21542  20971916.329    20971912.655
  24572739.144    32773162.87943  25529251.63942  24572739.224    24572736.871
  22582033.669    18097449.67943  14104656.71342  22582033.888    22582031.118
  21313202.140    13572114.10243  10585817.66642  21313202.143    21313198.235
 04  5 20  1  5  0.0000000  0  6G 1G16G20G14G11G25
  21962824.089   -17500990.22943 -13592817.52642  21962824.118    21962821.900
  23757845.328    -8850512.88743  -6817703.69642  23757845.721    23757845.143
  20961056.170    -5966419.02343  -4612467.20242  20961056.044    20961052.368
  24588329.524    32855090.70643  25593091.43142  24588329.517    24588327.392
  22595799.174    18169787.72443  14161023.95742  22595799.393    22595796.656
  21323740.344    13627492.78843  10628969.87442  21323740.350    21323736.477
 04  5 20  1  5 30.0000000  0  6G 1G16G20G14G11G25
  21952414.272   -17555693.95543 -13635443.76242  21952414.298    21952412.096
  23740148.561    -8943509.41643  -6890168.39342  23740148.852    23740148.309
  20950263.974    -6023132.47043  -4656659.49142  20950263.809    20950260.142
  24603921.510    32937027.07743  25656937.88442  24603921.472    24603919.274
  22609621.604    18242424.72143  14217624.13742  22609621.809    22609619.076
  21334345.490    13683223.03443  10672396.02042  21334345.455    21334341.617
 04  5 20  1  6  0.0000000  0  6G 1G16G20G14G11G25
  21942037.765   -17610222.70543 -13677933.65842  21942037.791    21942035.579
  23722473.571    -9036391.56043  -6962543.95042  23722473.820    23722473.251
  20939541.778    -6079478.07943  -4700565.15442  20939541.602    20939537.937
  24619516.502    33018979.72243  25720797.02142  24619516.656    24619514.452
  22623501.922    18315365.64943  14274461.13742  22623502.078    22623499.311
  21345018.567    13739310.42743  10716100.46342  21345018.545    21345014.712
 04  5 20  1  6 30.0000000  0  6G 1G16G20G14G11G25
  21931695.550   -17664571.22743 -13720283.11042  21931695.548    21931693.339
  23704821.884    -9129151.15643  -7034824.02242  23704822.127    23704821.512
  20928890.961    -6135448.56843  -4744178.51642  20928890.754    20928887.095
  24635115.589    33100953.24043  25784672.42842  24635115.812    24635113.685
  22637440.538    18388613.19043  14331537.07042  22637440.708    22637437.923
  21355760.261    13795758.31743  10760085.81842  21355760.229    21355756.395
 04  5 20  1  7  0.0000000  0  6G 1G16G20G14G11G25
  21921384.040   -17718758.49943 -13762506.92342  21921384.000    21921381.778
  23687190.565    -9221803.86743  -7107020.80142  23687190.831    23687190.137
  20918308.296    -6191060.83643  -4787512.74342  20918308.087    20918304.438
  24650714.994    33182928.78743  25848549.40142  24650715.158    24650713.219
  22651433.437    18462145.87643  14388835.17942  22651433.551    22651430.822
  21366566.583    13852545.82343  10804335.80542  21366566.553    21366562.718
 04  5 20  1  7 30.0000000  0  6G 1G16G20G14G11G25
  21911105.279   -17772773.59843 -13804596.57042  21911105.244    21911102.996
  23669582.238    -9314335.96243  -7179123.60242  23669582.526    23669581.779
  20907796.302    -6246301.79243  -4830557.63642  20907796.080    20907792.428
  24666316.864    33264917.08743  25912436.32042  24666317.049    24666315.058
  22665482.142    18535971.80843  14446361.79842  22665482.246    22665479.476
  21377439.151    13909681.62643  10848857.19542  21377439.151    21377435.335
 04  5 20  1  8  0.0000000  0  6G 1G16G20G14G11G25
  21900858.835   -17826618.89143 -13846553.89842  21900858.778    21900856.552
  23651996.993    -9406746.59643  -7251131.76742  23651997.184    23651996.411
  20897354.903    -6301171.61943  -4873313.33242  20897354.687    20897351.029
  24681920.742    33346915.50043  25976331.11242  24681921.023    24681919.057
  22679585.632    18610085.66443  14504112.77842  22679585.730    22679582.956
  21388377.187    13967161.26943  10893646.51242  21388377.186    21388373.368
 04  5 20  1  8 30.0000000  0  6G 1G16G20G14G11G25
  21890644.755   -17880294.02443 -13888378.63942  21890644.710    21890642.480
  23634435.502    -9499032.27243  -7323042.55642  23634435.648    23634434.906
  20886984.588    -6355667.95943  -4915777.99642  20886984.377    20886980.714
  24697526.460    33428924.13743  26040233.88642  24697526.657    24697524.600
  22693743.483    18684485.13243  14562086.30742  22693743.532    22693740.781
  21399380.301    14024983.01243  10938702.39642  21399380.311    21399376.488
 04  5 20  1  9  0.0000000  0  6G 1G16G20G14G11G25
  21880464.082   -17933793.57143 -13930066.55942  21880464.043    21880461.806
  23616899.329    -9591184.77343  -7394849.57942  23616899.539    23616898.753
  20876686.786    -6409783.18543  -4957945.69042  20876686.595    20876682.921
  24713135.138    33510948.37243  26104148.80342  24713135.537    24713133.616
  22707956.114    18759172.76443  14620284.38042  22707956.178    22707953.437
  21410449.178    14083150.20843  10984027.46642  21410449.177    21410445.355
 04  5 20  1  9 30.0000000  0  6G 1G16G20G14G11G25
  21870314.935   -17987127.58643 -13971625.49542  21870314.876    21870312.624
  23599387.252    -9683211.00443  -7466558.20942  23599387.419    23599386.615
  20866459.965    -6463525.33943  -4999822.67442  20866459.800    20866456.122
  24728744.877    33592977.80143  26168067.76642  24728745.194    24728743.243
  22722221.187    18834135.91943  14678697.15142  22722221.264    22722218.572
  21421581.376    14141650.33543  11029611.96442  21421581.400    21421577.558
 04  5 20  1 10  0.0000000  0  5G 1G16G20G11G25
  21860202.992   -18040266.03143 -14013032.03342  21860202.932    21860200.661
  23581905.542    -9775077.61943  -7538142.47342  23581905.728    23581904.861
  20856310.250    -6516862.24043  -5041383.87742  20856310.097    20856306.432
  22736543.861    18909401.87143  14737345.85942  22736543.935    22736541.288
  21432782.357    14200511.84543  11075478.05942  21432782.386    21432778.532
 04  5 20  1 10 30.0000000  0  5G 1G16G20G11G25
  21850119.473   -18093255.35343 -14054322.38142  21850119.371    21850117.090
  23564445.948    -9866827.98543  -7609636.15942  23564446.085    23564445.168
  20846229.268    -6569838.07343  -5082663.72642  20846229.103    20846225.458
  22750914.836    18984921.66343  14796192.36742  22750914.931    22750912.300
  21444042.886    14259686.18743  11121587.91842  21444042.921    21444039.052
 04  5 20  1 11  0.0000000  0  5G 1G16G20G11G25
  21840068.917   -18146071.21743 -14095477.56842  21840068.835    21840066.514
  23547013.658    -9958434.83843  -7681018.00942  23547013.829    23547012.889
  20836222.002    -6622426.50243  -5123641.70642  20836221.841    20836218.190
  22765338.138    19060716.44643  14855253.14842  22765338.246    22765335.634
  21455367.175    14319195.58343  11167958.86042  21455367.216    21455363.315
 04  5 20  1 11 30.0000000  0  5G 1G16G20G11G25
  21830051.076   -18198715.14543 -14136498.76942  21830050.987    21830048.658
  23529608.993   -10049896.49243  -7752286.73042  23529609.158    23529608.191
  20826288.579    -6674626.92543  -5164317.33942  20826288.411    20826284.776
  22779813.001    19136782.27343  14914525.15542  22779813.123    22779810.561
  21466754.482    14379036.34043  11214588.00942  21466754.541    21466750.641
 04  5 20  1 12  0.0000000  0  5G 1G16G20G11G25
  21820065.562   -18251189.29443 -14177387.68642  21820065.484    21820063.138
  23512232.146   -10141211.91643  -7823441.50742  23512232.315    23512231.342
  20816428.977    -6726439.41543  -5204690.69042  20816428.818    20816425.157
  22794338.453    19213113.73343  14974004.12742  22794338.599    22794335.999
  21478204.099    14439204.42443  11261472.21142  21478204.164    21478200.282
 04  5 20  1 12 30.0000000  0  5G 1G16G20G11G25
  21810112.402   -18303493.58743 -14218144.24442  21810112.297    21810109.921
  23494883.786   -10232377.88543  -7894479.84242  23494883.920    23494882.969
  20806643.653    -6777861.55943  -5244759.87742  20806643.488    20806639.840
  22808914.046    19289708.57243  15033688.34042  22808914.197    22808911.608
  21489715.644    14499697.84643  11308609.92342  21489715.694    21489711.827
 04  5 20  1 13  0.0000000  0  5G 1G16G20G11G25
  21800191.969   -18355625.54743 -14258766.51942  21800191.865    21800189.502
  23477564.923   -10323388.95243  -7965397.48142  23477565.063    23477564.048
  20796933.448    -6828888.99243  -5284521.49942  20796933.283    20796929.592
  22823539.657    19366566.45043  15093577.51242  22823539.802    22823537.224
  21501289.130    14560516.95243  11356001.41742  21501289.180    21501285.336
 04  5 20  1 13 30.0000000  0  5G 1G16G20G11G25
  21790304.161   -18407586.13143 -14299255.24742  21790304.060    21790301.690
  23460275.919   -10414242.98843  -8036192.76142  23460276.052    23460274.980
  20787298.562    -6879520.61143  -5323974.69642  20787298.408    20787294.687
  22838214.561    19443683.32143  15153668.49542  22838214.701    22838212.148
  21512924.001    14621658.39943  11403644.08642  21512924.012    21512920.172
 04  5 20  1 14  0.0000000  0  5G 1G16G20G11G25
  21780449.833   -18459370.74743 -14339606.85842  21780449.744    21780447.375
  23443018.260   -10504932.14343  -8106859.54142  23443018.383    23443017.275
  20777740.254    -6929749.73443  -5363114.26342  20777740.113    20777736.385
  22852939.165    19521061.31843  15213962.94442  22852939.292    22852936.733
  21524620.675    14683124.80843  11451539.97042  21524620.681    21524616.842
 04  5 20  1 14 30.0000000  0  5G 1G16G20G11G25
  21770627.229   -18510988.74043 -14379828.63842  21770627.133    21770624.760
  23425790.814   -10595462.78843  -8177402.81742  23425790.871    23425789.783
  20768257.189    -6979583.58943  -5401945.83042  20768257.023    20768253.299
  22867711.093    19598688.16143  15274451.31342  22867711.260    22867708.687
  21536377.075    14744904.87543  11499680.26542  21536377.059    21536373.220
 04  5 20  1 15  0.0000000  0  5G 1G16G20G11G25
  21760837.002   -18562436.57743 -14419917.82942  21760836.910    21760834.518
  23408594.773   -10685828.38243  -8247817.47142  23408594.745    23408593.700
  20758850.382    -7029016.56143  -5440465.02242  20758850.232    20758846.468
  22882530.545    19676564.66043  15335134.22742  22882530.768    22882528.169
  21548193.461    14807000.29843  11548066.28642  21548193.435    21548189.585
 04  5 20  1 15 30.0000000  0  5G 1G16G20G11G25
  21751079.175   -18613714.06943 -14459874.27942  21751079.102    21751076.716
  23391430.755   -10776025.54943  -8318100.88842  23391430.756    23391429.712
  20749520.300    -7078046.53743  -5478670.19242  20749520.140    20749516.338
  22897397.011    19754688.10843  15396009.56742  22897397.191    22897394.657
  21560069.461    14869408.96843  11596696.39942  21560069.442    21560065.589
 04  5 20  1 16  0.0000000  0  5G 1G16G20G11G25
  21741354.732   -18664816.46043 -14499694.29342  21741354.633    21741352.210
  23374300.281   -10866046.54543  -8388247.02342  23374300.274    23374299.201
  20740268.199    -7126666.65943  -5516555.99842  20740268.030    20740264.233
  22912310.813    19833060.17043  15457078.61342  22912310.974    22912308.438
  21572005.489    14932133.16043  11645572.37442  21572005.484    21572001.619
 04  5 20  1 16 30.0000000  0  5G 1G16G20G11G25
  21731662.327   -18715750.23443 -14539382.91642  21731662.222    21731659.806
  23357202.555   -10955895.01543  -8458258.72342  23357202.562    23357201.525
  20731093.187    -7174881.73643  -5554126.18442  20731092.992    20731089.192
  22927270.142    19911671.48443  15518334.09742  22927270.311    22927267.785
  21583999.918    14995164.21743  11694687.46442  21583999.901    21583996.048
 04  5 20  1 17  0.0000000  0  5G 1G16G20G11G25
  21722003.024   -18766509.96943 -14578935.92742  21722002.937    21722000.506
  23340139.371   -11045561.99543  -8528129.00142  23340139.469    23340138.349
  20721996.729    -7222683.83543  -5591374.57242  20721996.550    20721992.753
  22942275.448    19990524.72443  15579778.10042  22942275.646    22942273.152
  21596053.327    15058505.37243  11744044.19242  21596053.321    21596049.479
 04  5 20  1 17 30.0000000  0  5G 1G16G20G11G25
  21712376.100   -18817099.65143 -14618356.42842  21712376.041    21712373.569
  23323110.581   -11135048.44243  -8597858.60042  23323110.628    23323109.533
  20712978.489    -7270075.12543  -5628302.84942  20712978.271    20712974.503
  22957325.588    20069613.21543  15641405.39042  22957325.753    22957323.264
  21608164.678    15122150.86143  11793638.05342  21608164.677    21608160.830
 04  5 20  1 18  0.0000000  0  5G 1G16G20G11G25
  21702781.923   -18867517.25943 -14657642.84542  21702781.858    21702779.381
  23306117.032   -11224349.57843  -8667443.79142  23306117.102    23306115.965
  20704039.179    -7317051.47443  -5664907.79442  20704038.982    20704035.215
  22972420.289    20148936.06543  15703215.29242  22972420.465    22972418.021
  21620333.890    15186100.37943  11843468.83042  21620333.875    21620330.037
 04  5 20  1 18 30.0000000  0  5G 1G16G20G11G25
  21693219.591   -18917767.50843 -14696798.86042  21693219.518    21693217.033
  23289158.476   -11313466.82243  -8736885.68742  23289158.551    23289157.445
  20695178.248    -7363615.88943  -5701191.74942  20695178.077    20695174.292
  22987558.158    20228485.69543  15765201.90642  22987558.306    22987555.927
  21632559.685    15250347.28743  11893531.33242  21632559.676    21632555.843
 04  5 20  1 19  0.0000000  0  5G 1G16G20G11G25
  21683689.988   -18967845.79943 -14735820.87242  21683689.904    21683687.402
  23272236.356   -11402392.45143  -8806178.27442  23272236.470    23272235.371
  20686397.001    -7409761.54243  -5737149.39342  20686396.838    20686393.069
  23002739.566    20308264.00343  15827366.71542  23002739.666    23002737.363
  21644842.578    15314894.22243  11943827.62742  21644842.554    21644838.739
 04  5 20  1 19 30.0000000  0  5G 1G16G20G11G25
  21674192.856   -19017753.38243 -14774709.86742  21674192.799    21674190.259
  23255350.997   -11491124.58843  -8875320.08942  23255351.151    23255350.127
  20677695.610    -7455487.69043  -5772780.15142  20677695.444    20677691.687
  23017963.677    20388266.85343  15889706.48142  23017963.768    23017961.515
  21657181.874    15379737.62843  11994354.93242  21657181.850    21657178.040
 04  5 20  1 20  0.0000000  0  5G 1G16G20G11G25
  21664729.345   -19067484.32043 -14813461.21342  21664729.277    21664726.723
  23238504.245   -11579654.41843  -8944304.26242  23238504.403    23238503.354
  20669075.577    -7500786.27543  -5808077.74142  20669075.412    20669071.644
  23033231.012    20468497.02143  15952223.40142  23033231.119    23033228.925
  21669578.236    15444880.91643  12045115.91242  21669578.206    21669574.415
 04  5 20  1 20 30.0000000  0  5G 1G16G20G11G25
  21655297.919   -19117046.64943 -14852081.17342  21655297.848    21655295.297
  23221695.105   -11667986.82143  -9013134.61442  23221695.220    23221694.106
  20660535.695    -7545663.63543  -5843047.09942  20660535.519    20660531.777
  23048539.542    20548943.73743  16014909.04542  23048539.677    23048537.553
  21682029.774    15510314.17343  12096102.84842  21682029.743    21682025.954
 04  5 20  1 21  0.0000000  0  5G 1G16G20G11G25
  21645899.573   -19166435.10443 -14890565.64842  21645899.504    21645896.960
  23204925.114   -11756113.65043  -9081804.76742  23204925.178    23204924.078
  20652077.318    -7590112.63043  -5877682.66742  20652077.143    20652073.402
  23063889.769    20629609.32743  16077765.24542  23063889.900    23063887.801
  21694537.134    15576040.61343  12147318.23542  21694537.080    21694533.301
 04  5 20  1 21 30.0000000  0  5G 1G16G20G11G25
  21636533.187   -19215655.63243 -14928919.26642  21636533.134    21636530.584
  23188193.729   -11844037.47343  -9150316.73842  23188193.723    23188192.629
  20643699.746    -7634136.98943  -5911987.34942  20643699.566    20643695.834
  23079280.033    20710485.23043  16140785.30442  23079280.143    23079278.085
  21707098.752    15642052.17843  12198755.79942  21707098.678    21707094.887
 04  5 20  1 22  0.0000000  0  5G 1G16G20G11G25
  21627199.416   -19264704.75343 -14967139.32242  21627199.354    21627196.827
  23171502.176   -11931751.93343  -9218665.57242  23171502.169    23171501.006
  20635404.038    -7677731.20243  -5945956.85042  20635403.844    20635400.116
  23094710.403    20791571.99543  16203969.69842  23094710.508    23094708.464
  21719714.869    15708350.27243  12250416.63542  21719714.813    21719711.014
 04  5 20  1 22 30.0000000  0  5G 1G16G20G11G25
  21617898.574   -19313580.81443 -15005224.53242  21617898.524    21617895.986
  23154851.375   -12019252.24843  -9286847.54042  23154851.392    23154850.127
  20627190.797    -7720891.99143  -5979588.62042  20627190.605    20627186.902
  23110180.647    20872868.11843  16267317.22642  23110180.730    23110178.684
  21732385.417    15774934.29243  12302300.27142  21732385.352    21732381.554
 04  5 20  1 23  0.0000000  0  5G 1G16G20G11G25
  21608630.594   -19362284.08143 -15043175.09842  21608630.561    21608628.011
  23138241.843   -12106535.62643  -9354860.46142  23138241.875    23138240.584
  20619060.405    -7763617.49943  -6012881.20942  20619060.211    20619056.477
  23125690.184    20954370.78343  16330825.68642  23125690.238    23125688.233
  21745109.934    15841802.12243  12354405.05342  21745109.891    21745106.095
 04  5 20  1 23 30.0000000  0  5G 1G16G20G11G25
  21599395.003   -19410817.14543 -15080993.03642  21599394.992    21599392.431
  23121673.694   -12193601.53443  -9422703.92842  23121673.792    23121672.379
  20611012.696    -7805908.37343  -6045835.12142  20611012.505    20611008.789
  23141237.967    21036074.38243  16394490.72542  23141238.011    23141236.048
  21757887.547    15908948.81543  12406727.13442  21757887.511    21757883.731
 04  5 20  1 24  0.0000000  0  5G 1G16G20G11G25
  21590191.831   -19459180.05943 -15118678.39742  21590191.806    21590189.253
  23105147.510   -12280447.07443  -9490375.68542  23105147.594    23105146.104
  20603048.022    -7847762.87943  -6078449.01142  20603047.848    20603044.119
  23156823.373    21117975.77743  16458309.87642  23156823.409    23156821.491
  21770717.757    15976372.05843  12459264.71042  21770717.752    21770713.957
 04  5 20  1 24 30.0000000  0  5G 1G16G20G11G25
  21581022.197   -19507366.81943 -15156226.48942  21581022.157    21581019.590
  23088664.932   -12367063.25443  -9557868.71642  23088665.054    23088663.504
  20595167.928    -7889173.10243  -6110716.71342  20595167.737    20595163.987
  23172447.080    21200078.42043  16522285.83742  23172447.120    23172445.204
  21783601.302    16044075.54943  12512020.65642  21783601.305    21783597.546
 04  5 20  1 25  0.0000000  0  5G 1G16G20G11G25
  21571884.945   -19555383.34843 -15193641.93842  21571884.901    21571882.323
  23072225.509   -12453452.78243  -9625185.14142  23072225.605    23072224.024
  20587371.606    -7930143.10843  -6142641.38642  20587371.411    20587367.654
  23188107.332    21282373.13743  16586411.48742  23188107.354    23188105.496
  21796536.688    16112051.40643  12564988.84342  21796536.688    21796532.927
 04  5 20  1 25 30.0000000  0  5G 1G16G20G11G25
  21562780.381   -19603227.89643 -15230923.37442  21562780.339    21562777.764
  23055830.072   -12539610.93843  -9692321.26742  23055830.173    23055828.602
  20579659.731    -7970669.26043  -6174220.20042  20579659.542    20579655.786
  23203803.945    21364858.93543  16650686.01742  23203803.959    23203802.127
  21809523.862    16180299.47343  12618169.13342  21809523.881    21809520.142
 04  5 20  1 26  0.0000000  0  5G 1G16G20G11G25
  21553708.638   -19650900.19943 -15268070.59942  21553708.599    21553706.002
  23039479.289   -12625534.49243  -9759274.58842  23039479.402    23039477.781
  20572032.730    -8010749.47343  -6205451.53342  20572032.512    20572028.760
  23219536.411    21447533.09043  16715107.31342  23219536.434    23219534.594
  21822562.393    16248817.49943  12671559.78342  21822562.424    21822558.711
 04  5 20  1 26 30.0000000  0  5G 1G16G20G11G25
  21544669.884   -19698399.04043 -15305082.65642  21544669.857    21544667.231
  23023173.861   -12711219.42943  -9826041.97842  23023174.025    23023172.371
  20564491.167    -8050380.64143  -6236332.96442  20564490.953    20564487.186
  23235304.345    21530393.88843  16779674.05442  23235304.397    23235302.635
  21835652.122    16317604.51943  12725160.03842  21835652.166    21835648.456
 04  5 20  1 27  0.0000000  0  5G 1G16G20G11G25
  21535663.515   -19745727.83243 -15341962.20742  21535663.496    21535660.819
  23006913.878   -12796665.76443  -9892623.44442  23006914.021    23006912.375
  20557034.759    -8089564.34543  -6266865.72142  20557034.554    20557030.762
  23251106.646    21613434.90743  16844381.21042  23251106.608    23251104.982
  21848792.008    16386655.06043  12778965.63542  21848792.043    21848788.343
 04  5 20  1 27 30.0000000  0  5G 1G16G20G11G25
  21526689.973   -19792884.11943 -15378707.34042  21526689.924    21526687.238
  22990700.286   -12881868.23343  -9959014.89242  22990700.379    22990698.772
  20549664.318    -8128296.30743  -6297046.47442  20549664.095    20549660.305
  23266943.115    21696655.96243  16909228.67042  23266943.101    23266941.551
  21861982.144    16455969.57743  12832976.92642  21861982.167    21861978.482
 04  5 20  1 28  0.0000000  0  5G 1G16G20G11G25
  21517749.875   -19839864.45543 -15415315.37142  21517749.857    21517747.131
  22974534.305   -12966820.61143 -10025211.45142  22974534.401    22974532.766
  20542380.754    -8166571.63543  -6326871.40542  20542380.550    20542376.741
  23282813.929    21780057.17743  16974216.49642  23282813.882    23282812.386
  21875222.686    16525549.00843  12887194.64342  21875222.720    21875219.013
 04  5 20  1 28 30.0000000  0  5G 1G16G20G11G25
  21508842.013   -19886675.60543 -15451791.56742  21508841.980    21508839.228
  22958415.268   -13051526.43543 -10091215.89242  22958415.339    22958413.687
  20535183.161    -8204395.13443  -6356344.26542  20535182.957    20535179.155
  23298717.209    21863628.95243  17039337.22542  23298717.189    23298715.674
  21888511.982    16595384.67543  12941612.02742  21888512.017    21888508.309
 04  5 20  1 29  0.0000000  0  5G 1G16G20G11G25
  21499966.264   -19933317.84643 -15488136.14642  21499966.248    21499963.481
  22942343.667   -13135983.01343 -10157026.12442  22942343.738    22942342.026
  20528071.821    -8241765.39343  -6385463.94942  20528071.629    20528067.827
  23314652.365    21947368.31343  17104588.55042  23314652.342    23314650.867
  21901849.543    16665473.88443  12996226.97742  21901849.562    21901845.865
 04  5 20  1 29 30.0000000  0  5G 1G16G20G11G25
  21491123.931   -19979784.66443 -15524344.03042  21491123.906    21491121.109
  22926321.266   -13220180.90343 -10222634.77642  22926321.345    22926319.567
  20521048.335    -8278674.06643  -6414223.95942  20521048.136    20521044.325
  23330620.029    22031278.31743  17169972.83742  23330620.036    23330618.519
  21915236.221    16735821.24243  13051043.08242  21915236.229    21915232.538
 04  5 20  1 30  0.0000000  0  5G 1G16G20G11G25
  21482315.217   -20026074.67543 -15560414.14342  21482315.208    21482312.400
  22910348.906   -13304115.81543 -10288038.51642  22910349.022    22910347.188
  20514113.344    -8315117.67843  -6442621.57842  20514113.150    20514109.324
  23346619.960    22115357.71743  17235489.11142  23346619.953    23346618.436
  21928671.875    16806426.08343  13106059.82342  21928671.912    21928668.219
 04  5 20  1 30 30.0000000  0  5G 1G16G20G11G25
  21473538.515   -20072196.60643 -15596353.28742  21473538.493    21473535.669
  22894425.551   -13387793.38243 -10353241.73342  22894425.630    22894423.773
  20507265.531    -8351103.35343  -6470662.36442  20507265.317    20507261.477
  23362649.914    22199595.16443  17301128.54542  23362649.959    23362648.387
  21942154.388    16877277.00643  13161268.31242  21942154.400    21942150.706
 04  5 20  1 31  0.0000000  0  5G 1G16G20G11G25
  21464794.918   -20118144.55743 -15632156.86042  21464794.852    21464792.049
  22878552.785   -13471204.74843 -10418237.50242  22878552.881    22878551.065
  20500506.248    -8386623.73943  -6498340.58142  20500506.024    20500502.163
  23378710.406    22283993.14043  17366893.06642  23378710.489    23378708.880
  21955684.440    16948377.87643  13216671.57242  21955684.456    21955680.748
 04  5 20  1 31 30.0000000  0  6G 1G16G20G13G11G25
  21456078.899   -20163947.58743 -15667847.51242  21456078.812    21456076.011
  22862725.727   -13554375.93143 -10483046.12742  22862725.837    22862724.055
  20493830.326    -8421706.02643  -6525677.42342  20493830.101    20493826.224
  24644596.702    -5865806.08553  -4521200.13352  24644597.617    24644597.886
  23394795.436    22368519.69243  17432757.77842  23394795.447    23394793.794
  21969256.170    17019697.67543  13272245.42242  21969256.158    21969252.489
 04  5 20  1 32  0.0000000  0  6G 1G16G20G13G11G25
  21447402.256   -20209543.37143 -15703376.67242  21447402.207    21447399.395
  22846956.838   -13637241.66343 -10547616.73842  22846956.886    22846955.121
  20487249.926    -8456286.13343  -6552622.95742  20487249.726    20487245.849
  24628931.547    -5948126.96743  -4585346.12142  24628932.598    24628932.694
  23410916.231    22453234.30543  17498769.02042  23410916.242    23410914.537
  21982881.032    17091296.76243  13328036.89842  21982881.023    21982877.359
 04  5 20  1 32 30.0000000  0  6G 1G16G20G13G11G25
  21438757.553   -20254971.37943 -15738775.09242  21438757.516    21438754.714
  22831239.028   -13719838.75743 -10611978.02842  22831239.086    22831237.347
  20480757.914    -8490401.97143  -6579206.72142  20480757.700    20480753.812
  24613273.808    -6030408.82643  -4649461.69642  24613274.777    24613274.799
  23427064.724    22538094.62843  17564893.82142  23427064.726    23427063.063
  21996551.108    17163133.34843  13384013.44142  21996551.095    21996547.433
 04  5 20  1 33  0.0000000  0  6G 1G16G20G13G11G25
  21430146.553   -20300222.39143 -15774035.60342  21430146.499    21430143.707
  22815574.734   -13802154.84043 -10676120.34342  22815574.742    22815573.028
  20474356.272    -8524042.82243  -6605420.36442  20474356.068    20474352.169
  24597625.160    -6112642.50443  -4713539.70142  24597626.027    24597626.088
  23443242.107    22623106.61743  17631136.77142  23443242.038    23443240.403
  22010267.620    17235214.04443  13440180.20142  22010267.617    22010263.946
 04  5 20  1 33 30.0000000  0  6G 1G16G20G13G11G25
  21421567.724   -20345304.30443 -15809164.34442  21421567.665    21421564.891
  22799962.966   -13884194.75843 -10740047.47242  22799962.960    22799961.250
  20468043.891    -8557214.60543  -6631268.49642  20468043.689    20468039.785
  24581984.073    -6194835.60543  -4777586.09942  24581985.031    24581984.900
  23459446.329    22708259.73343  17697489.71242  23459446.323    23459444.651
  22024028.784    17307529.25543  13496529.69842  22024028.763    22024025.090
 04  5 20  1 34  0.0000000  0  6G 1G16G20G13G11G25
  21413022.471   -20390209.73143 -15844155.56742  21413022.441    21413019.622
  22784405.649   -13965948.40543 -10803751.51842  22784405.661    22784403.945
  20461822.507    -8589908.29943  -6656744.09342  20461822.303    20461818.378
  24566352.240    -6276980.83743  -4841595.25542  24566353.198    24566352.975
  23475678.204    22793558.13243  17763955.85642  23475678.163    23475676.518
  22037835.516    17380084.03743  13553065.86942  22037835.501    22037831.827
 04  5 20  1 34 30.0000000  0  6G 1G16G20G13G11G25
  21404509.970   -20434943.18243 -15879012.78442  21404509.946    21404507.119
  22768902.553   -14047417.21043 -10867233.61742  22768902.561    22768900.837
  20455691.508    -8622126.86543  -6681849.45842  20455691.321    20455687.384
  24550728.721    -6359082.63843  -4905570.53642  24550729.699    24550729.252
  23491936.308    22878994.38943  17830529.42342  23491936.256    23491934.641
  22051686.563    17452871.65343  13609783.47942  22051686.526    22051682.857
 04  5 20  1 35  0.0000000  0  6G 1G16G20G13G11G25
  21396031.115   -20479500.07443 -15913732.42442  21396031.046    21396028.205
  22753455.063   -14128593.90443 -10930488.11142  22753455.058    22753453.321
  20449652.101    -8653864.05443  -6706579.72842  20449651.926    20449647.999
  24535114.308    -6441136.20043  -4969508.22342  24535115.362    24535114.789
  23508220.942    22964570.37643  17897211.85942  23508220.941    23508219.385
  22065582.363    17525894.51343  13666684.39442  22065582.346    22065578.665
 04  5 20  1 35 30.0000000  0  6G 1G16G20G13G11G25
  21387584.822   -20523885.50543 -15948318.45242  21387584.788    21387581.920
  22738062.802   -14209480.54443 -10993516.58242  22738062.823    22738061.016
  20443703.616    -8685123.53443  -6730937.75442  20443703.436    20443699.509
  24519508.073    -6523146.84543  -5033412.49742  24519509.027    24519508.553
  23524530.678    23050277.91543  17963996.80942  23524530.606    23524529.100
  22079521.623    17599145.70243  13723763.22342  22079521.598    22079517.919
 04  5 20  1 36  0.0000000  0  6G 1G16G20G13G11G25
  21379171.365   -20568098.39843 -15982770.03942  21379171.329    21379168.499
  22722726.526   -14290073.08843 -11056315.88742  22722726.494    22722724.696
  20437846.583    -8715902.40343  -6754921.27842  20437846.386    20437842.479
  24503910.256    -6605113.49243  -5097282.46242  24503911.123    24503910.683
  23540865.040    23136114.97243  18030882.67942  23540864.951    23540863.503
  22093504.075    17672623.87043  13781018.93142  22093504.057    22093500.378
 04  5 20  1 36 30.0000000  0  6G 1G16G20G13G11G25
  21370792.181   -20612131.35843 -16017081.42142  21370792.118    21370789.282
  22707448.118   -14370361.54743 -11118878.24442  22707448.053    22707446.228
  20432082.661    -8746192.02343  -6778523.57342  20432082.464    20432078.563
  24488322.144    -6687028.89943  -5161112.51342  24488323.018    24488322.680
  23557224.958    23222086.01343  18097872.94942  23557224.855    23557223.400
  22107530.657    17746334.13143  13838455.48842  22107530.680    22107527.015
 04  5 20  1 37  0.0000000  0  6G 1G16G20G13G11G25
  21362444.918   -20655996.43143 -16051261.97942  21362444.852    21362442.014
  22692225.866   -14450354.92143 -11181210.67242  22692225.778    22692223.906
  20426409.819    -8776002.82743  -6801752.76142  20426409.640    20426405.748
  24472741.572    -6768904.79343  -5224911.81542  24472742.417    24472742.113
  23573607.468    23308175.94443  18164955.84742  23573607.363    23573605.925
  22121598.759    17820262.35943  13896061.88042  22121598.747    22121595.103
 04  5 20  1 37 30.0000000  0  6G 1G16G20G13G11G25
  21354132.154   -20699680.32643 -16085301.36342  21354132.065    21354129.236
  22677062.848   -14530037.08943 -11243300.61042  22677062.726    22677060.816
  20420830.947    -8805319.88543  -6824597.21842  20420830.771    20420826.892
  24457170.939    -6850727.91243  -5288669.94242  24457171.791    24457171.424
  23590014.591    23394395.21443  18232139.54042  23590014.445    23590013.104
  22135710.414    17894419.43043  13953846.59842  22135710.377    22135706.763
 04  5 20  1 38  0.0000000  0  6G 1G16G20G13G11G25
  21345851.639   -20743194.65543 -16119208.61942  21345851.554    21345848.715
  22661957.359   -14609416.74143 -11305154.81142  22661957.262    22661955.301
  20415344.131    -8834153.28943  -6847064.80142  20415343.962    20415340.063
  24441608.208    -6932509.96343  -5352396.10142  24441609.054    24441608.758
  23606443.458    23480729.08643  18299412.52042  23606443.323    23606442.002
  22149863.047    17968791.90143  14011799.15642  22149862.990    22149859.385
 04  5 20  1 38 30.0000000  0  6G 1G16G20G13G11G25
  21337604.484   -20786533.64043 -16152979.23742  21337604.400    21337601.564
  22646910.988   -14688485.53143 -11366766.78442  22646910.937    22646908.929
  20409950.700    -8862495.96343  -6869149.99542  20409950.511    20409946.630
  24426054.420    -7014244.96543  -5416085.55942  24426055.290    24426055.074
  23622894.716    23567180.36543  18366776.98042  23622894.556    23622893.293
  22164057.277    18043383.22743  14069922.25442  22164057.233    22164053.665
 04  5 20  1 39  0.0000000  0  6G 1G16G20G13G11G25
  21329390.810   -20829696.67743 -16186612.75542  21329390.732    21329387.858
  22631924.528   -14767239.78443 -11428133.66542  22631924.472    22631922.412
  20404651.063    -8890345.69343  -6890851.08242  20404650.871    20404646.985
  24410509.652    -7095932.50743  -5479738.03842  24410510.489    24410510.332
  23639367.821    23653746.55343  18434230.97442  23639367.625    23639366.466
  22178292.885    18118191.81443  14128214.64242  22178292.846    22178289.284
 04  5 20  1 39 30.0000000  0  6G 1G16G20G13G11G25
  21321210.871   -20872682.47643 -16220108.16042  21321210.804    21321207.921
  22616998.633   -14845675.58743 -11489252.39742  22616998.628    22616996.471
  20399445.752    -8917699.73043  -6912165.91142  20399445.568    20399441.687
  24394974.276    -7177571.29143  -5543352.51642  24394975.108    24394974.851
  23655862.482    23740426.16643  18501773.36942  23655862.326    23655861.197
  22192569.604    18193216.55543  14186675.46342  22192569.585    22192566.042
 04  5 20  1 40  0.0000000  0  6G 1G16G20G13G11G25
  21313063.246   -20915498.53743 -16253471.31142  21313063.146    21313060.271
  22602132.511   -14923797.36943 -11550126.43642  22602132.497    22602130.336
  20394333.632    -8944564.14443  -6933099.21942  20394333.432    20394329.551
  24379446.781    -7259168.77743  -5606934.84542  24379447.590    24379447.245
  23672376.790    23827208.77043  18569396.01642  23672376.594    23672375.562
  22206885.659    18268448.00043  14245297.34642  22206885.661    22206882.120
 04  5 20  1 40 30.0000000  0  6G 1G16G20G13G11G25
  21304950.123   -20958133.16943 -16286693.08342  21304950.039    21304947.147
  22587328.878   -15001590.75443 -11610744.59042  22587328.864    22587326.665
  20389317.141    -8970926.00843  -6953640.93042  20389316.951    20389313.032
  24363929.240    -7340713.13643  -5670475.76642  24363930.112    24363929.732
  23688912.221    23914102.82443  18637105.49342  23688912.110    23688911.090
  22221242.935    18343895.89043  14304087.88642  22221242.940    22221239.395
 04  5 20  1 41  0.0000000  0  6G 1G16G20G13G11G25
  21296869.607   -21000596.53543 -16319781.40542  21296869.523    21296866.634
  22572586.345   -15079063.13543 -11671112.60242  22572586.327    22572584.097
  20384394.651    -8996793.87343  -6973797.70442  20384394.452    20384390.535
  24348420.022    -7422214.17643  -5733982.91942  24348420.887    24348420.379
  23705466.443    24001095.06643  18704891.47842  23705466.311    23705465.297
  22235639.007    18419547.63843  14363037.28442  22235639.008    22235635.469
 04  5 20  1 41 30.0000000  0  6G 1G16G20G13G11G25
  21288823.242   -21042880.39743 -16352729.85642  21288823.159    21288820.244
  22557906.965   -15156203.55643 -11731221.94742  22557906.935    22557904.675
  20379568.021    -9022157.99743  -6993561.95342  20379567.800    20379563.905
  24332920.410    -7503664.37143  -5797450.47742  24332921.386    24332920.744
  23722040.365    24088190.89143  18772758.17842  23722040.240    23722039.185
  22250074.988    18495409.13043  14422150.11942  22250074.983    22250071.444
 04  5 20  1 42  0.0000000  0  6G 1G16G20G13G11G25
  21280810.550   -21084987.47043 -16385540.54242  21280810.441    21280807.516
  22543290.734   -15233012.02243 -11791072.62242  22543290.685    22543288.461
  20374836.965    -9047019.90643  -7012934.86842  20374836.747    20374832.825
  24317430.066    -7585066.29143  -5860880.40842  24317431.034    24317430.388
  23738632.884    24175384.47743  18840701.05142  23738632.774    23738631.743
  22264550.025    18571475.84443  14481422.86042  22264550.032    22264546.449
 04  5 20  1 42 30.0000000  0  6G 1G16G20G13G11G25
  21272830.370   -21126923.50843 -16418217.95842  21272830.253    21272827.322
  22528737.165   -15309491.27243 -11850666.76842  22528737.110    22528734.892
  20370200.635    -9071384.10543  -7031919.96042  20370200.402    20370196.460
  24301947.863    -7666425.38343  -5924276.97342  24301948.920    24301948.054
  23755242.374    24262667.11143  18908713.30042  23755242.222    23755241.234
  22279062.591    18647739.78843  14540849.29142  22279062.596    22279058.996
 04  5 20  1 43  0.0000000  0  6G 1G16G20G13G11G25
  21264884.257   -21168680.42043 -16450755.79042  21264884.173    21264881.246
  22514248.229   -15385630.75243 -11909996.14642  22514248.154    22514245.991
  20365660.793    -9095241.04043  -7050509.78042  20365660.570    20365656.651
  24286475.329    -7747733.86543  -5987634.10642  24286476.279    24286475.330
  23771869.862    24350044.29943  18976799.22742  23771869.700    23771868.762
  22293613.756    18724206.53843  14600433.74842  22293613.747    22293610.170
 04  5 20  1 43 30.0000000  0  6G 1G16G20G13G11G25
  21256971.745   -21210260.92643 -16483156.16042  21256971.656    21256968.717
  22499823.979   -15461430.30643 -11969060.65042  22499823.874    22499821.725
  20361217.193    -9118592.28643  -7068705.55642  20361216.983    20361213.063
  24271011.892    -7828994.34843  -6050953.82642  24271012.871    24271011.873
  23788514.213    24437509.96443  19044954.08442  23788514.014    23788513.073
  22308202.651    18800871.44143  14660172.60742  22308202.644    22308199.045
 04  5 20  1 44  0.0000000  0  6G 1G16G20G13G11G25
  21249092.719   -21251665.48343 -16515419.43042  21249092.594    21249089.679
  22485464.841   -15536887.63543 -12027858.49342  22485464.757    22485462.554
  20356870.047    -9141436.78743  -7086506.47042  20356869.841    20356865.917
  24255557.444    -7910207.21843  -6114236.44842  24255558.366    24255557.607
  23805174.676    24525060.58343  19113175.14242  23805174.468    23805173.665
  22322828.727    18877731.97243  14720063.91042  22322828.743    22322825.109
 04  5 20  1 44 30.0000000  0  7G 1G 4G16G20G13G11G25
  21241246.692   -21292896.51743 -16547547.48342  21241246.576    21241243.657
  24777238.553    -4667167.94753  -3601141.35852  24777239.034    24777238.043
  22471170.879   -15612002.61743 -12086389.56642  22471170.792    22471168.541
  20352619.100    -9163775.68643  -7103913.40742  20352618.896    20352614.958
  24240111.700    -7991374.85543  -6177483.84142  24240112.579    24240111.780
  23821850.326    24612690.79143  19181458.20942  23821850.103    23821849.345
  22337491.170    18954783.42343  14780103.97742  22337491.158    22337487.516
 04  5 20  1 45  0.0000000  0  7G 1G 4G16G20G13G11G25
  21233434.680   -21333948.80043 -16579536.25142  21233434.570    21233431.637
  24766591.177    -4723120.90243  -3644741.06342  24766591.737    24766590.547
  22456943.560   -15686767.22543 -12144647.62242  22456943.542    22456941.237
  20348465.567    -9185602.54543  -7120921.35242  20348465.366    20348461.465
  24224675.365    -8072492.18143  -6240691.99642  24224676.264    24224675.509
  23838541.474    24700402.66943  19249804.91842  23838541.249    23838540.582
  22352190.540    19032029.04843  14840295.35742  22352190.563    22352186.864
 04  5 20  1 45 30.0000000  0  7G 1G 4G16G20G13G11G25
  21225657.012   -21374820.47943 -16611384.28942  21225656.937    21225653.997
  24756030.974    -4778615.34243  -3687983.46442  24756031.521    24756030.198
  22442783.809   -15761176.96943 -12202629.16142  22442783.805    22442781.443
  20344410.059    -9206914.42143  -7137528.01442  20344409.851    20344405.936
  24209249.105    -8153557.28343  -6303859.48642  24209250.016    24209249.154
  23855248.013    24788195.26743  19318214.52742  23855247.724    23855247.201
  22366926.766    19109468.20743  14900637.53442  22366926.754    22366923.058
 04  5 20  1 46  0.0000000  0  7G 1G 4G16G20G13G11G25
  21217913.218   -21415514.32943 -16643093.75942  21217913.131    21217910.175
  24745557.739    -4833652.52243  -3730869.57542  24745558.136    24745556.924
  22428691.592   -15835232.05243 -12260334.34942  22428691.586    22428689.158
  20340452.250    -9227712.77043  -7153734.52442  20340452.038    20340448.150
  24193832.143    -8234573.12443  -6366988.59642  24193833.089    24193832.249
  23871968.810    24876062.56743  19386682.33942  23871968.430    23871967.986
  22381698.825    19187095.89743  14961126.62442  22381698.802    22381695.132
 04  5 20  1 46 30.0000000  0  7G 1G 4G16G20G13G11G25
  21210203.296   -21456030.17443 -16674664.52842  21210203.200    21210200.237
  24735171.899    -4888230.64443  -3773397.96042  24735172.370    24735171.055
  22414667.393   -15908929.51143 -12317760.86242  22414667.394    22414664.918
  20336592.488    -9247996.04643  -7169539.68042  20336592.253    20336588.369
  24178424.690    -8315539.19943  -6430078.90542  24178425.617    24178424.800
  23888703.266    24964001.83143  19455206.22942  23888702.856    23888702.498
  22396506.450    19264910.33943  15021761.23242  22396506.408    22396502.728
 04  5 20  1 47  0.0000000  0  7G 1G 4G16G20G13G11G25
  21202526.820   -21496370.27943 -16706098.35542  21202526.714    21202523.743
  24724873.147    -4942350.59643  -3815569.31842  24724873.676    24724872.389
  22400711.313   -15982269.04143 -12374908.47542  22400711.301    22400708.784
  20332830.505    -9267765.50743  -7184944.46342  20332830.257    20332826.363
  24163026.346    -8396458.03443  -6493132.44442  24163027.312    24163026.338
  23905450.405    25052007.71543  19523782.02642  23905449.994    23905449.693
  22411348.714    19342907.03043  15082537.85642  22411348.684    22411345.032
 04  5 20  1 47 30.0000000  0  7G 1G 4G16G20G13G11G25
  21194884.579   -21536530.38443 -16737391.92542  21194884.477    21194881.494
  24714662.664    -4996006.95443  -3857379.45142  24714663.156    24714661.933
  22386824.615   -16055243.76843 -12431771.82542  22386824.595    22386822.101
  20329167.238    -9287016.06043  -7199944.90542  20329166.999    20329163.118
  24147637.792    -8477325.22443  -6556145.72442  24147638.657    24147637.604
  23922210.437    25140081.38143  19592410.63942  23922210.000    23922209.681
  22426226.060    19421087.94143  15143458.02842  22426226.043    22426222.369
 04  5 20  1 48  0.0000000  0  7G 1G 4G16G20G13G11G25
  21187276.196   -21576512.54443 -16768546.83742  21187276.085    21187273.125
  24704540.330    -5049200.10343  -3898828.62942  24704540.786    24704539.457
  22373007.468   -16127853.00843 -12488350.37342  22373007.455    22373004.940
  20325602.619    -9305748.17843  -7214541.36842  20325602.390    20325598.535
  24132258.660    -8558142.91443  -6619120.43242  24132259.454    24132258.357
  23938982.491    25228218.36443  19661088.59442  23938982.045    23938981.829
  22441137.700    19499448.89743  15204518.48642  22441137.641    22441134.005
 04  5 20  1 48 30.0000000  0  7G 1G 4G16G20G13G11G25
  21179701.994   -21616315.18143 -16799561.86042  21179701.887    21179698.916
  24694506.636    -5101927.23343  -3939914.66742  24694507.204    24694505.765
  22359260.709   -16200092.63443 -12544640.92142  22359260.661    22359258.138
  20322137.231    -9323959.09643  -7228731.70742  20322136.964    20322133.126
  24116889.335    -8638909.56043  -6682055.37142  24116890.087    24116888.893
  23955766.254    25316416.89443  19729814.49842  23955765.785    23955765.647
  22456083.488    19577989.51743  15265718.95442  22456083.451    22456079.814
 04  5 20  1 49  0.0000000  0  7G 1G 4G16G20G13G11G25
  21172161.836   -21655938.97743 -16830437.52542  21172161.724    21172158.754
  24684561.720    -5154187.56943  -3980636.96642  24684562.344    24684560.903
  22345584.594   -16271960.72043 -12600641.95842  22345584.566    22345581.990
  20318771.032    -9341648.60843  -7242515.75642  20318770.769    20318766.929
  24101529.376    -8719625.95643  -6744951.13842  24101530.199    24101528.965
  23972560.922    25404672.97543  19798585.23942  23972560.518    23972560.483
  22471062.951    19656706.93343  15327057.17342  22471062.893    22471059.264
 04  5 20  1 49 30.0000000  0  7G 1G 4G16G20G13G11G25
  21164656.081   -21695382.00443 -16861172.33642  21164655.956    21164653.008
  24674706.336    -5205977.89543  -4020993.03342  24674706.935    24674705.453
  22331980.037   -16343452.69343 -12656349.91942  22331980.041    22331977.433
  20315504.656    -9358813.55243  -7255891.05242  20315504.381    20315500.552
  24086179.472    -8800290.06843  -6807806.17542  24086180.301    24086179.005
  23989366.519    25492985.90843  19867400.27842  23989366.077    23989366.103
  22486075.965    19735600.73643  15388532.84842  22486075.895    22486072.270
 04  5 20  1 50  0.0000000  0  7G 1G 4G16G20G13G11G25
  21157184.142   -21734647.22643 -16891768.59942  21157184.014    21157181.068
  24664940.018    -5257299.97543  -4060984.22642  24664940.541    24664939.095
  22318446.956   -16414569.30643 -12711765.39442  22318446.917    22318444.334
  20312337.719    -9375456.00943  -7268859.21942  20312337.434    20312333.604
  24070838.839    -8880905.01143  -6870622.88342  24070839.716    24070838.360
  24006181.715    25581349.54943  19936254.82242  24006181.322    24006181.353
  22501121.555    19814665.89043  15450142.03142  22501121.513    22501117.900
 04  5 20  1 50 30.0000000  0  7G 1G 4G16G20G13G11G25
  21149746.380   -21773732.73943 -16922224.82642  21149746.271    21149743.350
  24655263.415    -5308150.69043  -4100608.12142  24655263.958    24655262.451
  22304986.127   -16485306.01643 -12766884.83142  22304986.121    22304983.538
  20309270.744    -9391573.17443  -7281418.06142  20309270.451    20309266.614
  24055507.978    -8961468.76243  -6933399.70742  24055508.845    24055507.467
  24023006.297    25669762.53043  20005147.80342  24023005.894    24023006.044
  22516199.684    19893902.05043  15511884.47442  22516199.651    22516196.050
 04  5 20  1 51  0.0000000  0  7G 1G 4G16G20G13G11G25
  21142342.620   -21812639.64243 -16952541.87842  21142342.494    21142339.584
  24645676.646    -5358529.69243  -4139864.44642  24645677.171    24645675.559
  22291597.912   -16555661.21243 -12821706.99142  22291597.914    22291595.309
  20306303.737    -9407164.90843  -7293567.47642  20306303.442    20306299.628
  24040186.629    -9041982.37443  -6996137.46942  24040187.560    24040186.124
  24039839.519    25758220.97843  20074076.22242  24039839.128    24039839.386
  22531309.756    19973305.95843  15573757.62142  22531309.724    22531306.137
 04  5 20  1 51 30.0000000  0  7G 1G 4G16G20G13G11G25
  21134973.618   -21851363.85543 -16982716.57542  21134973.493    21134970.609
  24636180.575    -5408431.70743  -4178749.10042  24636180.978    24636179.479
  22278283.547   -16625628.35343 -12876226.77642  22278283.542    22278280.911
  20303437.721    -9422226.09143  -7305303.47642  20303437.414    20303433.593
  24024875.633    -9122441.66943  -7058832.89842  24024876.529    24024875.071
  24056681.664    25846725.74043  20143040.72642  24056681.234    24056681.584
  22546452.108    20052879.47343  15635762.92742  22546452.055    22546448.514
 04  5 20  1 52  0.0000000  0  7G 1G 4G16G20G13G11G25
  21127638.329   -21889910.98243 -17012753.28242  21127638.177    21127635.326
  24626774.447    -5457861.18143  -4217265.54942  24626774.826    24626773.275
  22265042.476   -16695210.32543 -12930446.42942  22265042.494    22265039.820
  20300671.759    -9436761.33043  -7316629.64842  20300671.465    20300667.626
  24009573.864    -9202852.84743  -7121490.84042  24009574.750    24009573.236
  24073530.979    25935268.58543  20212034.90742  24073530.594    24073530.872
  22561625.331    20132615.10043  15697894.55642  22561625.240    22561621.735
 04  5 20  1 52 30.0000000  0  7G 1G 4G16G20G13G11G25
  21120338.017   -21928274.21943 -17042646.69942  21120337.865    21120335.011
  24617459.741    -5506810.21243  -4255407.61742  24617460.129    24617458.583
  22251876.445   -16764397.97243 -12984358.81142  22251876.484    22251873.794
  20298007.352    -9450763.01243  -7327540.06042  20298007.031    20298003.213
  23994282.598    -9283208.57743  -7184105.57542  23994283.483    23994281.986
  24090388.200    26023853.01143  20281061.47942  24090387.746    24090388.171
  22576830.276    20212517.48943  15760156.12642  22576830.175    22576826.671
 04  5 20  1 53  0.0000000  0  7G 1G 4G16G20G13G11G25
  21113071.973   -21966457.42343 -17072399.82942  21113071.840    21113068.972
  24608236.070    -5555281.21543  -4293177.20742  24608236.432    24608234.895
  22238785.128   -16833192.93543 -13037965.20842  22238785.199    22238782.479
  20295443.859    -9464234.24443  -7338037.13242  20295443.540    20295439.727
  23979001.032    -9363513.05143  -7246680.36742  23979001.958    23979000.432
  24107252.036    26112472.34043  20350115.26742  24107251.592    24107252.108
  22592065.785    20292580.63943  15822542.96142  22592065.689    22592062.205
 04  5 20  1 53 30.0000000  0  7G 1G 4G16G20G13G11G25
  21105840.193   -22004460.48043 -17102012.58442  21105840.068    21105837.214
  24599103.411    -5603273.23843  -4330573.56842  24599103.777    24599102.337
  22225769.047   -16901592.54643 -13091263.54642  22225769.114    22225766.392
  20292981.558    -9477173.81243  -7348119.92242  20292981.224    20292977.414
  23963729.283    -9443766.07643  -7309215.07242  23963730.185    23963728.639
  24124121.959    26201123.54643  20419193.87042  24124121.412    24124122.110
  22607331.502    20372802.39243  15885053.38642  22607331.407    22607327.899
 04  5 20  1 54  0.0000000  0  7G 1G 4G16G20G13G11G25
  21098643.537   -22042279.00743 -17131481.55342  21098643.412    21098640.567
  24590063.062    -5650780.67643  -4367592.34342  24590063.419    24590061.985
  22212829.528   -16969590.01643 -13144248.52342  22212829.559    22212826.792
  20290621.353    -9489576.69143  -7357784.51342  20290621.052    20290617.241
  23948468.146    -9523963.56243  -7371706.51842  23948469.042    23948467.369
  24140998.201    26289807.91043  20488298.32742  24140997.665    24140998.384
  22622627.721    20453184.41843  15947688.69442  22622627.603    22622624.097
 04  5 20  1 54 30.0000000  0  7G 1G 4G16G20G13G11G25
  21091481.048   -22079918.10643 -17160810.70242  21091480.894    21091478.074
  24581114.215    -5697807.55543  -4404236.65842  24581114.496    24581113.010
  22199966.015   -17037187.96143 -13196922.18242  22199966.007    22199963.237
  20288362.513    -9501446.94343  -7367034.06542  20288362.223    20288358.401
  23933216.588    -9604110.37243  -7434158.46442  23933217.438    23933215.794
  24157879.237    26378517.28743  20557422.25842  24157878.736    24157879.460
  22637953.140    20533720.02743  16010443.68542  22637953.035    22637949.556
 04  5 20  1 55  0.0000000  0  7G 1G 4G16G20G13G11G25
  21084353.497   -22117373.58143 -17189996.77142  21084353.367    21084350.507
  24572257.800    -5744348.60343  -4440502.40842  24572258.082    24572256.541
  22187179.778   -17104379.76843 -13249279.37142  22187179.784    22187176.971
  20286205.999    -9512779.44643  -7375864.59342  20286205.724    20286201.894
  23917975.545    -9684202.12343  -7496567.50542  23917976.420    23917974.723
  24174765.173    26467252.87443  20626566.61442  24174764.753    24174765.592
  22653308.192    20614411.26443  16073319.93242  22653308.067    22653304.644
 04  5 20  1 55 30.0000000  0  7G 1G 4G16G20G13G11G25
  21077260.843   -22154645.65543 -17219039.93042  21077260.703    21077257.823
  24563493.929    -5790402.90143  -4476388.86942  24563494.211    24563492.660
  22174471.203   -17171163.46743 -13301318.55842  22174471.175    22174468.399
  20284151.895    -9523573.85343  -7384275.82542  20284151.608    20284147.790
  23902744.801    -9764239.59543  -7558934.26342  23902745.697    23902743.993
  24191655.507    26556011.31143  20695728.77242  24191655.217    24191656.015
  22668692.396    20695255.49043  16136315.39942  22668692.241    22668688.834
 04  5 20  1 56  0.0000000  0  7G 1G 4G16G20G13G11G25
  21070202.334   -22191738.36343 -17247943.32442  21070202.201    21070199.307
  24554822.048    -5835973.48443  -4511898.40742  24554822.346    24554820.847
  22161839.991   -17237540.55643 -13353040.90542  22161839.954    22161837.191
  20282199.658    -9533833.00443  -7392269.97042  20282199.357    20282195.556
  23887523.810    -9844226.38343  -7621261.52442  23887524.589    23887522.954
  24208548.971    26644785.91243  20764903.51342  24208548.614    24208549.442
  22684104.594    20776246.73443  16199425.42542  22684104.400    22684100.989
 04  5 20  1 56 30.0000000  0  7G 1G 4G16G20G13G11G25
  21063178.904   -22228646.82143 -17276703.14942  21063178.779    21063175.829
  24546243.463    -5881054.31143  -4547026.32842  24546243.743    24546242.209
  22149287.549   -17303503.73243 -13404440.71942  22149287.535    22149284.787
  20280350.272    -9543551.55343  -7399842.86742  20280349.981    20280346.177
  23872313.307    -9924157.98343  -7683545.80542  23872313.988    23872312.418
  24225445.902    26733578.49843  20834092.28142  24225445.437    24225446.330
  22699545.288    20857387.90843  16262652.28642  22699545.108    22699541.674
 04  5 20  1 57  0.0000000  0  7G 1G 4G16G20G13G11G25
  21056190.379   -22265371.78943 -17305319.99142  21056190.264    21056187.288
  24537758.062    -5925645.30243  -4581772.55742  24537758.350    24537756.816
  22136814.207   -17369051.41743 -13455516.77342  22136814.158    22136811.365
  20278603.788    -9552729.36843  -7406994.41442  20278603.488    20278599.685
  23857113.134   -10004035.15943  -7745787.68642  23857113.866    23857112.144
  24242345.546    26822385.03843  20903291.90442  24242345.053    24242345.984
  22715013.992    20938676.25443  16325993.82242  22715013.811    22715010.367
 04  5 20  1 57 30.0000000  0  7G 1G 4G16G20G13G11G25
  21049237.347   -22301910.13043 -17333791.41142  21049237.217    21049234.270
  24529366.574    -5969742.46343  -4616133.96542  24529366.864    24529365.374
  22124420.996   -17434177.95843 -13506264.66642  22124420.966    22124418.124
  20276960.950    -9561362.57643  -7413721.59542  20276960.672    20276956.849
  23841923.917   -10083854.59843  -7807984.55942  23841924.676    23841922.914
  24259247.880    26911205.97943  20972502.76242  24259247.337    24259248.261
  22730510.838    21020112.60343  16389450.68142  22730510.650    22730507.235
 04  5 20  1 58  0.0000000  0  7G 1G 4G16G20G13G11G25
  21042318.734   -22338267.58143 -17362121.87842  21042318.603    21042315.673
  24521068.264    -6013350.11643  -4650113.93042  24521068.582    24521067.087
  22112107.220   -17498886.95943 -13556687.20542  22112107.213    22112104.337
  20275420.817    -9569456.10543  -7420028.24242  20275420.515    20275416.703
  23826744.632   -10163622.18143  -7870141.02642  23826745.380    23826743.606
  24276151.196    27000032.46243  21041717.92842  24276150.692    24276151.599
  22746034.279    21101688.86343  16453016.56442  22746034.111    22746030.721
 04  5 20  1 58 30.0000000  0  7G 1G 4G16G20G13G11G25
  21035435.250   -22374440.48943 -17390308.55042  21035435.101    21035432.173
  24512863.906    -6056464.03943  -4683709.18342  24512864.266    24512862.773
  22099874.058   -17563172.49243 -13606779.76842  22099874.033    22099871.148
  20273984.113    -9577005.93643  -7425911.23442  20273983.838    20273980.010
  23811575.862   -10243334.19943  -7932254.18842  23811576.569    23811574.816
  24293055.613    27088864.97143  21110937.80442  24293055.273    24293056.251
  22761584.635    21183406.44843  16516692.57342  22761584.475    22761581.129
 04  5 20  1 59  0.0000000  0  7G 1G 4G16G20G13G11G25
  21028586.759   -22410429.51243 -17418351.92942  21028586.627    21028583.671
  24504753.612    -6099084.12143  -4716919.61042  24504754.031    24504752.411
  22087721.770   -17627032.95343 -13656541.10742  22087721.731    22087718.870
  20272650.945    -9584011.80243  -7431370.35142  20272650.646    20272646.857
  23796417.540   -10322991.30443  -7994324.56842  23796418.299    23796416.509
  24309960.580    27177699.71443  21180159.39842  24309960.168    24309961.157
  22777161.448    21265262.99643  16580476.86142  22777161.287    22777157.917
 04  5 20  1 59 30.0000000  0  7G 1G 4G16G20G13G11G25
  21021773.712   -22446232.37043 -17446250.25042  21021773.545    21021770.591
  24496738.079    -6141206.85143  -4749742.50642  24496738.435    24496736.703
  22075651.214   -17690463.80743 -13705967.68742  22075651.181    22075648.325
  20271421.798    -9590470.80643  -7436403.34542  20271421.542    20271417.755
  23781270.060   -10402591.32143  -8056350.47042  23781270.815    23781269.051
  24326865.898    27266536.27743  21249382.41342  24326865.499    24326866.371
  22792764.677    21347258.28743  16644369.26742  22792764.492    22792761.157
 04  5 20  2  0  0.0000000  0  7G 1G 4G16G20G13G11G25
  21014995.769   -22481850.61243 -17474004.71742  21014995.628    21014992.657
  24488816.782    -6182833.11043  -4782178.51642  24488817.109    24488815.569
  22063662.538   -17753464.47643 -13755059.06342  22063662.491    22063659.641
  20270296.576    -9596383.93043  -7441010.97842  20270296.311    20270292.537
  23766133.183   -10482135.78843  -8118333.08942  23766133.961    23766132.099
  24343770.573    27355370.09843  21318603.29442  24343770.147    24343771.156
  22808393.608    21429388.74043  16708366.98742  22808393.425    22808390.088
 04  5 20  2  0 30.0000000  0  7G 1G 4G16G20G13G11G25
  21008253.345   -22517282.17343 -17501613.71642  21008253.218    21008250.251
  24480990.517    -6223960.03943  -4814225.45042  24480990.806    24480989.292
  22051756.528   -17816030.61443 -13803811.83542  22051756.526    22051753.659
  20269275.739    -9601748.64843  -7445191.28642  20269275.429    20269271.672
  23751007.222   -10561622.93443  -8180271.03042  23751007.942    23751006.122
  24360674.591    27444200.01643  21387821.11142  24360674.130    24360675.173
  22824048.209    21511654.34743  16772470.03442  22824048.083    22824044.722
 04  5 20  2  1  0.0000000  0  7G 1G 4G16G20G13G11G25
  21001546.529   -22552526.73843 -17529077.00442  21001546.392    21001543.416
  24473259.596    -6264586.42843  -4845882.34642  24473259.885    24473258.296
  22039933.656   -17878159.76343 -13852224.09042  22039933.692    22039930.825
  20268359.416    -9606564.00743  -7448943.51842  20268359.113    20268355.350
  23735892.143   -10641052.37943  -8242164.00442  23735892.944    23735891.192
  24377577.352    27533023.54643  21457033.96642  24377576.891    24377577.946
  22839728.187    21594053.23443  16836676.93142  22839728.083    22839724.725
 04  5 20  2  1 30.0000000  0  7G 1G 4G16G20G13G11G25
  20994874.758   -22587587.16843 -17556396.81542  20994874.599    20994871.607
  24465623.423    -6304714.53643  -4877150.97742  24465623.741    24465622.200
  22028193.879   -17939852.57743 -13900296.35142  22028193.889    22028191.023
  20267547.133    -9610832.65343  -7452269.74142  20267546.825    20267543.052
  23720787.596   -10720426.96643  -8304014.23642  23720788.473    23720786.579
  24394477.673    27621834.32143  21526236.87242  24394477.178    24394478.269
  22855432.536    21676580.26043  16900983.67942  22855432.453    22855429.131
 04  5 20  2  2  0.0000000  0  7G 1G 4G16G20G13G11G25
  20988238.979   -22622458.31343 -17583569.13042  20988238.838    20988235.857
  24458083.151    -6344338.33043  -4908026.62442  24458083.655    24458082.027
  22016538.519   -18001101.78443 -13948022.95242  22016538.527    22016535.617
  20266840.025    -9614548.58943  -7455165.28142  20266839.717    20266835.935
  23705694.472   -10799741.61643  -8365817.74942  23705695.304    23705693.402
  24411376.108    27710634.78543  21595431.75442  24411375.562    24411376.697
  22871161.951    21759238.71543  16965392.82642  22871161.840    22871158.550
 04  5 20  2  2 30.0000000  0  7G 1G 4G16G20G13G11G25
  20981638.584   -22657143.76543 -17610596.74942  20981638.397    20981635.411
  24450638.423    -6383460.83443  -4938511.66342  24450638.921    24450637.199
  22004967.287   -18061908.85443 -13995405.02742  22004967.292    22004964.341
  20266237.474    -9617714.91843  -7457632.55642  20266237.187    20266233.404
  23690612.053   -10878999.85643  -8427577.33042  23690612.880    23690610.852
  24428271.255    27799418.38643  21664613.48342  24428270.727    24428271.993
  22886915.288    21842022.93443  17029899.98042  22886915.148    22886911.889
 04  5 20  2  3  0.0000000  0  7G 1G 4G16G20G13G11G25
  20975073.672   -22691642.57343 -17637478.93042  20975073.492    20975070.520
  24443289.385    -6422080.38643  -4968604.78442  24443289.899    24443288.075
  21993480.790   -18122270.65243 -14042440.14142  21993480.803    21993477.803
  20265739.768    -9620330.48143  -7459670.66542  20265739.465    20265735.700
  23675540.479   -10958201.01843  -8489292.42142  23675541.251    23675539.307
  24445162.751    27888183.07843  21733780.47042  24445162.264    24445163.673
  22902692.295    21924931.64043  17094504.13742  22902692.145    22902688.945
 04  5 20  2  3 30.0000000  0  7G 1G 4G16G20G13G11G25
  20968544.376   -22725954.14743 -17664215.21442  20968544.189    20968541.240
  24436036.208    -6460195.54843  -4998304.86642  24436036.755    24436034.998
  21982079.534   -18182184.48143 -14089126.18642  21982079.514    21982076.530
  20265347.075    -9622394.16743  -7461278.73842  20265346.782    20265342.993
  23660479.807   -11037344.60243  -8550962.65542  23660480.615    23660478.601
  24462050.226    27976926.28643  21802930.72342  24462049.793    24462051.225
  22918492.666    22007963.26943  17159204.07842  22918492.531    22918489.380
 04  5 20  2  4  0.0000000  0  7G 1G 4G16G20G13G11G25
  20962051.296   -22760075.37743 -17690803.18442  20962051.108    20962048.187
  24428879.816    -6497802.95543  -5027609.31142  24428880.272    24428878.572
  21970764.512   -18241645.22343 -14135459.18242  21970764.469    21970761.459
  20265060.067    -9623902.35543  -7462453.95842  20265059.793    20265055.993
  23645430.866   -11116427.21443  -8612585.36942  23645431.679    23645429.571
  24478933.606    28065647.97943  21872064.21742  24478933.091    24478934.773
  22934316.604    22091118.72343  17224000.49542  22934316.506    22934313.361
 04  5 20  2  4 30.0000000  0  7G 1G 4G16G20G13G11G25
  20955593.932   -22794009.16043 -17717245.09242  20955593.733    20955590.801
  24421819.631    -6534904.19243  -5056519.33742  24421820.053    24421818.387
  21959535.537   -18300653.68543 -14181439.75342  21959535.492    21959532.440
  20264878.310    -9624857.56143  -7463198.28442  20264878.019    20264874.228
  23630392.911   -11195451.84643  -8674162.89142  23630393.662    23630391.579
  24495811.794    28154342.36643  21941176.42142  24495811.173    24495813.064
  22950163.201    22174393.01243  17288889.51642  22950163.106    22950159.957
 04  5 20  2  5  0.0000000  0  7G 1G 4G16G20G13G11G25
  20949172.725   -22827752.85543 -17743538.87642  20949172.512    20949169.589
  24414856.298    -6571496.65043  -5085032.90842  24414856.755    24414854.950
  21948393.533   -18359205.11243 -14227064.19142  21948393.506    21948390.413
  20264802.338    -9625256.82543  -7463509.40442  20264802.028    20264798.265
  23615366.428   -11274416.18343  -8735693.45242  23615367.167    23615365.068
  24512684.815    28243009.44343  22010267.34542  24512684.240    24512686.108
  22966032.529    22257786.89643  17353871.72742  22966032.484    22966029.335
 04  5 20  2  5 30.0000000  0  7G 1G 4G16G20G13G11G25
  20942787.455   -22861307.63643 -17769685.45342  20942787.257    20942784.305
  24407989.677    -6607580.42843  -5113150.10642  24407990.261    24407988.422
  21937338.660   -18417298.80443 -14272331.95442  21937338.628    21937335.505
  20264831.992    -9625100.92243  -7463387.92642  20264831.702    20264827.944
  23600351.164   -11353321.33543  -8797177.88242  23600351.895    23600349.854
  24529551.726    28331644.63643  22079333.42042  24529551.043    24529553.175
  22981924.022    22341297.04143  17418944.53542  22981923.966    22981920.807
 04  5 20  2  6  0.0000000  0  7G 1G 4G16G20G13G11G25
  20936437.981   -22894674.18243 -17795685.35442  20936437.799    20936434.868
  24401219.888    -6643155.94343  -5140871.27042  24401220.419    24401218.638
  21926371.179   -18474933.11643 -14317241.77142  21926371.150    21926367.981
  20264967.249    -9624390.24843  -7462834.16442  20264966.942    20264963.184
  23585347.168   -11432167.78243  -8858616.56342  23585347.854    23585345.744
  24546411.969    28420244.54843  22148371.99442  24546411.298    24546413.386
  22997837.100    22424920.71543  17484105.80442  22997837.056    22997833.896
 04  5 20  2  6 30.0000000  0  7G 1G 4G16G20G13G11G25
  20930125.173   -22927848.14543 -17821535.19142  20930125.001    20930122.053
  24394547.825    -6678218.17043  -5168192.45242  24394548.184    24394546.458
  21915492.285   -18532101.89243 -14361788.81942  21915492.245    21915489.061
  20265208.982    -9623120.01643  -7461844.38642  20265208.667    20265204.917
  23570355.040   -11510951.50943  -8920006.40942  23570355.781    23570353.602
  24563265.785    28508810.44643  22217384.06742  24563265.151    24563267.147
  23013772.278    22508660.18643  17549357.29142  23013772.179    23013769.011
 04  5 20  2  7  0.0000000  0  7G 1G 4G16G20G13G11G25
  20923848.213   -22960833.70343 -17847238.21642  20923848.064    20923845.092
  24387972.579    -6712771.06443  -5195116.76242  24387973.029    24387971.247
  21904701.453   -18588807.74243 -14405975.14042  21904701.455    21904698.245
  20265556.384    -9621294.56043  -7460421.96642  20265556.060    20265552.305
  23555374.043   -11589676.90743  -8981350.78442  23555374.760    23555372.643
  24580111.769    28597335.07943  22286364.00142  24580110.996    24580113.144
  23029728.167    22592508.74743  17614693.81142  23029728.091    23029724.906
 04  5 20  2  7 30.0000000  0  7G 1G 4G16G20G13G11G25
  20917607.493   -22993628.93543 -17872792.93542  20917607.344    20917604.369
  24381494.697    -6746811.95743  -5221642.12042  24381495.188    24381493.542
  21893999.593   -18645046.36443 -14449797.39542  21893999.540    21893996.337
  20266009.896    -9618911.41143  -7458564.98142  20266009.574    20266005.825
  23540404.547   -11668341.88543  -9042648.10242  23540405.330    23540403.053
  24596949.601    28685817.30243  22355310.86542  24596948.777    24596950.968
  23045704.791    22676466.25243  17680115.21842  23045704.726    23045701.522
 04  5 20  2  8  0.0000000  0  7G 1G 4G16G20G13G11G25
  20911403.576   -23026230.60943 -17898196.82942  20911403.444    20911400.461
  24375114.774    -6780337.64143  -5247766.00942  24375115.330    24375113.791
  21883387.569   -18700812.64743 -14493251.59542  21883387.538    21883384.325
  20266570.131    -9615967.42443  -7456270.97842  20266569.808    20266566.057
  23525447.171   -11746943.10043  -9103895.70942  23525447.919    23525445.709
  24613779.477    28774257.26343  22424224.81442  24613778.749    24613780.910
  23061702.447    22760534.27343  17745622.73442  23061702.354    23061699.156
 04  5 20  2  8 30.0000000  0  7G 1G 4G16G20G13G11G25
  20905236.215   -23058640.36843 -17923451.17742  20905236.076    20905233.066
  24368833.160    -6813348.72143  -5273488.93642  24368833.571    24368832.082
  21872865.442   -18756106.56743 -14536337.71742  21872865.420    21872862.193
  20267236.851    -9612463.75743  -7453540.86142  20267236.539    20267232.799
  23510501.530   -11825482.40243  -9165095.04142  23510502.279    23510500.087
  24630600.401    28862650.53143  22493102.35442  24630599.724    24630601.916
  23077720.340    22844708.75943  17811213.21242  23077720.262    23077717.001
 04  5 20  2  9  0.0000000  0  7G 1G 4G16G20G13G11G25
  20899105.175   -23090859.15143 -17948556.71542  20899105.020    20899102.010
  24362649.171    -6845845.81443  -5298811.34242  24362649.471    24362648.019
  21862433.390   -18810927.12043 -14579054.99842  21862433.359    21862430.161
  20268009.915    -9608401.24543  -7450375.27842  20268009.601    20268005.877
  23495567.510   -11903960.84543  -9226246.98042  23495568.254    23495566.046
  24647411.679    28950993.09443  22561940.40142  24647411.117    24647413.289
  23093757.948    22928986.78843  17876884.38042  23093757.891    23093754.573
 04  5 20  2  9 30.0000000  0  7G 1G 4G16G20G13G11G25
  20893010.680   -23122885.92043 -17973512.62942  20893010.534    20893007.520
  24356563.327    -6877827.77643  -5323732.36042  24356563.614    24356561.954
  21852092.016   -18865271.29543 -14621401.06442  21852091.982    21852088.768
  20268889.522    -9603778.84643  -7446773.42142  20268889.215    20268885.495
  23480645.224   -11982377.30043  -9287350.61342  23480646.018    23480643.874
  24664212.941    29039282.95143  22630737.36742  24664212.302    24664214.799
  23109815.010    23013367.09043  17942635.23042  23109814.942    23109811.666
 04  5 20  2 10  0.0000000  0  7G 1G 4G16G20G13G11G25
  20886953.663   -23154715.69143 -17998315.04042  20886953.504    20886950.485
  24350576.402    -6909289.25743  -5348247.80642  24350576.724    24350574.926
  21841842.573   -18919132.51343 -14663370.79842  21841842.499    21841839.302
  20269876.665    -9598591.44843  -7442731.31142  20269876.356    20269872.628
  23465735.680   -12060726.85243  -9348402.11642  23465736.505    23465734.307
  24681004.530    29127522.11543  22699494.83442  24681003.896    24681006.459
  23125892.100    23097852.55643  18008468.04442  23125892.005    23125888.721
 04  5 20  2 10 30.0000000  0  7G 1G 4G16G20G13G11G25
  20880932.519   -23186356.98043 -18022970.57742  20880932.362    20880929.340
  24344686.858    -6940238.38243  -5372364.02042  24344687.259    24344685.524
  21831683.811   -18972517.17343 -14704969.19142  21831683.714    21831680.507
  20270969.722    -9592847.55843  -7438255.56442  20270969.412    20270965.669
  23450837.364   -12139018.11443  -9409408.22542  23450838.106    23450835.817
  24697784.244    29215698.87543  22768203.67742  24697783.846    24697786.293
  23141987.244    23182433.05143  18074374.89842  23141987.143    23141983.858
 04  5 20  2 11  0.0000000  0  7G 1G 4G16G20G13G11G25
  20874949.144   -23217799.93643 -18047471.57442  20874948.963    20874945.933
  24338897.047    -6970664.87243  -5396072.97942  24338897.322    24338895.643
  21821617.897   -19025413.70243 -14746187.21942  21821617.831    21821614.580
  20272170.592    -9586537.07743  -7433338.32342  20272170.270    20272166.529
  23435951.925   -12217241.31243  -9470361.27042  23435952.641    23435950.388
  24714553.452    29303820.41343  22836869.48142  24714552.836    24714555.662
  23158101.877    23267116.00243  18140361.59042  23158101.773    23158098.521
 04  5 20  2 11 30.0000000  0  7G 1G 4G16G20G13G11G25
  20869002.230   -23249051.14743 -18071823.15642  20869002.045    20868999.015
  24333205.227    -7000575.11043  -5419379.67642  24333205.587    24333203.985
  21811643.973   -19077826.93543 -14787028.65142  21811643.869    21811640.615
  20273478.082    -9579666.40143  -7427984.56342  20273477.732    20273473.973
  23421078.198   -12295403.04443  -9531266.46042  23421078.938    23421076.575
  24731310.385    29391877.59943  22905485.15842  24731309.702    24731312.845
  23174234.426    23351893.08043  18206421.63142  23174234.277    23174231.075
 04  5 20  2 12  0.0000000  0  6G 1G 4G16G20G13G25
  20863096.219   -23280087.41143 -18096007.24942  20863096.030    20863092.999
  24327616.194    -7029945.69143  -5442265.86142  24327616.502    24327614.970
  21801766.721   -19129732.04643 -14827474.14042  21801766.619    21801763.367
  20274896.461    -9572212.81343  -7422176.58642  20274896.118    20274892.369
  23406220.489   -12373480.32743  -9592105.81242  23406221.225    23406218.941
  23190388.856    23436785.20143  18272571.31342  23190388.703    23190385.535
 04  5 20  2 12 30.0000000  0  6G 1G 4G16G20G13G25
  20857223.542   -23310948.55343 -18120054.87842  20857223.349    20857220.317
  24322122.274    -7058816.25843  -5464762.42242  24322122.632    24322121.114
  21791978.903   -19181167.03543 -14867553.30642  21791978.844    21791975.579
  20276418.252    -9564215.85843  -7415945.20542  20276417.917    20276414.132
  23391371.335   -12451512.66043  -9652910.16942  23391372.093    23391369.782
  23206557.213    23521750.45343  18338777.97842  23206557.081    23206553.945
 04  5 20  2 13  0.0000000  0  6G 1G 4G16G20G13G25
  20851388.440   -23341612.22843 -18143948.64142  20851388.253    20851385.214
  24316727.890    -7087164.28743  -5486851.81542  24316728.239    24316726.676
  21782285.110   -19232108.07143 -14907247.57042  21782285.044    21782281.766
  20278047.633    -9555653.27843  -7409273.07542  20278047.314    20278043.542
  23376534.953   -12529478.02343  -9713662.33742  23376535.658    23376533.364
  23222743.323    23606808.88343  18405057.26442  23222743.183    23222740.090
 04  5 20  2 13 30.0000000  0  6G 1G 4G16G20G13G25
  20845590.572   -23372080.20243 -18167689.91542  20845590.373    20845587.335
  24311432.625    -7114991.53543  -5508535.39042  24311432.876    24311431.287
  21772685.344   -19282555.16943 -14946556.96142  21772685.228    21772681.958
  20279784.262    -9546527.14343  -7402161.81842  20279783.976    20279780.198
  23361710.976   -12607378.12843  -9774363.63542  23361711.733    23361709.398
  23238946.438    23691956.66843  18471406.14742  23238946.307    23238943.228
 04  5 20  2 14  0.0000000  0  6G 1G 4G16G20G13G25
  20839830.152   -23402351.33043 -18191277.79942  20839829.957    20839826.909
  24306236.597    -7142296.46843  -5529811.96442  24306237.069    24306235.278
  21763180.115   -19332505.35643 -14985479.13842  21763179.999    21763176.700
  20281628.389    -9536836.17543  -7394610.42742  20281628.091    20281624.357
  23346899.573   -12685212.05543  -9835013.36842  23346900.291    23346898.008
  23255166.469    23777193.19943  18537824.20942  23255166.339    23255163.235
 04  5 20  2 14 30.0000000  0  6G 1G 4G16G20G13G25
  20834107.477   -23432424.00943 -18214711.04642  20834107.291    20834104.266
  24301140.347    -7169077.11543  -5550679.99142  24301140.830    24301139.202
  21753770.061   -19381955.44943 -15024011.63742  21753769.932    21753766.578
  20283580.279    -9526578.91043  -7386617.76842  20283579.974    20283576.250
  23332101.159   -12762978.13543  -9895610.25242  23332101.842    23332099.444
  23271403.245    23862517.76843  18604310.86442  23271403.103    23271400.006
 04  5 20  2 15  0.0000000  0  6G 1G 4G16G20G13G25
  20828422.335   -23462299.56143 -18237990.68442  20828422.152    20828419.153
  24296143.574    -7195335.14543  -5571140.80542  24296144.021    24296142.504
  21744455.218   -19430905.20043 -15062154.25342  21744455.072    21744451.691
  20285639.680    -9515756.71143  -7378184.89942  20285639.357    20285635.661
  23317315.366   -12840677.53343  -9956155.17742  23317316.006    23317313.717
  23287656.140    23947927.33243  18670863.74742  23287656.027    23287652.914
 04  5 20  2 15 30.0000000  0  6G 1G 4G16G20G13G25
  20822774.846   -23491977.18943 -18261116.09642  20822774.679    20822771.677
  24291246.404    -7221069.39443  -5591193.45342  24291246.872    24291245.488
  21735236.025   -19479352.13143 -15099905.06042  21735235.890    21735232.493
  20287806.666    -9504369.22043  -7369311.54442  20287806.336    20287802.652
  23302542.458   -12918309.54943 -10016647.58742  23302543.087    23302540.742
  23303924.959    24033420.48043  18737481.76442  23303924.859    23303921.735
 04  5 20  2 16  0.0000000  0  6G 1G 4G16G20G13G25
  20817164.687   -23521458.72044 -18284088.70842  20817164.521    20817161.503
  24286448.524    -7246281.71443  -5610839.41442  24286448.975    24286447.690
  21726112.438   -19527296.63843 -15137264.37542  21726112.313    21726108.911
  20290080.895    -9492418.21843  -7359999.08942  20290080.551    20290076.847
  23287781.956   -12995876.20243 -10077089.07042  23287782.582    23287780.179
  23320208.941    24118993.37743  18804161.92342  23320208.838    23320205.698
 04  5 20  2 16 30.0000000  0  6G 1G 4G16G20G13G25
  20811593.168   -23550737.17343 -18306903.07442  20811592.999    20811589.987
  24281751.592    -7270965.28843  -5630073.35242  24281751.981    24281750.672
  21717086.094   -19574730.21743 -15174225.56042  21717085.977    21717082.562
  20292463.547    -9479897.22443  -7350242.48542  20292463.245    20292459.528
  23273035.221   -13073370.59143 -10137474.24642  23273035.883    23273033.393
  23336509.047    24204650.73443  18870907.90442  23336508.929    23336505.769
 04  5 20  2 17  0.0000000  0  6G 1G 4G16G20G13G25
  20806059.171   -23579818.51843 -18329563.84542  20806058.990    20806055.974
  24277153.901    -7295126.15343  -5648899.99442  24277154.406    24277152.967
  21708156.108   -19621657.45543 -15210792.19242  21708155.975    21708152.569
  20294953.527    -9466812.29843  -7340046.45242  20294953.210    20294949.508
  23258301.112   -13150798.59843 -10197807.68142  23258301.746    23258299.249
  23352823.687    24290384.57243  18937713.46042  23352823.583    23352820.369
 04  5 20  2 17 30.0000000  0  6G 1G 4G16G20G13G25
  20800563.394   -23608698.96043 -18352068.07142  20800563.228    20800560.193
  24272656.477    -7318760.57543  -5667316.40342  24272656.994    24272655.477
  21699323.506   -19668072.82443 -15246959.96142  21699323.378    21699319.965
  20297551.426    -9453160.31743  -7329408.56342  20297551.119    20297547.401
  23243580.339   -13228156.81543 -10258086.73842  23243580.972    23243578.400
  23369153.263    24376197.00343  19004580.26242  23369153.181    23369149.975
 04  5 20  2 18  0.0000000  0  6G 1G 4G16G20G13G25
  20795106.010   -23637377.73943 -18374415.15642  20795105.834    20795102.799
  24268259.260    -7341867.51943  -5685321.80742  24268259.832    24268258.313
  21690588.754   -19713974.10843 -15282727.14842  21690588.630    21690585.195
  20300257.375    -9438940.48043  -7318328.19242  20300257.063    20300253.336
  23228873.013   -13305444.24343 -10318310.65042  23228873.659    23228871.031
  23385497.523    24462086.56543  19071507.17042  23385497.445    23385494.255
 04  5 20  2 18 30.0000000  0  6G 1G 4G16G20G13G25
  20789686.932   -23665855.10843 -18396605.29842  20789686.763    20789683.728
  24263962.477    -7364447.71443  -5702916.76242  24263963.000    24263961.456
  21681952.015   -19759360.33943 -15318092.99742  21681951.885    21681948.434
  20303071.239    -9424153.56643  -7306805.94442  20303070.931    20303067.224
  23214179.128   -13382660.83543 -10378479.32942  23214179.821    23214177.211
  23401855.964    24548050.80443  19138492.27242  23401855.868    23401852.735
 04  5 20  2 19  0.0000000  0  6G 1G 4G16G20G13G25
  20784305.927   -23694132.27844 -18418639.43442  20784305.787    20784302.747
  24259765.648    -7386502.54343  -5720102.31742  24259766.095    24259764.468
  21673413.346   -19804231.29543 -15353057.33842  21673413.200    21673409.724
  20305992.770    -9408801.03843  -7294842.95442  20305992.425    20305988.718
  23199498.319   -13459808.46743 -10438594.27542  23199499.069    23199496.381
  23418228.012    24634086.50443  19205533.05442  23418227.934    23418224.824
 04  5 20  2 19 30.0000000  0  6G 1G 4G16G20G13G25
  20778963.547   -23722206.72044 -18440515.60342  20778963.381    20778960.338
  24255669.145    -7408029.46543  -5736876.52842  24255669.564    24255667.965
  21664973.428   -19848583.00843 -15387617.06742  21664973.302    21664969.831
  20309022.300    -9392880.82643  -7282437.60842  20309021.962    20309018.256
  23184831.152   -13536884.63243 -10498653.54942  23184831.908    23184829.208
  23434613.709    24720194.13143  19272629.88742  23434613.694    23434610.582
 04  5 20  2 20  0.0000000  0  6G 1G 4G16G20G13G25
  20773659.877   -23750077.67943 -18462233.21242  20773659.710    20773656.665
  24251673.136    -7429027.81343  -5753238.87242  24251673.623    24251672.235
  21656632.769   -19892413.32243 -15421770.50842  21656632.635    21656629.161
  20312159.953    -9376392.44443  -7269589.52942  20312159.603    20312155.932
  23170177.761   -13613888.37543 -10558656.37942  23170178.473    23170175.790
  23451012.911    24806372.30943  19339781.68342  23451012.859    23451009.799
 04  5 20  2 20 30.0000000  0  6G 1G 4G16G20G13G25
  20768395.161   -23777743.91044 -18483791.29742  20768394.993    20768391.933
  24247778.012    -7449496.82843  -5769188.74842  24247778.498    24247777.116
  21648391.796   -19935719.69743 -15455515.68442  21648391.665    21648388.206
  20315405.827    -9359335.35743  -7256298.31142  20315405.477    20315401.809
  23155538.370   -13690818.38243 -10618601.74942  23155539.109    23155536.425
  23467425.353    24892620.33943  19406987.91642  23467425.289    23467422.268
 04  5 20  2 21  0.0000000  0  6G 1G 4G16G20G13G25
  20763168.853   -23805208.36944 -18505192.15642  20763168.669    20763165.589
  24243983.049    -7469439.51143  -5784728.48642  24243983.553    24243982.202
  21640250.235   -19978503.67643 -15488853.79942  21640250.106    21640246.641
  20318759.290    -9341712.92343  -7242566.56242  20318758.917    20318755.260
  23140912.461   -13767677.75543 -10678492.08642  23140913.220    23140910.485
  23483850.124    24978933.15943  19474244.63442  23483850.029    23483847.077
 04  5 20  2 21 30.0000000  0  6G 1G 4G16G20G13G25
  20757981.909   -23832465.78644 -18526431.68642  20757981.743    20757978.656
  24240289.164    -7488850.88343  -5799854.23142  24240289.678    24240288.367
  21632209.295   -20020758.81743 -15521779.83542  21632209.158    21632205.677
  20322221.241    -9323520.28843  -7228390.50242  20322220.888    20322217.232
  23126300.929   -13844461.52343 -10738323.51542  23126301.666    23126298.918
  23500287.902    25065314.33843  19541554.59642  23500287.788    23500284.908
 04  5 20  2 22  0.0000000  0  6G 1G 4G16G20G13G25
  20752833.469   -23859521.13343 -18547513.75742  20752833.272    20752830.184
  24236695.250    -7507736.16143  -5814570.02542  24236695.769    24236694.593
  21624268.350   -20062488.58843 -15554296.49042  21624268.232    21624264.714
  20325790.649    -9304762.97343  -7213774.42942  20325790.273    20325786.642
  23111702.936   -13921174.23943 -10798099.57342  23111703.638    23111700.906
  23516737.356    25151756.94543  19608912.44942  23516737.262    23516734.380
 04  5 20  2 22 30.0000000  0  6G 1G 4G16G20G13G25
  20747723.927   -23886371.96443 -18568436.46842  20747723.728    20747720.601
  24233202.000    -7526093.07343  -5828874.11142  24233202.543    24233201.490
  21616428.030   -20103689.57043 -15586401.10542  21616427.893    21616424.392
  20329467.900    -9285438.96543  -7198716.77142  20329467.537    20329463.910
  23097118.828   -13997813.74543 -10857818.58042  23097119.558    23097116.849
  23533198.571    25238261.07443  19676318.22342  23533198.423    23533195.595
 04  5 20  2 23  0.0000000  0  6G 1G 4G16G20G13G25
  20742654.177   -23913013.56143 -18589196.14042  20742653.982    20742650.859
  24229809.973    -7543917.44743  -5842763.22142  24229810.666    24229809.587
  21608689.469   -20144355.84843 -15618089.07442  21608689.309    21608685.799
  20333253.746    -9265544.35643  -7183214.49542  20333253.352    20333249.742
  23082549.597   -14074375.35943 -10917476.90242  23082550.314    23082547.565
  23549671.996    25324829.31143  19743773.95742  23549671.797    23549668.967
 04  5 20  2 23 30.0000000  0  6G 1G 4G16G20G13G25
  20737623.391   -23939450.43244 -18609796.28542  20737623.197    20737620.080
  24226518.799    -7561214.16643  -5856241.19342  24226519.177    24226518.111
  21601052.041   -20184490.57043 -15649362.84342  21601051.884    21601048.355
  20337147.154    -9245084.24143  -7167271.56642  20337146.800    20337143.191
  23067994.351   -14150863.37243 -10977077.87242  23067995.062    23067992.307
  23566156.419    25411455.62643  19811274.94642  23566156.214    23566153.380
 04  5 20  2 24  0.0000000  0  6G 1G 4G16G20G13G25
  20732631.995   -23965680.44144 -18630235.23942  20732631.788    20732628.645
  24223327.781    -7577981.47043  -5869306.63042  24223328.385    24223327.322
  21593516.387   -20224090.49943 -15680219.88242  21593516.228    21593512.695
  20341148.499    -9224056.96543  -7150886.68642  20341148.156    20341144.563
  23053453.450   -14227276.02543 -11036620.14042  23053454.118    23053451.335
  23582651.942    25498140.11343  19878821.27642  23582651.720    23582648.908
 04  5 20  2 24 30.0000000  0  6G 1G 4G16G20G13G25
  20727680.514   -23991700.56144 -18650510.64342  20727680.302    20727677.173
  24220238.450    -7594216.69843  -5881957.46742  24220238.863    24220237.895
  21586083.287   -20263151.40143 -15710656.90542  21586083.128    21586079.629
  20345258.171    -9202460.56743  -7134058.33742  20345257.833    20345254.220
  23038927.473   -14303610.06843 -11096101.12742  23038928.139    23038925.345
  23599158.750    25584883.81843  19946413.74242  23599158.527    23599155.738
 04  5 20  2 25  0.0000000  0  6G 1G 4G16G20G13G25
  20722767.925   -24017516.26043 -18670626.76142  20722767.712    20722764.580
  24217249.152    -7609925.86443  -5894198.38942  24217249.554    24217248.550
  21578751.922   -20301677.78643 -15740677.42442  21578751.754    21578748.243
  20349475.043    -9180300.87343  -7116791.06442  20349474.701    20349471.090
  23024415.438   -14379871.05643 -11155525.20142  23024416.060    23024413.314
  23615675.353    25671678.95743  20014046.29642  23615675.117    23615672.329
 04  5 20  2 25 30.0000000  0  7G 1G 4G16G20G27G13G25
  20717895.192   -24043122.48543 -18690579.65642  20717894.983    20717891.882
  24214360.698    -7625104.44943  -5906025.88242  24214361.125    24214360.103
  21571523.399   -20339663.65243 -15770276.75842  21571523.233    21571519.700
  20353799.915    -9157573.62543  -7099081.54342  20353799.563    20353795.946
  24843538.517    -1845437.02353  -1391638.72352  24843539.116    24843541.960
  23009918.249   -14456054.09943 -11214888.53942  23009918.922    23009916.107
  23632202.276    25758528.45843  20081721.20542  23632202.086    23632199.269
 04  5 20  2 26  0.0000000  0  7G 1G 4G16G20G27G13G25
  20713060.584   -24068528.49343 -18710376.53742  20713060.352    20713057.263
  24211571.603    -7639761.95543  -5917447.33142  24211572.101    24211570.910
  21564396.202   -20377117.17043 -15799461.27842  21564396.027    21564392.476
  20358230.876    -9134288.82143  -7080937.55942  20358230.538    20358226.904
  24827377.596    -1930362.29343  -1457813.96642  24827378.124    24827381.041
  22995434.068   -14532168.73943 -11274198.57342  22995434.704    22995431.865
  23648737.522    25845421.47643  20149430.01542  23648737.323    23648734.492
 04  5 20  2 26 30.0000000  0  7G 1G 4G16G20G27G13G25
  20708267.610   -24093715.73743 -18730002.95442  20708267.384    20708264.272
  24208885.059    -7653880.70143  -5928448.96842  24208885.443    24208884.233
  21557374.072   -20414018.49443 -15828215.51842  21557373.905    21557370.358
  20362771.310    -9110428.75743  -7062345.32142  20362770.972    20362767.331
  24811243.639    -2015145.92543  -1523878.88642  24811244.008    24811246.885
  22980966.469   -14608196.09543 -11333440.59442  22980967.117    22980964.286
  23665284.177    25932374.43643  20217185.55942  23665284.033    23665281.104
 04  5 20  2 27  0.0000000  0  7G 1G 4G16G20G27G13G25
  20703515.324   -24118689.10044 -18749462.71542  20703515.098    20703511.983
  24206299.864    -7667465.89343  -5939034.86142  24206300.266    24206299.138
  21550456.288   -20450371.43343 -15856542.44342  21550456.143    21550452.585
  20367420.180    -9085998.85843  -7043309.05442  20367419.844    20367416.212
  24795135.750    -2099792.39143  -1589836.92242  24795136.186    24795139.070
  22966514.596   -14684140.90043 -11392618.30742  22966515.251    22966512.369
  23681840.980    26019380.78143  20284982.68242  23681840.846    23681837.903
 04  5 20  2 27 30.0000000  0  7G 1G 4G16G20G27G13G25
  20698802.777   -24143453.63244 -18768759.74642  20698802.548    20698799.461
  24203815.291    -7680523.18943  -5949209.40542  24203815.592    24203814.381
  21543642.039   -20486180.29243 -15884445.41142  21543641.888    21543638.330
  20372176.267    -9061005.40043  -7023833.65142  20372175.934    20372172.326
  24779053.072    -2184307.08943  -1655692.27242  24779053.502    24779056.246
  22952077.407   -14760008.43443 -11451735.78242  22952078.107    22952075.220
  23698406.506    26106433.10743  20352815.63642  23698406.361    23698403.454
 04  5 20  2 28  0.0000000  0  7G 1G 4G16G20G27G13G25
  20694130.867   -24168004.66943 -18787890.42042  20694130.631    20694127.535
  24201431.839    -7693048.76243  -5958969.61042  24201432.120    24201430.925
  21536932.411   -20521439.51943 -15911920.09742  21536932.247    21536928.675
  20377040.356    -9035444.42143  -7003916.02742  20377040.043    20377036.415
  24762996.324    -2268684.91743  -1721440.97342  24762996.902    24762999.412
  22937655.857   -14835794.11343 -11510789.50342  22937656.565    22937653.625
  23714981.285    26193534.05043  20420686.48242  23714981.148    23714978.238
 04  5 20  2 28 30.0000000  0  7G 1G 4G16G20G27G13G25
  20689499.573   -24192342.33343 -18806854.82742  20689499.338    20689496.246
  24199149.367    -7705043.28843  -5968316.02542  24199149.643    24199148.476
  21530327.516   -20556148.35143 -15938965.90242  21530327.328    21530323.775
  20382012.243    -9009316.98443  -6983557.00142  20382011.926    20382008.328
  24746965.492    -2352926.15243  -1787083.25942  24746966.095    24746968.637
  22923249.836   -14911498.12443 -11569779.58442  22923250.532    22923247.557
  23731564.947    26280681.51943  20488593.58142  23731564.777    23731561.843
 04  5 20  2 29  0.0000000  0  7G 1G 4G16G20G27G13G25
  20684908.391   -24216469.12744 -18825654.92342  20684908.172    20684905.045
  24196967.229    -7716509.78943  -5977250.97942  24196967.607    24196966.408
  21523827.074   -20590308.27243 -15965583.99042  21523826.874    21523823.309
  20387091.292    -8982626.53643  -6962759.27242  20387090.972    20387087.364
  24730960.354    -2437033.20743  -1852621.00642  24730960.800    24730963.397
  22908858.857   -14987122.84343 -11628707.85942  22908859.559    22908856.591
  23748156.651    26367871.07243  20556533.47942  23748156.464    23748153.451
 04  5 20  2 29 30.0000000  0  7G 1G 4G16G20G27G13G25
  20680358.474   -24240378.99644 -18844285.98142  20680358.271    20680355.147
  24194886.792    -7727442.99943  -5985770.38842  24194887.084    24194885.897
  21517432.419   -20623912.23743 -15991768.86942  21517432.247    21517428.679
  20392278.482    -8955367.74743  -6941518.68042  20392278.155    20392274.563
  24714981.907    -2520999.76943  -1918049.27242  24714982.240    24714984.871
  22894484.098   -15062662.30243 -11687569.70742  22894484.828    22894481.832
  23764757.183    26455107.05543  20624509.55642  23764756.969    23764753.965
 04  5 20  2 30  0.0000000  0  7G 1G 4G16G20G27G13G25
  20675849.132   -24264075.72344 -18862750.95842  20675848.920    20675845.799
  24192906.863    -7737847.33743  -5993877.70242  24192907.122    24192905.940
  21511143.017   -20656963.19743 -16017522.82742  21511142.841    21511139.266
  20397572.910    -8927545.45943  -6919838.99742  20397572.571    20397568.988
  24699029.559    -2604829.38143  -1983370.83742  24699029.755    24699032.408
  22880124.917   -15138120.14143 -11746367.95242  22880125.619    22880122.599
  23781365.413    26542383.66543  20692517.29042  23781365.217    23781362.165
 04  5 20  2 30 30.0000000  0  7G 1G 4G16G20G27G13G25
  20671380.584   -24287558.13943 -18881048.94042  20671380.358    20671377.259
  24191027.723    -7747722.45043  -6001572.61342  24191027.999    24191026.802
  21504959.195   -20689459.27843 -16042844.41842  21504959.043    21504955.449
  20402974.621    -8899159.33343  -6897719.95742  20402974.275    20402970.709
  24683103.350    -2688520.98043  -2048584.86142  24683103.603    24683106.164
  22865781.433   -15213495.31943 -11805101.78242  22865782.075    22865779.092
  23797981.224    26629700.24543  20760556.18342  23797981.049    23797978.006
 04  5 20  2 31  0.0000000  0  7G 1G 4G16G20G27G13G25
  20666953.004   -24310825.13944 -18899179.06342  20666952.771    20666949.684
  24189249.508    -7757067.79243  -6008854.72342  24189249.761    24189248.457
  21498881.344   -20721398.50043 -16067732.09642  21498881.217    21498877.563
  20408483.616    -8870209.43843  -6875161.62342  20408483.250    20408479.690
  24667203.631    -2772073.52443  -2113690.54742  24667203.915    24667206.490
  22851453.847   -15288786.82143 -11863770.41242  22851454.507    22851451.526
  23814604.373    26717055.59743  20828625.26042  23814604.177    23814601.139
 04  5 20  2 31 30.0000000  0  7G 1G 4G16G20G27G13G25
  20662566.518   -24333876.22043 -18917140.93842  20662566.289    20662563.195
  24187571.838    -7765884.01343  -6015724.52442  24187572.066    24187570.765
  21492909.694   -20752779.59243 -16092184.86442  21492909.563    21492905.913
  20414099.792    -8840696.34243  -6852164.43142  20414099.418    20414095.881
  24651330.535    -2855486.25743  -2178687.27642  24651330.747    24651333.422
  22837142.290   -15363994.07643 -11922373.38142  22837142.960    22837140.001
  23831234.628    26804448.39843  20896723.53642  23831234.469    23831231.414
 04  5 20  2 32  0.0000000  0  7G 1G 4G16G20G27G13G25
  20658221.572   -24356709.07144 -18934932.76642  20658221.330    20658218.239
  24185995.221    -7774169.60343  -6022180.84442  24185995.450    24185994.081
  21487044.775   -20783599.81443 -16116200.59342  21487044.635    21487040.976
  20419823.368    -8810618.84743  -6828727.44842  20419822.986    20419819.476
  24635484.490    -2938757.12743  -2243573.45842  24635484.733    24635487.393
  22822847.239   -15439114.74643 -11980908.89342  22822847.938    22822844.925
  23847872.144    26891879.19843  20964851.41342  23847871.992    23847869.002
 04  5 20  2 32 30.0000000  0  7G 1G 4G16G20G27G13G25
  20653917.789   -24379325.77044 -18952556.16042  20653917.533    20653914.421
  24184518.847    -7781927.49943  -6028225.96142  24184519.158    24184517.745
  21481286.375   -20813860.34043 -16139780.18942  21481286.218    21481282.557
  20425653.734    -8779980.15343  -6804853.16342  20425653.332    20425649.842
  24619665.086    -3021888.00743  -2308350.55542  24619665.169    24619667.847
  22808568.303   -15514150.90843 -12039378.56342  22808568.987    22808565.949
  23864516.168    26979343.97343  21033005.77042  23864515.966    23864513.059
 04  5 20  2 33  0.0000000  0  7G 1G 4G16G20G27G13G25
  20649655.418   -24401724.62444 -18970009.80942  20649655.191    20649652.068
  24183143.217    -7789156.77843  -6033859.19442  24183143.513    24183142.104
  21475634.897   -20843558.88443 -16162921.88542  21475634.752    21475631.086
  20431590.999    -8748779.69943  -6780541.14642  20431590.609    20431587.103
  24603872.572    -3104877.43643  -2373017.45942  24603872.570    24603875.199
  22794305.716   -15589101.08443 -12097781.21742  22794306.376    22794303.377
  23881166.566    27066842.20443  21101186.18842  23881166.319    23881163.461
 04  5 20  2 33 30.0000000  0  7G 1G 4G16G20G27G13G25
  20645434.898   -24423903.65844 -18987292.15842  20645434.656    20645431.524
  24181868.425    -7795856.44843  -6039079.72642  24181868.720    24181867.246
  21470090.906   -20872692.70343 -16185623.53042  21470090.756    21470087.085
  20437635.262    -8717016.85143  -6755790.89342  20437634.887    20437631.396
  24588107.330    -3187723.44143  -2437572.60642  24588107.282    24588109.907
  22780059.845   -15663963.25743 -12156115.29742  22780060.508    22780057.483
  23897823.264    27154373.95543  21169392.75942  23897823.025    23897820.267
 04  5 20  2 34  0.0000000  0  7G 1G 4G16G20G27G13G25
  20641256.031   -24445863.71544 -19004403.88442  20641255.800    20641252.647
  24180694.025    -7802028.41743  -6043889.06242  24180694.198    24180692.668
  21464654.290   -20901262.22443 -16207885.46342  21464654.143    21464650.471
  20443786.208    -8684693.53943  -6730603.91642  20443785.835    20443782.349
  24572369.219    -3270426.82843  -2502016.61942  24572369.286    24572371.775
  22765830.583   -15738738.23743 -12214381.43742  22765831.237    22765828.148
  23914485.895    27241936.58043  21237623.34442  23914485.620    23914482.849
 04  5 20  2 34 30.0000000  0  7G 1G 4G16G20G27G13G25
  20637119.273   -24467602.47544 -19021343.16942  20637119.045    20637115.887
  24179620.127    -7807671.33743  -6048286.15742  24179620.402    24179618.910
  21459325.615   -20929264.62243 -16229705.47942  21459325.435    21459321.774
  20450044.016    -8651808.51243  -6704979.24542  20450043.651    20450040.173
  24556658.719    -3352985.32643  -2566347.73742  24556658.773    24556661.220
  22751618.340   -15813423.72143 -12272577.84442  22751619.000    22751615.908
  23931154.408    27329530.37343  21305878.22842  23931154.182    23931151.434
 04  5 20  2 35  0.0000000  0  7G 1G 4G16G20G27G13G25
  20633024.363   -24489121.27944 -19038111.06142  20633024.138    20633021.003
  24178646.564    -7812787.39743  -6052272.70842  24178646.857    24178645.355
  21454104.726   -20956700.46243 -16251084.02542  21454104.558    21454100.881
  20456408.203    -8618364.48343  -6678918.98542  20456407.845    20456404.372
  24540975.502    -3435400.28843  -2630567.01542  24540975.573    24540978.056
  22737422.909   -15888021.17043 -12330705.66042  22737423.528    22737420.438
  23947828.236    27417152.10843  21374154.89142  23947828.038    23947825.287
 04  5 20  2 35 30.0000000  0  7G 1G 4G16G20G27G13G25
  20628971.589   -24510418.79243 -19054706.51642  20628971.345    20628968.199
  24177773.286    -7817376.37543  -6055848.54742  24177773.701    24177772.108
  21448992.067   -20983567.65743 -16272019.47542  21448991.868    21448988.202
  20462878.812    -8584361.33343  -6652423.05342  20462878.433    20462874.975
  24525319.847    -3517670.28943  -2694673.32042  24525319.937    24525322.403
  22723244.506   -15962528.94843 -12388763.59342  22723245.105    22723242.055
  23964507.293    27504801.23043  21442452.88442  23964507.086    23964504.389
 04  5 20  2 36  0.0000000  0  7G 1G 4G16G20G27G13G25
  20624961.331   -24531492.68444 -19071127.72042  20624961.082    20624957.955
  24177000.542    -7821436.74543  -6059012.47542  24177001.028    24176999.431
  21443988.132   -21009863.46543 -16292509.68942  21443987.917    21443984.254
  20469456.063    -8549797.66643  -6625490.35142  20469455.694    20469452.247
  24509692.243    -3599793.09943  -2758664.94142  24509692.351    24509694.724
  22709083.552   -16036944.66243 -12446749.78942  22709084.174    22709081.101
  23981191.699    27592478.09143  21510772.50242  23981191.471    23981188.774
 04  5 20  2 36 30.0000000  0  7G 1G 4G16G20G27G13G25
  20620993.351   -24552344.53544 -19087375.90342  20620993.105    20620989.957
  24176327.894    -7824971.46843  -6061766.81942  24176328.348    24176326.950
  21439092.705   -21035589.04843 -16312555.57342  21439092.505    21439088.800
  20476139.388    -8514676.62743  -6598123.33042  20476139.023    20476135.583
  24494092.312    -3681770.44343  -2822543.20442  24494092.450    24494094.725
  22694939.876   -16111270.05343 -12504665.62742  22694940.482    22694937.359
  23997880.688    27680179.56743  21579111.30642  23997880.511    23997877.791
 04  5 20  2 37  0.0000000  0  7G 1G 4G16G20G27G13G25
  20617067.434   -24572975.27644 -19103451.79442  20617067.191    20617064.049
  24175755.022    -7827982.30343  -6064112.93942  24175755.357    24175753.976
  21434305.662   -21060744.91843 -16332157.52242  21434305.470    21434301.769
  20482928.361    -8479000.56943  -6570323.82842  20482927.973    20482924.536
  24478519.867    -3763603.28343  -2886308.88542  24478520.051    24478522.317
  22680813.224   -16185505.88143 -12562511.66042  22680813.857    22680810.635
  24014573.843    27767902.73143  21647467.00142  24014573.662    24014570.997
 04  5 20  2 37 30.0000000  0  7G 1G 4G16G20G27G13G25
  20613184.409   -24593380.53744 -19119351.98542  20613184.190    20613181.055
  24175282.370    -7830466.13643  -6066048.42042  24175282.642    24175281.376
  21429627.952   -21085326.26243 -16351311.79142  21429627.771    21429624.063
  20489823.510    -8442766.45643  -6542089.48242  20489823.125    20489819.690
  24462975.765    -3845287.23343  -2949958.52742  24462975.951    24462978.213
  22666704.404   -16259647.88343 -12620284.57942  22666705.034    22666701.777
  24031271.589    27855649.93843  21715841.41942  24031271.464    24031268.760
 04  5 20  2 38  0.0000000  0  7G 1G 4G16G20G27G13G25
  20609344.106   -24613561.41844 -19135077.33142  20609343.890    20609340.755
  24174909.503    -7832425.36743  -6067575.09842  24174909.808    24174908.519
  21425059.406   -21109333.86943 -16370018.99442  21425059.223    21425055.546
  20496824.369    -8405976.90643  -6513422.32342  20496823.958    20496820.535
  24447459.742    -3926823.74543  -3013493.28042  24447459.936    24447462.143
  22652613.214   -16333697.31043 -12677985.38242  22652613.800    22652610.542
  24047973.347    27943417.96843  21784232.07742  24047973.151    24047970.439
 04  5 20  2 38 30.0000000  0  7G 1G 4G16G20G27G13G25
  20605547.052   -24633515.01844 -19150625.57542  20605546.838    20605543.693
  24174636.849    -7833858.11743  -6068691.56142  24174637.090    24174635.887
  21420600.687   -21132764.48643 -16388276.59442  21420600.489    21420596.819
  20503931.246    -8368630.20943  -6484321.02342  20503930.828    20503927.398
  24431972.291    -4008209.95643  -3076910.91442  24431972.527    24431974.656
  22638540.211   -16407651.15943 -12735611.70842  22638540.776    22638537.501
  24064679.215    28031207.81343  21852639.71942  24064678.973    24064676.308
 04  5 20  2 39  0.0000000  0  7G 1G 4G16G20G27G13G25
  20601792.870   -24653243.28244 -19165998.23942  20601792.669    20601789.506
  24174463.669    -7834767.91243  -6069400.49842  24174463.801    24174462.705
  21416251.438   -21155619.75943 -16406085.87642  21416251.222    21416247.602
  20511143.431    -8330730.03443  -6454788.44742  20511142.993    20511139.605
  24416513.082    -4089448.17543  -3140213.23742  24416513.317    24416515.365
  22624485.029   -16481511.34043 -12793165.04142  22624485.629    22624482.299
  24081388.499    28119015.58143  21921061.32642  24081388.302    24081385.576
 04  5 20  2 39 30.0000000  0  7G 1G 4G16G20G27G13G25
  20598082.267   -24672742.61744 -19181192.52042  20598082.050    20598078.898
  24174390.617    -7835152.01543  -6069699.83542  24174390.754    24174389.554
  21412012.425   -21177895.72843 -16423443.74042  21412012.207    21412008.601
  20518461.349    -8292274.24943  -6424822.92242  20518460.907    20518457.538
  24401082.708    -4170534.71343  -3203397.34742  24401082.958    24401084.868
  22610448.390   -16555274.17143 -12850642.52342  22610449.010    22610445.644
  24098101.577    28206843.50643  21989498.65642  24098101.405    24098098.738
 04  5 20  2 40  0.0000000  0  7G 1G 4G16G20G27G13G25
  20594414.103   -24692018.91343 -19196213.00642  20594413.872    20594410.735
  24174416.070    -7835017.96043  -6069595.38742  24174416.382    24174415.079
  21407882.616   -21199598.00843 -16440354.59042  21407882.378    21407878.763
  20525883.610    -8253270.10243  -6394430.10442  20525883.174    20525879.801
  24385680.119    -4251475.64043  -3266468.02242  24385680.333    24385682.101
  22596429.138   -16628945.83343 -12908048.95642  22596429.731    22596426.376
  24114817.025    28294683.60743  22057945.47142  24114816.814    24114814.180
 04  5 20  2 40 30.0000000  0  7G 1G 4G16G20G27G13G25
  20590790.075   -24711063.16244 -19211052.67142  20590789.862    20590786.703
  24174541.533    -7834357.53943  -6069080.80942  24174541.890    24174540.754
  21403863.725   -21220717.28743 -16456811.14842  21403863.485    21403859.872
  20533411.646    -8213710.00043  -6363604.07442  20533411.229    20533407.854
  24370306.883    -4332261.94443  -3329418.19442  24370307.126    24370308.781
  22582429.030   -16702516.76543 -12965376.90942  22582429.653    22582426.251
  24131536.071    28382543.00843  22126407.32542  24131535.935    24131533.273
 04  5 20  2 41  0.0000000  0  7G 1G 4G16G20G27G13G25
  20587209.244   -24729880.53643 -19225715.55342  20587209.013    20587205.867
  24174766.357    -7833177.27343  -6068161.15242  24174766.464    24174765.296
  21399954.882   -21241258.20843 -16472817.04242  21399954.653    21399951.021
  20541044.185    -8173600.70043  -6332350.09442  20541043.786    20541040.423
  24354962.008    -4412899.09143  -3392252.14242  24354962.205    24354963.842
  22568447.018   -16775992.44043 -13022630.63742  22568447.679    22568444.262
  24148257.450    28470414.70943  22194878.76042  24148257.369    24148254.736
 04  5 20  2 41 30.0000000  0  7G 1G 4G16G20G27G13G25
  20583672.434   -24748466.57943 -19240198.17942  20583672.193    20583669.071
  24175090.564    -7831474.47743  -6066834.30942  24175090.665    24175089.297
  21396156.879   -21261216.74843 -16488369.12842  21396156.655    21396153.014
  20548781.782    -8132939.36043  -6300665.95042  20548781.389    20548778.046
  24339646.355    -4493382.97743  -3454966.66642  24339646.518    24339648.042
  22554484.029   -16849368.27543 -13079806.56642  22554484.683    22554481.233
  24164981.651    28558300.95443  22263361.52642  24164981.530    24164978.990
 04  5 20  2 42  0.0000000  0  7G 1G 4G16G20G27G13G25
  20580179.632   -24766821.30043 -19254500.55342  20580179.401    20580176.278
  24175513.857    -7829250.36543  -6065101.27642  24175514.012    24175512.601
  21392469.754   -21280592.59843 -16503467.16942  21392469.540    21392465.893
  20556624.117    -8091727.62943  -6268552.93542  20556623.737    20556620.407
  24324359.846    -4573713.54143  -3517561.71742  24324359.892    24324361.440
  22540540.082   -16922644.15043 -13136904.61142  22540540.723    22540537.251
  24181708.275    28646199.97543  22331854.24742  24181708.204    24181705.640
 04  5 20  2 42 30.0000000  0  7G 1G 4G16G20G27G13G25
  20576730.451   -24784946.96444 -19268624.44342  20576730.190    20576727.083
  24176035.769    -7826508.18543  -6062964.53742  24176035.824    24176034.439
  21388893.144   -21299387.71743 -16518112.69742  21388892.937    21388889.289
  20564570.442    -8049969.45543  -6236014.12842  20564570.052    20564566.754
  24309102.038    -4653893.29843  -3580039.26842  24309102.095    24309103.583
  22526614.755   -16995822.13943 -13193926.37442  22526615.377    22526611.885
  24198436.596    28734107.93143  22400353.92742  24198436.551    24198433.915
 04  5 20  2 43  0.0000000  0  7G 1G 4G16G20G27G13G25
  20573325.605   -24802839.42843 -19282566.61342  20573325.336    20573322.255
  24176656.608    -7823245.50143  -6060422.21042  24176656.764    24176655.291
  21385427.939   -21317597.52843 -16532302.14642  21385427.714    21385424.031
  20572621.286    -8007662.24843  -6203047.50642  20572620.860    20572617.570
  24293873.665    -4733918.20943  -3642396.16342  24293873.723    24293875.166
  22512708.775   -17068898.37443 -13250868.85442  22512709.354    22512705.861
  24215167.155    28822027.20443  22468862.44642  24215167.133    24215164.410
 04  5 20  2 43 30.0000000  0  7G 1G 4G16G20G27G13G25
  20569964.560   -24820501.66543 -19296329.38942  20569964.303    20569961.246
  24177375.581    -7819466.67143  -6057477.69342  24177375.918    24177374.364
  21382073.461   -21335225.29843 -16546038.05142  21382073.266    21382069.544
  20580775.715    -7964810.58843  -6169656.63142  20580775.307    20580772.003
  24278674.140    -4813791.46543  -3704634.88442  24278674.300    24278675.698
  22498821.686   -17141875.53643 -13307734.14042  22498822.276    22498818.724
  24231898.850    28909952.97043  22537376.02242  24231898.850    24231896.143
 04  5 20  2 44  0.0000000  0  7G 1G 4G16G20G27G13G25
  20566648.257   -24837928.89543 -19309909.03542  20566648.007    20566644.964
  24178193.674    -7815168.36543  -6054128.39042  24178193.938    24178192.400
  21378830.707   -21352265.97243 -16559316.47242  21378830.519    21378826.779
  20589034.326    -7921411.32443  -6135839.04642  20589033.922    20589030.642
  24263504.375    -4893508.51743  -3766751.87742  24263504.474    24263505.904
  22484954.346   -17214748.82643 -13364518.48942  22484954.917    22484951.347
  24248632.316    28997887.97643  22605896.81742  24248632.274    24248629.682
 04  5 20  2 44 30.0000000  0  7G 1G 4G16G20G27G13G25
  20563376.696   -24855121.14543 -19323305.58642  20563376.421    20563373.377
  24179110.304    -7810352.38643  -6050375.71142  24179110.359    24179108.823
  21375699.599   -21368719.95743 -16572137.73942  21375699.418    21375695.682
  20597396.768    -7877466.48843  -6101596.34942  20597396.372    20597393.087
  24248364.127    -4973069.96043  -3828747.62842  24248364.268    24248365.664
  22471106.675   -17287518.49643 -13421222.08642  22471107.228    22471103.674
  24265367.143    29085830.15743  22674423.17642  24265367.097    24265364.522
 04  5 20  2 45  0.0000000  0  7G 1G 4G16G20G27G13G25
  20560149.911   -24872078.03943 -19336518.74442  20560149.637    20560146.588
  24180124.804    -7805019.81943  -6046220.48942  24180125.047    24180123.724
  21372680.220   -21384586.82243 -16584501.50842  21372680.021    21372676.271
  20605862.799    -7832977.34443  -6066929.52042  20605862.390    20605859.110
  24233253.615    -5052475.42643  -3890621.83542  24233253.749    24233255.101
  22457278.880   -17360183.79543 -13477844.36242  22457279.445    22457275.900
  24282103.070    29173778.24343  22742954.14142  24282103.105    24282100.530
 04  5 20  2 45 30.0000000  0  7G 1G 4G16G20G27G13G25
  20556967.598   -24888801.24843 -19349549.81042  20556967.319    20556964.263
  24181237.385    -7799173.66143  -6041665.06842  24181237.557    24181236.321
  21369772.306   -21399867.85243 -16596408.78342  21369772.119    21369768.355
  20614431.746    -7787947.35343  -6031841.24842  20614431.333    20614428.067
  24218172.372    -5131726.89143  -3952376.04942  24218172.533    24218173.898
  22443470.641   -17432746.30043 -13534386.53742  22443471.201    22443467.679
  24298839.476    29261728.68143  22811486.92042  24298839.531    24298836.955
 04  5 20  2 46  0.0000000  0  7G 1G 4G16G20G27G13G25
  20553830.337   -24905287.56043 -19362396.28042  20553830.058    20553827.002
  24182447.895    -7792812.40443  -6036708.26542  24182448.150    24182446.811
  21366976.434   -21414560.14543 -16607857.29942  21366976.261    21366972.460
  20623103.911    -7742375.03843  -5996330.37642  20623103.485    20623100.220
  24203121.147    -5210821.17143  -4014007.78242  24203121.321    24203122.616
  22429682.551   -17505202.94843 -13590846.22342  22429683.129    22429679.570
  24315576.626    29349682.93743  22880022.70942  24315576.697    24315574.040
 04  5 20  2 46 30.0000000  0  7G 1G 4G16G20G27G13G25
  20550738.266   -24921536.48343 -19375057.77142  20550737.990    20550734.914
  24183756.288    -7785937.23543  -6031351.00942  24183756.493    24183755.169
  21364292.723   -21428663.16843 -16618846.64642  21364292.533    21364288.739
  20631879.010    -7696261.72943  -5960397.95042  20631878.593    20631875.320
  24188099.760    -5289758.36743  -4075517.10442  24188099.905    24188101.112
  22415914.768   -17577553.08443 -13647222.91842  22415915.309    22415911.782
  24332314.306    29437639.55443  22948560.35442  24332314.286    24332311.678
 04  5 20  2 47  0.0000000  0  7G 1G 4G16G20G27G13G25
  20547691.474   -24937547.34243 -19387533.75142  20547691.216    20547688.145
  24185162.255    -7778548.72443  -6025593.74942  24185162.447    24185161.184
  21361721.171   -21442176.60643 -16629376.57742  21361720.997    21361717.211
  20640756.786    -7649608.67243  -5924044.94742  20640756.388    20640753.133
  24173108.340    -5368537.93843  -4136903.62242  24173108.466    24173109.585
  22402167.409   -17649795.97443 -13703516.04942  22402167.926    22402164.440
  24349052.141    29525597.50843  23017099.01242  24349052.130    24349049.540
 04  5 20  2 47 30.0000000  0  7G 1G 4G16G20G27G13G25
  20544689.697   -24953321.76143 -19399825.49942  20544689.420    20544686.344
  24186665.306    -7770650.61043  -6019439.40742  24186665.433    24186664.129
  21359261.522   -21455102.14943 -16639448.40342  21359261.327    21359257.538
  20649736.640    -7602419.28543  -5887274.03342  20649736.248    20649732.989
  24158146.585    -5447161.81143  -4198168.81242  24158146.723    24158147.718
  22388440.191   -17721932.95043 -13759726.64342  22388440.717    22388437.188
  24365789.691    29613553.56343  23085636.17742  24365789.624    24365787.090
 04  5 20  2 48  0.0000000  0  7G 1G 4G16G20G27G13G25
  20541733.589   -24968856.11143 -19411930.17442  20541733.321    20541730.250
  24188265.755    -7762240.63743  -6012886.21842  24188265.863    24188264.531
  21356914.425   -21467436.19243 -16649059.32442  21356914.216    21356910.433
  20658818.908    -7554691.76743  -5850083.80342  20658818.505    20658815.262
  24143215.089    -5525626.72743  -4259310.14842  24143215.210    24143216.184
  22374733.766   -17793960.65643 -13815852.09342  22374734.290    22374730.740
  24382527.266    29701509.46843  23154173.24242  24382527.160    24382524.517
 04  5 20  2 48 30.0000000  0  7G 1G 4G16G20G27G13G25
  20538823.524   -24984148.46443 -19423846.28342  20538823.265    20538820.201
  24189963.441    -7753318.77343  -6005934.14542  24189963.549    24189962.302
  21354680.140   -21479177.22943 -16658208.16542  21354679.940    21354676.173
  20668003.546    -7506426.24143  -5812474.34442  20668003.162    20667999.917
  24128314.231    -5603930.94843  -4320326.26942  24128314.333    24128315.239
  22361048.578   -17865876.81743 -13871890.62542  22361049.064    22361045.553
  24399264.742    29789465.41343  23222710.35742  24399264.687    24399262.016
 04  5 20  2 49  0.0000000  0  7G 1G 4G16G20G27G13G25
  20535959.133   -24999200.83343 -19435575.39042  20535958.868    20535955.797
  24191758.000    -7743888.43743  -5998585.85942  24191758.034    24191756.867
  21352558.330   -21490327.26543 -16666896.48542  21352558.148    21352554.386
  20677289.851    -7457626.52143  -5774448.62742  20677289.451    20677286.229
  24113443.478    -5682076.81743  -4381219.00442  24113443.545    24113444.426
  22347384.180   -17937683.47343 -13927843.81842  22347384.693    22347381.188
  24416001.488    29877417.79143  23291244.69442  24416001.425    24415998.705
 04  5 20  2 49 30.0000000  0  7G 1G 4G16G20G27G13G25
  20533140.727   -25014011.46743 -19447116.12742  20533140.479    20533137.416
  24193649.039    -7733950.05443  -5990841.69642  24193649.254    24193648.159
  21350549.211   -21500885.06243 -16675123.32142  21350549.038    21350545.256
  20686677.752    -7408292.87343  -5736006.84142  20686677.335    20686674.146
  24098603.080    -5760062.98143  -4441987.29142  24098603.115    24098603.932
  22333740.978   -18009378.81043 -13983710.27842  22333741.514    22333738.010
  24432737.491    29965366.00343  23359775.76342  24432737.408    24432734.659
 04  5 20  2 50  0.0000000  0  7G 1G 4G16G20G27G13G25
  20530368.294   -25028580.65043 -19458468.72742  20530368.035    20530364.971
  24195636.577    -7723505.23243  -5982702.91442  24195636.774    24195635.824
  21348652.751   -21510851.01043 -16682888.97242  21348652.547    21348648.769
  20696166.816    -7358427.62143  -5697150.83142  20696166.378    20696163.217
  24083792.995    -5837889.94943  -4502631.54842  24083793.039    24083793.834
  22320118.984   -18080962.81543 -14039489.98642  22320119.509    22320116.009
  24449472.325    30053308.28043  23428302.17742  24449472.326    24449469.532
 04  5 20  2 50 30.0000000  0  7G 1G 4G16G20G27G13G25
  20527642.029   -25042907.10343 -19469632.18442  20527641.794    20527638.734
  24197720.417    -7712554.80943  -5974170.17542  24197720.621    24197719.721
  21346869.048   -21520224.30343 -16690192.81442  21346868.847    21346865.061
  20705756.903    -7308031.53143  -5657881.19542  20705756.458    20705753.307
  24069013.349    -5915557.05643  -4563151.22942  24069013.417    24069014.110
  22306518.386   -18152434.28043 -14095182.00442  22306518.910    22306515.426
  24466205.961    30141244.13143  23496823.60142  24466205.928    24466203.168
 04  5 20  2 51  0.0000000  0  7G 1G 4G16G20G27G13G25
  20524962.184   -25056989.72543 -19480605.64642  20524961.944    20524958.892
  24199900.463    -7701099.25043  -5965243.79342  24199900.590    24199899.614
  21345198.356   -21529003.81343 -16697033.96942  21345198.136    21345194.378
  20715447.868    -7257105.29543  -5618198.45242  20715447.404    20715444.271
  24054264.304    -5993063.19343  -4623545.48542  24054264.288    24054264.936
  22292939.479   -18223791.91843 -14150785.32042  22292939.997    22292936.499
  24482938.220    30229172.71043  23565339.36342  24482938.190    24482935.440
 04  5 20  2 51 30.0000000  0  7G 1G 4G16G20G27G13G25
  20522329.052   -25070827.00443 -19491387.93842  20522328.787    20522325.724
  24202176.446    -7689139.06043  -5955924.19442  24202176.657    24202175.520
  21343640.811   -21537188.78543 -16703411.85342  21343640.588    21343636.794
  20725239.571    -7205649.66643  -5578103.18642  20725239.102    20725235.966
  24039546.117    -6070407.37143  -4683813.53542  24039546.029    24039546.707
  22279382.495   -18295034.17043 -14206298.72642  22279383.021    22279379.512
  24499669.098    30317094.00143  23633849.46642  24499669.157    24499666.237
 04  5 20  2 52  0.0000000  0  7G 1G 4G16G20G27G13G25
  20519742.486   -25084419.45643 -19501979.44642  20519742.230    20519739.160
  24204548.099    -7676676.68543  -5946213.29242  24204548.220    24204547.009
  21342196.250   -21544780.04543 -16709327.09842  21342196.032    21342192.218
  20735131.526    -7153667.24543  -5537597.42642  20735131.063    20735127.917
  24024858.587    -6147590.42743  -4743956.05142  24024858.557    24024859.160
  22265847.400   -18366161.28743 -14261722.41942  22265847.938    22265844.434
  24516398.129    30405005.66643  23702352.04742  24516398.246    24516395.279
 04  5 20  2 52 30.0000000  0  7G 1G 4G16G20G27G13G25
  20517202.705   -25097766.18143 -19512379.48342  20517202.437    20517199.361
  24207015.116    -7663712.96943  -5936111.73542  24207015.125    24207014.047
  21340864.741   -21551777.13243 -16714779.35642  21340864.534    21340860.694
  20745123.499    -7101159.20043  -5496682.09842  20745123.045    20745119.888
  24010201.745    -6224612.01943  -4803972.73742  24010201.642    24010202.377
  22252334.409   -18437172.28043 -14317055.62242  22252334.948    22252331.427
  24533125.208    30492906.99043  23770846.61942  24533125.236    24533122.272
 04  5 20  2 53  0.0000000  0  7G 1G 4G16G20G27G13G25
  20514710.371   -25110863.48843 -19522585.16642  20514710.122    20514707.030
  24209577.645    -7650246.46343  -5925618.39442  24209577.735    24209576.750
  21339646.829   -21558177.24443 -16719766.43742  21339646.601    21339642.783
  20755215.803    -7048123.98643  -5455355.99342  20755215.349    20755212.183
  23995576.282    -6301468.85743  -4863861.06442  23995576.226    23995576.864
  22238844.193   -18508063.67443 -14372295.63342  22238844.719    22238841.190
  24549850.655    30580799.47243  23839334.25442  24549850.604    24549847.717
 04  5 20  2 53 30.0000000  0  7G 1G 4G16G20G27G13G25
  20512264.883   -25123714.49543 -19532598.93242  20512264.648    20512261.566
  24212235.049    -7636282.00443  -5914737.04442  24212235.098    24212234.123
  21338541.894   -21563983.63643 -16724290.87842  21338541.667    21338537.828
  20765407.335    -6994567.16743  -5413623.43542  20765406.899    20765403.732
  23980981.482    -6378164.55443  -4923623.81642  23980981.347    23980982.042
  22225376.139   -18578838.52343 -14427444.82342  22225376.706    22225373.135
  24566573.463    30668678.18443  23907811.17542  24566573.373    24566570.502
 04  5 20  2 54  0.0000000  0  7G 1G 4G16G20G27G13G25
  20509866.698   -25136317.03643 -19542419.08942  20509866.457    20509863.369
  24214987.263    -7621819.51143  -5903467.62742  24214987.365    24214986.328
  21337550.268   -21569194.58943 -16728351.34342  21337550.032    21337546.203
  20775698.193    -6940488.41143  -5371484.17242  20775697.768    20775694.596
  23966417.768    -6454697.08943  -4983259.43842  23966417.683    23966418.235
  22211930.801   -18649493.92343 -14482500.94142  22211931.398    22211927.810
  24583293.721    30756543.73143  23976277.82242  24583293.638    24583290.666
 04  5 20  2 54 30.0000000  0  7G 1G 4G16G20G27G13G25
  20507516.537   -25148667.28143 -19552042.64942  20507516.295    20507513.195
  24217834.631    -7606856.81543  -5891808.45742  24217834.651    24217833.772
  21336672.584   -21573806.69143 -16731945.16842  21336672.351    21336668.519
  20786088.691    -6885886.17843  -5328937.01842  20786088.253    20786085.086
  23951885.693    -6531063.03543  -5042765.25242  23951885.613    23951886.101
  22198508.900   -18720026.21643 -14537461.13142  22198509.512    22198505.914
  24600011.951    30844398.51743  24044736.06742  24600011.782    24600008.889
 04  5 20  2 55  0.0000000  0  7G 1G 4G16G20G27G13G25
  20505213.330   -25160770.72943 -19561473.89942  20505213.065    20505209.976
  24220775.730    -7591401.59443  -5879765.50742  24220775.670    24220774.907
  21335907.669   -21577826.09843 -16735077.15042  21335907.442    21335903.616
  20796577.335    -6830768.00143  -5285987.82442  20796576.919    20796573.766
  23937384.180    -6607268.44343  -5102145.97542  23937384.121    23937384.640
  22185109.494   -18790440.62943 -14592329.46942  22185110.090    22185106.466
  24616726.699    30932235.25043  24113180.26342  24616726.649    24616723.755
 04  5 20  2 55 30.0000000  0  7G 1G 4G16G20G27G13G25
  20502957.892   -25172623.08243 -19570709.49442  20502957.630    20502954.539
  24223810.996    -7575451.53043  -5867336.94842  24223811.002    24223810.055
  21335256.270   -21581249.08743 -16737744.39442  21335256.031    21335252.228
  20807164.557    -6775131.87443  -5242635.02642  20807164.133    20807160.985
  23922913.976    -6683309.27843  -5161398.46242  23922913.967    23922914.345
  22171733.329   -18860732.73543 -14647102.49742  22171733.930    22171730.298
  24633438.552    31020056.43143  24181612.35942  24633438.504    24633435.603
 04  5 20  2 56  0.0000000  0  7G 1G 4G16G20G27G13G25
  20500750.625   -25184222.42843 -19579747.93842  20500750.337    20500747.250
  24226940.353    -7559006.79843  -5854522.92242  24226940.365    24226939.390
  21334718.602   -21584074.42643 -16739945.93542  21334718.359    21334714.557
  20817850.247    -6718978.23943  -5198878.97542  20817849.846    20817846.701
  23908475.323    -6759184.17143  -5220521.64342  23908475.315    23908475.750
  22158380.778   -18930900.79443 -14701778.86942  22158381.371    22158377.743
  24650147.306    31107862.01343  24250032.30642  24650147.353    24650144.493
 04  5 20  2 56 30.0000000  0  7G 1G 4G16G20G27G13G25
  20498591.217   -25195570.20443 -19588590.35142  20498590.940    20498587.832
  24230163.129    -7542071.13143  -5841326.37142  24230163.211    24230162.230
  21334294.221   -21586304.30543 -16741683.48142  21334294.004    21334290.210
  20828633.749    -6662310.67543  -5154722.45942  20828633.322    20828630.211
  23894067.957    -6834895.07543  -5279517.05242  23894067.959    23894068.304
  22145051.642   -19000945.72343 -14756359.29842  22145052.243    22145048.601
  24666852.681    31195649.32643  24318438.02242  24666852.664    24666849.827
 04  5 20  2 57  0.0000000  0  7G 1G 4G16G20G27G13G25
  20496480.472   -25206662.23343 -19597233.47742  20496480.183    20496477.076
  24233479.885    -7524642.10243  -5827745.39142  24233479.920    24233478.947
  21333983.841   -21587935.17843 -16742954.26942  21333983.621    21333979.866
  20839515.424    -6605127.28143  -5110164.00942  20839514.991    20839511.886
  23879692.499    -6910438.15843  -5338381.69042  23879692.472    23879692.849
  22131746.713   -19070863.37143 -14810840.54442  22131747.296    22131743.689
  24683554.967    31283420.61043  24386831.24742  24683555.052    24683552.217
 04  5 20  2 57 30.0000000  0  7G 1G 4G16G20G27G13G25
  20494417.528   -25217503.07043 -19605680.87742  20494417.235    20494414.126
  24236889.164    -7506726.39743  -5813785.16342  24236889.218    24236888.276
  21333786.459   -21588972.25443 -16743762.35642  21333786.233    21333782.519
  20850493.890    -6547435.12343  -5065209.11642  20850493.466    20850490.362
  23865347.998    -6985818.51643  -5397119.52242  23865347.902    23865348.307
  22118465.209   -19140657.89743 -14865225.85142  22118465.821    22118462.194
  24700253.060    31371169.87443  24455207.29542  24700253.126    24700250.282
 04  5 20  2 58  0.0000000  0  7G 1G 4G16G20G27G13G25
  20492402.915   -25228089.88444 -19613930.34342  20492402.629    20492399.520
  24240391.208    -7488323.53943  -5799445.35142  24240391.213    24240390.327
  21333702.424   -21589413.58743 -16744106.22742  21333702.223    21333698.519
  20861569.257    -6489233.72443  -5019857.41742  20861568.852    20861565.740
  23851034.907    -7061033.75143  -5455728.67942  23851034.773    23851035.261
  22105207.702   -19210326.39743 -14919512.95542  22105208.313    22105204.660
  24716947.155    31458898.11843  24523566.95942  24716947.212    24716944.361
 04  5 20  2 58 30.0000000  0  7G 1G 4G16G20G27G13G25
  20490437.390   -25238418.86044 -19621978.89742  20490437.099    20490433.953
  24243986.225    -7469431.87243  -5784724.63942  24243986.259    24243985.392
  21333732.390   -21589256.00343 -16743983.41342  21333732.176    21333728.485
  20872741.845    -6430521.54243  -4974107.70142  20872741.424    20872738.336
  23836753.902    -7136080.49543  -5514206.55842  23836753.749    23836754.270
  22091974.960   -19279864.93143 -14973698.78442  22091975.521    22091971.903
  24733637.635    31546607.01243  24591911.55842  24733637.676    24733634.764
 04  5 20  2 59  0.0000000  0  7G 1G 4G16G20G27G13G25
  20488520.610   -25248491.41443 -19629827.62742  20488520.329    20488517.211
  24247673.529    -7450054.97143  -5769625.81642  24247673.584    24247672.781
  21333875.880   -21588501.83143 -16743395.72442  21333875.656    21333871.966
  20884010.906    -6371302.40843  -4927962.96342  20884010.480    20884007.390
  23822504.590    -7210960.75243  -5572554.69942  23822504.452    23822504.878
  22078766.674   -19349274.80743 -15027784.36842  22078767.249    22078763.608
  24750323.874    31634293.80243  24660238.93842  24750323.874    24750321.006
 04  5 20  2 59 30.0000000  0  7G 1G 4G16G20G27G13G25
  20486653.009   -25258305.65143 -19637475.07942  20486652.747    20486649.623
  24251453.122    -7430193.10443  -5754149.10242  24251453.137    24251452.377
  21334133.175   -21587149.76843 -16742342.14542  21334132.953    21334129.230
  20895376.346    -6311576.84643  -4881423.60642  20895375.923    20895372.809
  23808287.254    -7285673.10243  -5630772.00842  23808287.144    23808287.457
  22065583.266   -19418553.89043 -15081768.03342  22065583.872    22065580.200
  24767005.915    31721958.85443  24728549.36542  24767005.919    24767003.082
 04  5 20  3  0  0.0000000  0  7G 1G 4G16G20G27G13G25
  20484834.455   -25267862.32843 -19644921.83542  20484834.180    20484831.055
  24255324.465    -7409849.13643  -5738296.71242  24255324.455    24255323.768
  21334503.884   -21585201.71243 -16740824.15742  21334503.636    21334499.904
  20906837.601    -6251347.87143  -4834491.97142  20906837.156    20906834.032
  23794101.541    -7360218.85643  -5688859.49542  23794101.465    23794101.770
  22052424.668   -19487702.65943 -15135650.15342  22052425.279    22052421.581
  24783683.365    31809599.44243  24796840.73142  24783683.408    24783680.502
 04  5 20  3  0 30.0000000  0  7G 1G 4G16G20G27G13G25
  20483065.242   -25277159.58344 -19652166.44742  20483064.972    20483061.826
  24259287.528    -7389023.70143  -5722069.13042  24259287.502    24259286.728
  21334988.208   -21582656.57943 -16738840.91342  21334987.955    21334984.200
  20918394.453    -6190616.41543  -4787168.79542  20918394.009    20918390.892
  23779947.916    -7434596.47243  -5746815.97042  23779947.804    23779948.060
  22039291.207   -19556719.24443 -15189429.26942  22039291.819    22039288.130
  24800356.248    31897215.97743  24865113.39942  24800356.295    24800353.360
 04  5 20  3  1  0.0000000  0  7G 1G 4G16G20G27G13G25
  20481345.172   -25286198.76444 -19659209.96442  20481344.879    20481341.738
  24263341.461    -7367720.37043  -5705469.17442  24263341.423    24263340.518
  21335585.733   -21579516.59643 -16736394.15242  21335585.459    21335581.681
  20930046.268    -6129385.86743  -4739456.72242  20930045.815    20930042.717
  23765825.896    -7508807.93943  -5804642.97442  23765825.740    23765826.019
  22026182.739   -19625604.60643 -15243106.13442  22026183.315    22026179.638
  24817024.038    31984805.61443  24933365.06242  24817024.093    24817021.144
 04  5 20  3  1 30.0000000  0  7G 1G 4G16G20G27G13G25
  20479674.537   -25294978.01543 -19666050.93442  20479674.226    20479671.101
  24267486.312    -7345939.51943  -5688497.12842  24267486.276    24267485.225
  21336296.617   -21575780.78643 -16733483.10642  21336296.358    21336292.558
  20941792.901    -6067657.03843  -4691356.37842  20941792.446    20941789.351
  23751735.742    -7582851.90043  -5862339.45642  23751735.621    23751735.834
  22013099.602   -19694356.62843 -15296679.09242  22013100.172    22013096.525
  24833686.568    32072368.23443  25001595.67242  24833686.599    24833683.741
 04  5 20  3  2  0.0000000  0  7G 1G 4G16G20G27G13G25
  20478053.950   -25303494.28143 -19672686.97742  20478053.631    20478050.493
  24271722.168    -7323680.52643  -5671152.51642  24271722.179    24271721.025
  21337121.233   -21571447.22843 -16730106.28442  21337120.997    21337117.172
  20953634.415    -6005429.63443  -4642867.53242  20953633.947    20953630.865
  23737677.927    -7656725.92343  -5919903.49142  23737677.790    23737677.940
  22000042.459   -19762972.24943 -15350145.76642  22000043.027    22000039.342
  24850344.343    32159905.20343  25069806.27042  24850344.364    24850341.502
 04  5 20  3  2 30.0000000  0  7G 1G 4G16G20G27G13G25
  20476483.216   -25311748.46243 -19679118.79742  20476482.890    20476479.760
  24276048.392    -7300946.46743  -5653437.71242  24276048.496    24276047.343
  21338059.299   -21566517.61243 -16726264.99942  21338059.053    21338055.238
  20965570.172    -5942706.88943  -4593992.70742  20965569.706    20965566.639
  23723652.147    -7730431.48043  -5977336.28942  23723651.964    23723652.125
  21987011.126   -19831452.21543 -15403506.73742  21987011.664    21987008.029
  24866996.793    32247414.42043  25137995.25142  24866996.689    24866993.874
 04  5 20  3  3  0.0000000  0  7G 1G 4G16G20G27G13G25
  20474962.635   -25319739.09443 -19685345.26342  20474962.309    20474959.194
  24280464.758    -7277738.30743  -5635353.51542  24280464.858    24280463.951
  21339110.862   -21560991.65343 -16721959.03542  21339110.595    21339106.765
  20977599.979    -5879489.87843  -4544732.72742  20977599.528    20977596.480
  23709658.606    -7803967.52743  -6034636.97442  23709658.421    23709658.547
  21974005.956   -19899794.55843 -15456760.45542  21974006.497    21974002.881
  24883643.955    32334895.22543  25206162.08242  24883643.923    24883640.966
 04  5 20  3  3 30.0000000  0  7G 1G 4G16G20G27G13G25
  20473492.550   -25327464.44243 -19691365.01142  20473492.229    20473489.109
  24284971.154    -7254056.76143  -5616900.44042  24284971.233    24284970.448
  21340275.985   -21554868.72643 -16717187.89442  21340275.745    21340271.896
  20989723.698    -5815779.33743  -4495088.17742  20989723.256    20989720.232
  23695697.615    -7877332.85843  -6091804.65442  23695697.419    23695697.443
  21961027.349   -19967997.41143 -15509905.49342  21961027.917    21961024.261
  24900285.588    32422347.79543  25274306.93342  24900285.601    24900282.645
 04  5 20  3  4  0.0000000  0  6G 1G 4G16G20G27G13
  20472073.000   -25334924.23643 -19697177.83542  20472072.659    20472069.538
  24289567.317    -7229903.93643  -5598080.11642  24289567.384    24289566.581
  21341554.605   -21548149.49143 -16711952.10742  21341554.367    21341550.489
  21001940.892    -5751577.72443  -4445060.98142  21001940.435    21001937.438
  23681768.910    -7950528.05043  -6148839.74042  23681768.736    23681768.687
  21948075.370   -20036060.31143 -15562941.47042  21948075.912    21948072.292
 04  5 20  3  4 30.0000000  0  6G 1G 4G16G20G27G13
  20470704.302   -25342116.78343 -19702782.41942  20470703.968    20470700.846
  24294253.059    -7205280.70043  -5578893.22442  24294253.151    24294252.135
  21342946.738   -21540833.50643 -16706251.31342  21342946.531    21342942.641
  21014251.382    -5686885.81743  -4394651.73342  21014250.924    21014247.947
  23667872.820    -8023551.91343  -6205741.34242  23667872.645    23667872.572
  21935150.347   -20103981.67843 -15615867.17242  21935150.881    21935147.240
 04  5 20  3  5  0.0000000  0  6G 1G 4G16G20G27G13
  20469385.389   -25349047.65843 -19708183.10242  20469385.065    20469381.944
  24299026.829    -7180194.85143  -5559345.84242  24299026.970    24299025.701
  21344451.201   -21532927.23343 -16700090.55342  21344450.995    21344447.120
  21026653.566    -5621711.93943  -4343866.91842  21026653.131    21026650.177
  23654008.249    -8096410.34843  -6262514.04142  23654008.103    23654007.944
  21922251.327   -20171766.28743 -15668686.29542  21922251.880    21922248.210
 04  5 20  3  5 30.0000000  0  6G 1G 4G16G20G27G13
  20468117.727   -25355709.31844 -19713374.01142  20468117.391    20468114.262
  24303889.674    -7154641.34443  -5539434.07042  24303889.754    24303888.496
  21346069.206   -21524424.42443 -16693464.96642  21346068.977    21346065.120
  21039148.441    -5556051.06243  -4292702.62642  21039147.988    21039145.053
  23640176.365    -8169096.61543  -6319152.57842  23640176.220    23640176.114
  21909379.748   -20239406.56043 -15721392.95442  21909380.336    21909376.648
 04  5 20  3  6  0.0000000  0  6G 1G 4G16G20G27G13
  20466901.221   -25362102.07344 -19718355.38142  20466900.890    20466897.758
  24308840.671    -7128623.06543  -5519160.15842  24308840.829    24308839.873
  21347800.452   -21515326.55543 -16686375.69542  21347800.219    21347796.363
  21051735.405    -5489906.31643  -4241161.30142  21051734.933    21051732.011
  23626377.114    -8241611.62143  -6375657.66942  23626376.955    23626376.863
  21896535.663   -20306902.43943 -15773987.09842  21896536.257    21896532.551
 04  5 20  3  6 30.0000000  0  6G 1G 4G16G20G27G13
  20465735.834   -25368226.19744 -19723127.42342  20465735.510    20465732.360
  24313879.621    -7102142.62943  -5498526.14642  24313879.746    24313879.178
  21349644.667   -21505635.12543 -16678823.91142  21349644.422    21349640.551
  21064413.910    -5423280.36143  -4189245.00742  21064413.448    21064410.525
  23612610.314    -8313956.06443  -6432029.85442  23612610.197    23612610.114
  21883719.056   -20374253.95743 -15826468.75342  21883719.646    21883715.918
 04  5 20  3  7  0.0000000  0  6G 1G 4G16G20G27G13
  20464621.286   -25374083.09043 -19727691.23142  20464620.963    20464617.837
  24319005.964    -7075204.02443  -5477535.07442  24319006.120    24319005.511
  21351601.393   -21495352.59543 -16670811.53042  21351601.109    21351597.227
  21077183.154    -5356177.61243  -4136957.18442  21077182.695    21077179.774
  23598875.596    -8386132.09443  -6488270.81642  23598875.452    23598875.384
  21870929.669   -20441462.39843 -15878838.91442  21870930.269    21870926.486
 04  5 20  3  7 30.0000000  0  6G 1G 4G16G20G27G13
  20463558.612   -25379667.55444 -19732042.76242  20463558.272    20463555.151
  24324220.193    -7047804.68143  -5456184.98142  24324220.215    24324219.373
  21353671.287   -21484475.17543 -16662335.59542  21353671.000    21353667.108
  21090043.637    -5288595.39243  -4084295.75942  21090043.163    21090040.266
  23585173.790    -8458134.95543  -6544376.82442  23585173.676    23585173.568
  21858168.632   -20508522.10143 -15931093.17942  21858169.196    21858165.375
 04  5 20  3  8  0.0000000  0  6G 1G 4G16G20G27G13
  20462547.292   -25384982.03544 -19736183.91542  20462546.963    20462543.846
  24329520.901    -7019949.33643  -5434479.57742  24329520.880    24329520.031
  21355853.688   -21473006.57943 -16653399.00342  21355853.408    21355849.502
  21102994.340    -5220539.05343  -4031264.89542  21102993.887    21102990.991
  23571504.341    -8529967.84143  -6600350.39242  23571504.240    23571504.133
  21845435.416   -20575435.47543 -15983233.42242  21845435.984    21845432.151
 04  5 20  3  8 30.0000000  0  6G 1G 4G16G20G27G13
  20461588.481   -25390020.72244 -19740110.16942  20461588.138    20461585.029
  24334908.772    -6991634.90643  -5412416.44342  24334908.991    24334908.129
  21358149.449   -21460942.25643 -16643998.21142  21358149.150    21358145.264
  21116035.949    -5152005.18743  -3977861.92742  21116035.472    21116032.588
  23557868.349    -8601625.44743  -6656187.39042  23557868.209    23557868.048
  21832731.210   -20642196.30443 -16035254.79842  21832731.770    21832727.924
 04  5 20  3  9  0.0000000  0  6G 1G 4G16G20G27G13
  20460681.228   -25394788.49544 -19743825.32342  20460680.867    20460677.736
  24340382.858    -6962868.76743  -5390001.33842  24340383.008    24340382.223
  21360557.378   -21448288.34643 -16634137.99542  21360557.086    21360553.210
  21129166.943    -5083001.55543  -3924092.90842  21129166.467    21129163.569
  23544264.569    -8673113.31143  -6711892.11842  23544264.436    23544264.290
  21820055.191   -20708808.97143 -16087160.72242  21820055.738    21820051.913
 04  5 20  3  9 30.0000000  0  6G 1G 4G16G20G27G13
  20459826.196   -25399281.70544 -19747326.53042  20459825.840    20459822.701
  24345943.046    -6933649.88043  -5367233.45442  24345943.147    24345942.528
  21363077.918   -21435042.57143 -16623816.58942  21363077.649    21363073.784
  21142387.500    -5013527.34343  -3869957.20942  21142387.005    21142384.102
  23530693.685    -8744428.38943  -6767462.20842  23530693.536    23530693.365
  21807408.095   -20775269.54143 -16138948.13242  21807408.650    21807404.852
 04  5 20  3 10  0.0000000  0  6G 1G 4G16G20G27G13
  20459022.577   -25403504.72044 -19750617.19342  20459022.232    20459019.095
  24351588.084    -6903985.52843  -5344118.44642  24351588.157    24351587.681
  21365709.992   -21421210.79343 -16613038.56242  21365709.718    21365705.867
  21155696.255    -4943589.55943  -3815460.27742  21155695.770    21155692.856
  23517154.695    -8815575.85343  -6822901.69542  23517154.506    23517154.303
  21794789.150   -20841582.23943 -16190620.31942  21794789.696    21794785.895
 04  5 20  3 10 30.0000000  0  6G 1G 4G16G20G27G13
  20458272.619   -25407445.78244 -19753688.15442  20458272.283    20458269.144
  24357319.688    -6873866.50643  -5320649.16042  24357319.692    24357319.277
  21368455.547   -21406782.63243 -16601795.82342  21368455.275    21368451.423
  21169094.885    -4873179.39543  -3760595.25042  21169094.419    21169091.507
  23503649.665    -8886544.67443  -6878201.98342  23503649.453    23503649.299
  21782200.617   -20907735.15743 -16242168.00642  21782201.148    21782197.361
 04  5 20  3 11  0.0000000  0  6G 1G 4G16G20G27G13
  20457574.877   -25411112.36044 -19756545.22742  20457574.553    20457571.413
  24363135.797    -6843302.95643  -5296833.46542  24363135.810    24363135.418
  21371312.885   -21391767.06443 -16590095.36342  21371312.611    21371308.750
  21182581.456    -4802307.21143  -3705370.20942  21182580.978    21182578.074
  23490177.146    -8957342.87743  -6933369.31542  23490176.915    23490176.815
  21769641.175   -20973735.10043 -16293596.49042  21769641.715    21769637.931
 04  5 20  3 11 30.0000000  0  6G 1G 4G16G20G27G13
  20456929.537   -25414503.63143 -19759187.77842  20456929.205    20456926.080
  24369036.169    -6812296.47943  -5272672.65442  24369036.228    24369035.816
  21374281.885   -21376164.67243 -16577937.63642  21374281.613    21374277.774
  21196155.543    -4730975.08543  -3649786.78142  21196155.064    21196152.172
  23476737.186    -9027970.10043  -6988403.41742  23476736.922    23476736.782
  21757111.035   -21039581.16843 -16344905.07442  21757111.583    21757107.799
 04  5 20  3 12  0.0000000  0  6G 1G 4G16G20G27G13
  20456337.409   -25417615.26344 -19761612.43042  20456337.077    20456333.940
  24375021.069    -6780845.85543  -5248165.76542  24375020.995    24375020.652
  21377363.132   -21359972.55143 -16565320.38242  21377362.861    21377358.998
  21209817.449    -4659181.43043  -3593843.71742  21209816.977    21209814.077
  23463330.425    -9098422.88343  -7043301.60542  23463330.187    23463329.935
  21744611.120   -21105268.53543 -16396089.99842  21744611.659    21744607.843
 04  5 20  3 12 30.0000000  0  6G 1G 4G16G20G27G13
  20455798.617   -25420446.60144 -19763818.66542  20455798.283    20455795.152
  24381090.059    -6748952.78343  -5223314.09642  24381089.963    24381089.654
  21380556.397   -21343191.64643 -16552244.33242  21380556.136    21380552.267
  21223566.782    -4586928.45343  -3537542.74142  21223566.303    21223563.426
  23449956.775    -9168701.23643  -7098063.86442  23449956.584    23449956.288
  21732141.543   -21170796.39843 -16447150.63342  21732142.072    21732138.262
 04  5 20  3 13  0.0000000  0  6G 1G 4G16G20G27G13
  20455312.875   -25422999.15844 -19765807.66742  20455312.538    20455309.408
  24387242.571    -6716621.83243  -5198121.22142  24387242.439    24387242.059
  21383861.184   -21325824.86243 -16538711.75642  21383860.893    21383857.050
  21237402.663    -4514220.70143  -3480887.40042  21237402.168    21237399.309
  23436615.894    -9238807.40243  -7152691.95142  23436615.704    23436615.388
  21719702.127   -21236165.86743 -16498087.85442  21719702.659    21719698.833
 04  5 20  3 13 30.0000000  0  6G 1G 4G16G20G27G13
  20454880.381   -25425271.92744 -19767578.65242  20454880.056    20454876.920
  24393478.014    -6683854.37143  -5172588.23242  24393477.928    24393477.578
  21387277.321   -21307872.83943 -16524723.14642  21387277.020    21387273.180
  21251324.735    -4441059.85543  -3423878.99142  21251324.255    21251321.410
  23423307.955    -9308740.87243  -7207185.47842  23423307.805    23423307.399
  21707293.147   -21301375.42543 -16548900.46942  21707293.655    21707289.825
 04  5 20  3 14  0.0000000  0  6G 1G 4G16G20G27G13
  20454501.190   -25427264.48344 -19769131.29142  20454500.859    20454497.751
  24399795.978    -6650652.98943  -5146717.11742  24399795.990    24399795.756
  21390804.620   -21289336.68943 -16510279.37442  21390804.311    21390800.496
  21265332.557    -4367448.48343  -3366519.51442  21265332.068    21265329.241
  23410032.814    -9378501.91643  -7261544.64742  23410032.631    23410032.198
  21694914.700   -21366424.60943 -16599588.11242  21694915.194    21694911.370
 04  5 20  3 14 30.0000000  0  6G 1G 4G16G20G27G13
  20454176.299   -25428971.78643 -19770461.65742  20454175.971    20454172.854
  24406197.027    -6617015.58043  -5120506.24042  24406197.130    24406196.838
  21394443.661   -21270213.25143 -16495377.97642  21394443.363    21394439.548
  21279426.516    -4293384.53943  -3308807.39942  21279426.012    21279423.158
  23396791.320    -9448086.41043  -7315766.24742  23396791.121    23396790.648
  21682567.865   -21431307.74543 -16650146.38142  21682568.347    21682564.492
 04  5 20  3 15  0.0000000  0  6G 1G 4G16G20G27G13
  20453905.238   -25430396.19344 -19771571.57742  20453904.923    20453901.791
  24412679.968    -6582947.46443  -5093959.72942  24412680.114    24412679.689
  21398193.758   -21250506.32843 -16480021.91942  21398193.452    21398189.628
  21293605.592    -4218873.17443  -3250746.63642  21293605.082    21293602.233
  23383582.795    -9517497.47943  -7369852.71542  23383582.579    23383582.045
  21670252.184   -21496026.96043 -16700576.90742  21670252.678    21670248.821
 04  5 20  3 15 30.0000000  0  6G 1G 4G16G20G27G13
  20453687.970   -25431537.84843 -19772461.16742  20453687.653    20453684.549
  24419244.405    -6548451.03543  -5067079.45742  24419244.493    24419244.154
  21402054.563   -21230217.64243 -16464212.53942  21402054.263    21402050.419
  21307869.155    -4143917.76743  -3192339.87042  21307868.656    21307865.816
  23370407.148    -9586735.78743  -7423804.55942  23370406.899    23370406.373
  21657967.802   -21560581.81043 -16750879.36142  21657968.285    21657964.422
 04  5 20  3 16  0.0000000  0  6G 1G 4G16G20G27G13
  20453525.507   -25432391.58744 -19773126.41042  20453525.185    20453522.068
  24425890.733    -6513524.22343  -5039863.85242  24425890.879    24425890.594
  21406026.739   -21209343.71843 -16447947.13442  21406026.442    21406022.585
  21322217.644    -4068516.11443  -3133585.37542  21322217.144    21322214.321
  23357265.187    -9655796.88443  -7477618.32442  23357264.916    23357264.364
  21645715.614   -21624967.34143 -16801049.88042  21645716.117    21645712.255
 04  5 20  3 16 30.0000000  0  6G 1G 4G16G20G27G13
  20453416.997   -25432961.74343 -19773570.67942  20453416.662    20453413.578
  24432617.822    -6478174.04543  -5012318.34342  24432617.849    24432617.667
  21410109.104   -21187890.69543 -16431230.48242  21410108.825    21410104.929
  21336649.695    -3992675.26143  -3074488.64942  21336649.211    21336646.383
  23344156.006    -9724685.71843  -7531297.85542  23344155.726    23344155.147
  21633495.072   -21689186.59443 -16851090.82142  21633495.581    21633491.711
 04  5 20  3 17  0.0000000  0  6G 1G 4G16G20G27G13
  20453363.271   -25433243.97743 -19773790.59542  20453362.946    20453359.859
  24439425.661    -6442399.34043  -4984442.03142  24439425.643    24439425.554
  21414302.176   -21165855.93743 -16414060.53242  21414301.894    21414297.987
  21351165.583    -3916393.99343  -3015048.75542  21351165.065    21351162.279
  23331080.292    -9793398.74543  -7584840.39542  23331079.987    23331079.486
  21621306.984   -21753235.23543 -16900998.82842  21621307.496    21621303.625
 04  5 20  3 17 30.0000000  0  6G 1G 4G16G20G27G13
  20453364.008   -25433240.03544 -19773787.50742  20453363.699    20453360.630
  24446313.342    -6406204.46043  -4956238.30842  24446313.434    24446313.242
  21418605.333   -21143242.70643 -16396439.81642  21418605.061    21418601.154
  21365764.342    -3839677.14143  -2955269.43742  21365763.823    21365761.045
  23318037.525    -9861938.48543  -7638247.90042  23318037.222    23318036.677
  21609151.088   -21817114.73343 -16950775.02742  21609151.600    21609147.721
 04  5 20  3 18  0.0000000  0  6G 1G 4G16G20G27G13
  20453419.337   -25432949.28644 -19773560.92942  20453419.002    20453415.960
  24453280.623    -6369591.84843  -4927709.07742  24453280.731    24453280.418
  21423018.300   -21120052.41143 -16378369.44142  21423018.004    21423014.104
  21380445.519    -3762527.09243  -2895152.55642  21380445.023    21380442.222
  23305027.740    -9930305.11643  -7691520.52342  23305027.420    23305026.834
  21597027.612   -21880824.01343 -17000418.59042  21597028.092    21597024.222
 04  5 20  3 18 30.0000000  0  6G 1G 4G16G20G27G13
  20453530.017   -25432367.64844 -19773107.69342  20453529.682    20453526.608
  24460327.610    -6332560.33543  -4898853.43142  24460327.694    24460327.294
  21427541.590   -21096282.44343 -16359847.37442  21427541.271    21427537.369
  21395209.398    -3684942.62543  -2834697.17842  21395208.891    21395206.086
  23292051.578    -9998494.95843  -7744655.38742  23292051.291    23292050.673
  21584937.417   -21944358.33143 -17049925.81542  21584937.882    21584934.003
 04  5 20  3 19  0.0000000  0  6G 1G 4G16G20G27G13
  20453695.615   -25431497.39444 -19772429.56342  20453695.291    20453692.197
  24467453.347    -6295114.92043  -4869675.25342  24467453.377    24467452.960
  21432174.363   -21071937.00243 -16340876.88742  21432174.037    21432170.140
  21410054.893    -3606929.20443  -2773907.54642  21410054.394    21410051.580
  23279108.401   -10066511.23143  -7797654.98742  23279108.153    23279107.549
  21572880.132   -22007719.72943 -17099298.29642  21572880.583    21572876.697
 04  5 20  3 19 30.0000000  0  6G 1G 4G16G20G27G13
  20453916.664   -25430335.76243 -19771524.37742  20453916.327    20453913.247
  24474657.693    -6257255.95943  -4840174.84042  24474657.650    24474657.378
  21436916.789   -21047015.28943 -16321457.36142  21436916.491    21436912.570
  21424981.969    -3528487.06443  -2712783.83042  21424981.477    21424978.669
  23266198.680   -10134351.86443  -7850517.74042  23266198.418    23266197.812
  21560856.343   -22070904.88043 -17148533.43842  21560856.841    21560852.919
 04  5 20  3 20  0.0000000  0  6G 1G 4G16G20G27G13
  20454193.481   -25428881.12044 -19770390.87542  20454193.146    20454190.040
  24481940.481    -6218984.48343  -4810352.98442  24481940.545    24481940.225
  21441768.890   -21021517.38543 -16301588.85542  21441768.571    21441764.644
  21439990.350    -3449617.59043  -2651327.12342  21439989.854    21439987.072
  23253322.574   -10202015.99543  -7903242.96842  23253322.313    23253321.717
  21548866.464   -22133911.88243 -17197629.75742  21548866.977    21548863.042
 04  5 20  3 20 30.0000000  0  6G 1G 4G16G20G27G13
  20454526.007   -25427133.64843 -19769029.19542  20454525.675    20454522.558
  24489301.182    -6180304.00743  -4780212.44442  24489301.215    24489301.006
  21446730.166   -20995445.58943 -16281273.15642  21446729.865    21446725.922
  21455079.424    -3370324.07043  -2589539.99442  21455078.934    21455076.170
  23240479.816   -10269504.58743  -7955831.40742  23240479.593    23240478.944
  21536910.559   -22196740.56543 -17246587.13042  21536911.069    21536907.086
 04  5 20  3 21  0.0000000  0  6G 1G 4G16G20G27G13
  20454913.869   -25425095.28044 -19767440.84642  20454913.538    20454910.450
  24496738.920    -6141219.18743  -4749756.82342  24496738.838    24496738.678
  21451799.969   -20968803.46443 -16260513.04242  21451799.670    21451795.736
  21470248.183    -3290611.78243  -2527426.56842  21470247.686    21470244.959
  23227669.950   -10336820.36443  -8008285.16542  23227669.736    23227669.107
  21524988.336   -22259392.18643 -17295406.53542  21524988.826    21524984.831
 04  5 20  3 21 30.0000000  0  6G 1G 4G16G20G27G13
  20455357.729   -25422762.62943 -19765623.18742  20455357.402    20455354.327
  24504253.531    -6101729.98143  -4718986.08142  24504253.445    24504253.278
  21456978.560   -20941589.72743 -16239307.52042  21456978.236    21456974.315
  21485496.704    -3210480.44043  -2464986.61242  21485496.187    21485493.492
  23214893.545   -10403960.66343  -8060602.19542  23214893.317    23214892.624
  21513100.509   -22321862.89243 -17344084.96342  21513101.020    21513097.004
 04  5 20  3 22  0.0000000  0  6G 1G 4G16G20G27G13
  20455857.980   -25420133.68643 -19763574.64742  20455857.650    20455854.578
  24511844.958    -6061837.04343  -4687900.75442  24511844.877    24511844.736
  21462265.939   -20913804.30843 -16217656.53242  21462265.595    21462261.678
  21500824.793    -3129930.96443  -2402220.83142  21500824.275    21500821.582
  23202150.756   -10470924.22043  -8112781.49642  23202150.516    23202149.828
  21501247.551   -22384150.32443 -17392620.58142  21501248.105    21501244.054
 04  5 20  3 22 30.0000000  0  6G 1G 4G16G20G27G13
  20456414.516   -25417208.99743 -19761295.65642  20456414.162    20456411.115
  24519512.528    -6021544.13143  -4656503.76942  24519512.408    24519512.277
  21467661.592   -20885449.65243 -16195561.97842  21467661.295    21467657.361
  21516231.738    -3048967.07643  -2339132.12942  21516231.225    21516228.544
  23189441.283   -10537712.37143  -8164824.12242  23189441.065    23189440.405
  21489429.460   -22446254.73943 -17441013.58842  21489429.999    21489425.925
 04  5 20  3 23  0.0000000  0  6G 1G 4G16G20G27G13
  20457027.999   -25413985.12443 -19758783.53142  20457027.628    20457024.597
  24527256.213    -5980850.88443  -4624794.81642  24527256.087    24527256.080
  21473165.884   -20856524.29843 -16173022.73042  21473165.559    21473161.646
  21531717.568    -2967588.61243  -2275720.37642  21531717.056    21531714.362
  23176765.742   -10604322.42843  -8216727.98042  23176765.547    23176764.809
  21477647.022   -22508171.63743 -17489260.47942  21477647.568    21477643.490
 04  5 20  3 23 30.0000000  0  6G 1G 4G16G20G27G13
  20457697.265   -25410467.45144 -19756042.47042  20457697.009    20457693.969
  24535074.495    -5939765.47543  -4592780.28742  24535074.473    24535074.534
  21478777.386   -20827035.52643 -16150044.44842  21478777.068    21478773.181
  21547280.733    -2885803.85743  -2211992.03242  21547280.207    21547277.534
  23164122.942   -10670760.29443  -8268497.64542  23164122.746    23164122.032
  21465899.268   -22569906.17343 -17537365.26642  21465899.837    21465895.759
 04  5 20  3 24  0.0000000  0  6G 1G 4G16G20G27G13
  20458423.697   -25406649.86543 -19753067.71342  20458423.471    20458420.417
  24542967.954    -5898284.87743  -4560457.82442  24542968.044    24542968.091
  21484496.931   -20796979.24443 -16126623.95742  21484496.601    21484492.704
  21562921.757    -2803609.87043  -2147944.80542  21562921.228    21562918.591
  23151513.937   -10737020.87943  -8320129.18242  23151513.704    23151512.936
  21454187.460   -22631451.82343 -17585322.87342  21454188.057    21454183.977
 04  5 20  3 24 30.0000000  0  6G 1G 4G16G20G27G13
  20459206.920   -25402534.12743 -19749860.62742  20459206.667    20459203.612
  24550935.631    -5856414.05943  -4527831.27342  24550935.762    24550935.950
  21490323.728   -20766359.30343 -16102764.25142  21490323.392    21490319.469
  21578639.691    -2721011.73343  -2083582.66442  21578639.172    21578636.543
  23138938.145   -10803106.67143  -8371624.51342  23138937.904    23138937.144
  21442511.434   -22692809.56343 -17633134.05442  21442512.029    21442507.942
 04  5 20  3 25  0.0000000  0  6G 1G 4G16G20G27G13
  20460046.929   -25398119.89843 -19746420.95942  20460046.653    20460043.591
  24558977.230    -5814155.36043  -4494902.49642  24558977.307    24558977.579
  21496257.456   -20735177.30743 -16078466.58342  21496257.150    21496253.200
  21594433.988    -2638012.25043  -2018907.79842  21594433.466    21594430.865
  23126395.609   -10869017.87643  -8422983.81142  23126395.370    23126394.583
  21430871.272   -22753978.89043 -17680798.42642  21430871.850    21430867.779
 04  5 20  3 25 30.0000000  0  6G 1G 4G16G20G27G13
  20460944.371   -25393403.96643 -19742746.19742  20460944.073    20460940.971
  24567092.561    -5771509.17843  -4461671.77942  24567092.632    24567092.981
  21502298.327   -20703432.23043 -16053730.14642  21502298.033    21502294.070
  21610304.624    -2554611.54643  -1953920.28042  21610304.102    21610301.520
  23113886.687   -10934752.37543  -8474205.41042  23113886.429    23113885.650
  21419267.694   -22814955.94143 -17728312.97142  21419268.273    21419264.206
 04  5 20  3 26  0.0000000  0  6G 1G 4G16G20G27G13
  20461899.426   -25388385.06343 -19738835.36042  20461899.106    20461896.023
  24575281.433    -5728477.27543  -4428140.48742  24575281.386    24575281.689
  21508446.209   -20671124.87443 -16028555.56942  21508445.917    21508441.945
  21626251.315    -2470811.38943  -1888621.51142  21626250.765    21626248.182
  23101411.486   -11000309.56143  -8525288.85042  23101411.238    23101410.444
  21407701.075   -22875738.79743 -17775676.19842  21407701.622    21407697.574
 04  5 20  3 26 30.0000000  0  6G 1G 4G16G20G27G13
  20462911.785   -25383065.00143 -19734689.84642  20462911.455    20462908.382
  24583542.702    -5685064.61443  -4394312.49342  24583542.745    24583542.923
  21514700.294   -20638259.30343 -16002946.02042  21514700.004    21514696.044
  21642273.020    -2386616.99143  -1823015.53542  21642272.455    21642269.867
  23088969.542   -11065692.02243  -8576236.11542  23088969.302    23088968.516
  21396171.128   -22936328.88643 -17822889.20942  21396171.685    21396167.615
 04  5 20  3 27  0.0000000  0  6G 1G 4G16G20G27G13
  20463981.587   -25377443.21044 -19730309.22042  20463981.232    20463978.176
  24591876.049    -5641273.43443  -4360189.57042  24591875.995    24591876.266
  21521060.349   -20604836.86443 -15976902.55142  21521060.067    21521056.107
  21658369.285    -2302030.71543  -1757104.19842  21658368.715    21658366.165
  23076560.784   -11130899.89743  -8627047.35142  23076560.565    23076559.776
  21384678.114   -22996725.00043 -17869951.07942  21384678.647    21384674.584
 04  5 20  3 27 30.0000000  0  6G 1G 4G16G20G27G13
  20465109.465   -25371516.13343 -19725690.70142  20465109.130    20465106.038
  24600281.342    -5597103.45843  -4325771.47942  24600281.300    24600281.645
  21527526.580   -20570856.50243 -15950424.34442  21527526.260    21527522.341
  21674540.143    -2217052.40143  -1690887.36242  21674539.571    21674537.058
  23064185.814   -11195930.60143  -8677720.54142  23064185.574    23064184.784
  21373222.747   -23056923.27543 -17916858.78542  21373223.278    21373219.186
 04  5 20  3 28  0.0000000  0  6G 1G 4G16G20G27G13
  20466295.920   -25365281.24244 -19720832.33442  20466295.578    20466292.473
  24608758.684    -5552555.26343  -4291058.66642  24608758.628    24608758.961
  21534099.159   -20536317.30143 -15923510.66642  21534098.830    21534094.933
  21690785.497    -2131682.61343  -1624365.49042  21690784.933    21690782.429
  23051844.873   -11260782.28243  -8728254.23442  23051844.686    23051843.828
  21361805.687   -23116920.28943 -17963609.66842  21361806.196    21361802.108
 04  5 20  3 28 30.0000000  0  6G 1G 4G16G20G27G13
  20467539.822   -25358744.44644 -19715738.71142  20467539.496    20467536.365
  24617306.221    -5507637.88143  -4256058.18342  24617306.134    24617306.451
  21540776.452   -20501227.73643 -15896168.13442  21540776.140    21540772.240
  21707103.607    -2045930.51843  -1557545.72842  21707103.033    21707100.548
  23039536.762   -11325461.54543  -8778653.58142  23039536.572    23039535.707
  21350425.975   -23176720.83343 -18010207.45642  21350426.497    21350422.408
 04  5 20  3 29  0.0000000  0  6G 1G 4G16G20G27G13
  20468841.916   -25351901.89543 -19710406.84642  20468841.577    20468838.436
  24625924.147    -5462350.74943  -4220769.59742  24625924.050    24625924.338
  21547558.827   -20465586.06843 -15868395.39542  21547558.489    21547554.633
  21723494.536    -1959795.64543  -1490427.68942  21723493.985    21723491.486
  23027262.054   -11389965.48943  -8828916.30342  23027261.788    23027260.977
  21339084.399   -23236321.13043 -18056649.21242  21339084.916    21339080.806
 04  5 20  3 29 30.0000000  0  6G 1G 4G16G20G27G13
  20470202.914   -25344749.81343 -19704833.78442  20470202.572    20470199.426
  24634612.470    -5416693.30443  -4185192.44742  24634612.383    24634612.715
  21554446.519   -20429390.83143 -15840191.30442  21554446.180    21554442.346
  21739958.447    -1873277.47243  -1423010.97642  21739957.872    21739955.399
  23015021.203   -11454291.07943  -8879040.05042  23015020.946    23015020.116
  21327781.671   -23295717.16043 -18102931.79742  21327782.189    21327778.089
 04  5 20  3 30  0.0000000  0  7G 1G 4G16G20G27G 3G13
  20471619.453   -25337305.78544 -19699033.23342  20471619.105    20471615.970
  24643367.344    -5370686.22043  -4149342.86242  24643367.301    24643367.631
  21561435.816   -20392661.90243 -15811571.34942  21561435.456    21561431.632
  21756491.322    -1786396.72343  -1355311.73242  21756490.761    21756488.305
  23002810.764   -11518456.74543  -8929039.16142  23002810.544    23002809.678
  24577022.454    -5403601.80153  -4171287.24152  24577022.165    24577023.133
  21316514.690   -23354925.43843 -18149068.08342  21316515.208    21316511.114
 04  5 20  3 30 30.0000000  0  7G 1G 4G16G20G27G 3G13
  20473096.659   -25329543.04644 -19692984.33842  20473096.286    20473093.159
  24652193.310    -5324306.04343  -4113202.54242  24652193.216    24652193.482
  21568531.316   -20355374.71543 -15782516.38442  21568530.947    21568527.130
  21773097.612    -1699130.09343  -1287311.79042  21773097.076    21773094.622
  22990635.731   -11582436.51643  -8978893.42242  22990635.528    22990634.660
  24562382.705    -5480533.82943  -4231234.14642  24562382.504    24562383.246
  21305288.617   -23413918.65343 -18195036.78842  21305289.136    21305285.040
 04  5 20  3 31  0.0000000  0  7G 1G 4G16G20G27G 3G13
  20474633.902   -25321464.72743 -19686689.53642  20474633.522    20474630.401
  24661089.035    -5277559.08743  -4076776.43042  24661088.825    24661089.231
  21575732.010   -20317534.62043 -15753030.58542  21575731.664    21575727.842
  21789776.180    -1611483.89843  -1219016.08642  21789775.631    21789773.177
  22978495.327   -11646234.32143  -9028605.90742  22978495.153    22978494.212
  24547764.503    -5557352.41043  -4291092.64342  24547764.341    24547765.063
  21294102.998   -23472699.31443 -18240839.86542  21294103.502    21294099.405
 04  5 20  3 31 30.0000000  0  7G 1G 4G16G20G27G 3G13
  20476229.973   -25313077.21943 -19680153.80842  20476229.613    20476226.495
  24670052.724    -5230454.87043  -4040071.92942  24670052.474    24670052.993
  21583036.311   -20279150.28643 -15723120.69642  21583035.948    21583032.130
  21806525.128    -1523467.89843  -1150432.21842  21806524.573    21806522.071
  22966388.255   -11709857.15143  -9078182.04742  22966388.090    22966387.065
  24533167.036    -5634061.74143  -4350866.00242  24533166.817    24533167.718
  21282956.672   -23531273.43043 -18286482.00042  21282957.176    21282953.089
 04  5 20  3 32  0.0000000  0  7G 1G 4G16G20G27G 3G13
  20477885.544   -25304377.18344 -19673374.55642  20477885.170    20477882.041
  24679084.373    -5182993.21543  -4003088.91142  24679084.163    24679084.699
  21590444.310   -20240220.81143 -15692786.02342  21590443.954    21590440.124
  21823344.424    -1435082.03843  -1081560.13742  21823343.889    21823341.375
  22954314.910   -11773302.75743  -9127620.07742  22954314.737    22954313.726
  24518591.426    -5710656.45743  -4410550.05242  24518591.218    24518591.989
  21271850.454   -23589636.84943 -18331959.95542  21271850.948    21271846.863
 04  5 20  3 32 30.0000000  0  7G 1G 4G16G20G27G 3G13
  20479600.090   -25295367.12843 -19666353.73042  20479599.723    20479596.595
  24688182.873    -5135179.95043  -3965831.90842  24688182.746    24688183.334
  21597955.167   -20200750.94043 -15662030.26842  21597954.794    21597950.961
  21840232.986    -1346332.18243  -1012404.44042  21840232.438    21840229.929
  22942274.645   -11836574.32143  -9176922.48442  22942274.493    22942273.449
  24504037.628    -5787136.51243  -4470144.75642  24504037.615    24504038.322
  21260783.991   -23647791.29243 -18377275.07142  21260784.480    21260780.387
 04  5 20  3 33  0.0000000  0  7G 1G 4G16G20G27G 3G13
  20481374.226   -25286043.97444 -19659088.92542  20481373.856    20481370.719
  24697348.390    -5087015.44643  -3928301.20042  24697348.230    24697348.718
  21605568.978   -20160739.95243 -15630852.86342  21605568.634    21605564.770
  21857190.805    -1257218.49543   -942965.25542  21857190.252    21857187.727
  22930267.921   -11899669.51743  -9226087.48042  22930267.819    22930266.724
  24489506.606    -5863496.89543  -4529646.21642  24489506.576    24489507.187
  21249757.967   -23705733.27843 -18422424.63442  21249758.436    21249754.343
 04  5 20  3 33 30.0000000  0  7G 1G 4G16G20G27G 3G13
  20483208.707   -25276403.62444 -19651576.95442  20483208.324    20483205.194
  24706580.957    -5038498.53243  -3890495.90542  24706580.766    24706581.231
  21613286.106   -20120186.13643 -15599252.46742  21613285.737    21613281.876
  21874218.005    -1167740.23943   -873241.98042  21874217.423    21874214.887
  22918295.370   -11962585.21643  -9275112.59542  22918295.226    22918294.153
  24474999.520    -5939731.06243  -4589049.31242  24474999.471    24475000.231
  21238773.251   -23763458.00143 -18467404.89842  21238773.735    21238769.634
 04  5 20  3 34  0.0000000  0  7G 1G 4G16G20G27G 3G13
  20485101.938   -25266454.47444 -19643824.36342  20485101.549    20485098.440
  24715878.348    -4989641.04843  -3852425.23042  24715878.192    24715878.524
  21621104.451   -20079100.34043 -15567237.54842  21621104.090    21621100.210
  21891312.293    -1077909.28143   -803243.88142  21891311.711    21891309.165
  22906355.232   -12025330.59143  -9324004.99242  22906355.028    22906353.989
  24460515.375    -6015845.10443  -4648358.80442  24460515.451    24460516.117
  21227828.497   -23820972.90843 -18512221.67542  21227828.965    21227824.879
 04  5 20  3 34 30.0000000  0  7G 1G 4G16G20G27G 3G13
  20487056.341   -25256183.93244 -19635821.34142  20487055.952    20487052.846
  24725242.187    -4940433.60843  -3814081.83642  24725242.136    24725242.451
  21629025.989   -20037472.36143 -15534800.14942  21629025.598    21629021.699
  21908475.458     -987716.32343   -732963.69942  21908474.874    21908472.371
  22894449.694   -12087893.77043  -9372755.40242  22894449.504    22894448.447
  24446056.765    -6091824.19843  -4707563.13342  24446056.986    24446057.487
  21216926.087   -23878265.11243 -18556864.91642  21216926.556    21216922.498
 04  5 20  3 35  0.0000000  0  7G 1G 4G16G20G27G 3G13
  20489070.040   -25245601.92344 -19627575.62042  20489069.638    20489066.525
  24734670.136    -4890889.62243  -3775476.23042  24734670.045    24734670.420
  21637048.335   -19995314.59943 -15501949.93242  21637047.961    21637044.018
  21925704.982     -897174.57743   -662411.72642  21925704.396    21925701.936
  22882576.850   -12150285.61043  -9421372.30442  22882576.624    22882575.580
  24431622.505    -6167676.09743  -4766668.36242  24431622.582    24431623.220
  21206064.313   -23935343.94843 -18601341.90142  21206064.782    21206060.713
 04  5 20  3 35 30.0000000  0  7G 1G 4G16G20G27G 3G13
  20491144.447   -25234700.81844 -19619081.25042  20491144.035    20491140.905
  24744163.111    -4841004.35743  -3736604.67142  24744163.008    24744163.401
  21645172.577   -19952621.45243 -15468682.53542  21645172.170    21645168.234
  21943001.756     -806279.62243   -591584.53542  21943001.167    21942998.727
  22870737.918   -12212499.05043  -9469850.19742  22870737.721    22870736.619
  24417214.429    -6243390.90943  -4825666.77842  24417214.452    24417215.203
  21195244.771   -23992200.94043 -18645646.02142  21195245.205    21195241.134
 04  5 20  3 36  0.0000000  0  7G 1G 4G16G20G27G 3G13
  20493278.349   -25223486.89044 -19610343.11242  20493277.961    20493274.796
  24753719.184    -4790787.55043  -3697474.76442  24753719.051    24753719.411
  21653396.908   -19909402.02643 -15435005.04342  21653396.563    21653392.618
  21960363.870     -715041.06143   -520489.58542  21960363.282    21960360.933
  22858931.496   -12274541.52343  -9518194.87042  22858931.332    22858930.212
  24402831.698    -6318972.55743  -4884561.42742  24402831.676    24402832.380
  21184466.338   -24048841.60043 -18689781.56642  21184466.800    21184462.724
 04  5 20  3 36 30.0000000  0  7G 1G 4G16G20G27G 3G13
  20495473.770   -25211949.84744 -19601353.21142  20495473.376    20495470.187
  24763339.558    -4740231.99243  -3658080.88542  24763339.416    24763340.040
  21661722.972   -19865648.12443 -15400911.09042  21661722.630    21661718.666
  21977792.675     -623452.01343   -449121.52942  21977792.069    21977789.822
  22847159.574   -12336403.12843  -9566398.59542  22847159.347    22847158.176
  24388476.674    -6394408.19743  -4943342.29742  24388476.530    24388477.257
  21173731.256   -24105254.67643 -18733739.77842  21173731.710    21173727.619
 04  5 20  3 37  0.0000000  0  7G 1G 4G16G20G27G 3G13
  20497729.244   -25200097.22744 -19592117.40042  20497728.862    20497725.656
  24773022.315    -4689348.75643  -3618431.70042  24773022.254    24773022.864
  21670148.804   -19821369.89843 -15366408.56342  21670148.466    21670144.548
  21995286.131     -531523.34943   -377488.83542  21995285.505    21995283.350
  22835420.400   -12398092.27543  -9614467.93142  22835420.169    22835419.000
  24374148.325    -6469703.13143  -5002013.53442  24374148.330    24374148.918
  21163038.158   -24161447.17743 -18777526.10942  21163038.602    21163034.521
 04  5 20  3 37 30.0000000  0  7G 1G 4G16G20G27G 3G13
  20500045.844   -25187923.24744 -19582631.17742  20500045.469    20500042.278
  24782767.987    -4638135.25243  -3578525.13842  24782767.959    24782768.453
  21678675.008   -19776564.18643 -15331495.01042  21678674.668    21678670.792
  22012844.653     -439252.85343   -305589.78442  22012843.975    22012841.908
  22823714.976   -12459604.36843  -9662399.32142  22823714.706    22823713.483
  24359848.355    -6544849.43243  -5060568.95142  24359848.373    24359848.850
  21152388.231   -24217412.86443 -18821135.71542  21152388.670    21152384.585
 04  5 20  3 38  0.0000000  0  7G 1G 4G16G20G27G 3G13
  20502423.593   -25175428.12944 -19572894.71342  20502423.193    20502420.017
  24792575.733    -4586595.13443  -3538364.06242  24792575.821    24792576.209
  21687301.131   -19731233.63843 -15296172.49342  21687300.745    21687296.874
  22030467.501     -346643.99643   -233427.07142  22030466.847    22030464.828
  22812043.089   -12520940.12343  -9710193.29642  22812042.820    22812041.566
  24345577.010    -6619845.16043  -5119007.04542  24345576.921    24345577.523
  21141781.533   -24273151.26343 -18864568.20642  21141781.995    21141777.887
 04  5 20  3 38 30.0000000  0  7G 1G 4G16G20G27G 3G13
  20504862.078   -25162613.71044 -19562909.44842  20504861.685    20504858.526
  24802444.733    -4534733.69343  -3497952.63542  24802444.634    24802445.178
  21696026.263   -19685382.68843 -15260444.47242  21696025.884    21696021.992
  22048153.772     -253701.97143   -161004.76042  22048153.135    22048151.160
  22800404.193   -12582102.49043  -9757852.17542  22800403.921    22800402.659
  24331334.366    -6694689.94443  -5177327.51442  24331334.331    24331334.736
  21131217.931   -24328663.28643 -18907824.31242  21131218.380    21131214.246
 04  5 20  3 39  0.0000000  0  7G 1G 4G16G20G27G 3G13
  20507362.377   -25149474.39844 -19552671.01542  20507362.005    20507358.855
  24812375.199    -4482548.45143  -3457288.89042  24812375.193    24812375.925
  21704851.058   -19639008.12343 -15224308.42942  21704850.648    21704846.757
  22065903.918     -160424.41943    -88320.99242  22065903.296    22065901.329
  22788799.290   -12643086.42643  -9805371.99942  22788799.001    22788797.687
  24317121.962    -6769375.74643  -5235524.10942  24317121.879    24317122.481
  21120698.638   -24383942.29343 -18950898.84042  21120699.091    21120694.980
 04  5 20  3 39 30.0000000  0  7G 1G 4G16G20G27G 3G13
  20509923.752   -25136014.16344 -19542182.51742  20509923.349    20509920.244
  24822365.996    -4430046.46143  -3416378.32842  24822365.858    24822366.739
  21713774.278   -19592116.42643 -15187769.42642  21713773.852    21713769.903
  22083716.467      -66818.94843    -15381.70642  22083715.871    22083713.875
  22777227.431   -12703896.67543  -9852756.49242  22777227.135    22777225.790
  24302939.539    -6843904.02743  -5293597.94342  24302939.491    24302940.097
  21110223.067   -24438991.59243 -18993794.38042  21110223.503    21110219.402
 04  5 20  3 40  0.0000000  0  7G 1G 4G16G20G27G 3G13
  20512546.688   -25122230.53943 -19531442.02142  20512546.268    20512543.177
  24832416.950    -4377228.89743  -3375221.84442  24832416.751    24832417.599
  21722795.879   -19544707.60443 -15150827.46942  21722795.465    21722791.482
  22101591.324       27113.81243     57812.61942  22101590.732    22101588.701
  22765688.893   -12764531.57743  -9900004.34642  22765688.610    22765687.229
  24288788.073    -6918269.80543  -5351545.15542  24288787.996    24288788.662
  21099791.792   -24493808.15643 -19036508.56242  21099792.220    21099788.114
 04  5 20  3 40 30.0000000  0  7G 1G 4G16G20G27G 3G13
  20515231.369   -25108122.48144 -19520448.72142  20515230.945    20515227.863
  24842527.556    -4324097.87643  -3333821.10442  24842527.368    24842528.110
  21731915.550   -19496783.36843 -15113483.89542  21731915.134    21731911.143
  22119527.962      121371.29043    131259.97442  22119527.391    22119525.333
  22754183.769   -12824991.06043  -9947115.53542  22754183.463    22754182.066
  24274668.156    -6992469.92043  -5409363.26842  24274668.041    24274668.803
  21089405.183   -24548390.16743 -19079039.98142  21089405.599    21089401.473
 04  5 20  3 41  0.0000000  0  7G 1G 4G16G20G27G 3G13
  20517977.438   -25093691.80243 -19509204.02742  20517976.987    20517973.933
  24852696.756    -4270658.88343  -3292180.40142  24852696.530    24852697.275
  21741132.439   -19448348.00943 -15075742.03942  21741132.032    21741128.045
  22137525.470      215948.40943    204956.39242  22137524.897    22137522.756
  22742711.513   -12885277.78143  -9994092.10142  22742711.220    22742709.750
  24260579.866    -7066503.91743  -5467051.94542  24260579.761    24260580.533
  21079062.983   -24602738.76543 -19121389.52142  21079063.378    21079059.254
 04  5 20  3 41 30.0000000  0  7G 1G 4G16G20G27G 3G13
  20520786.079   -25078932.12244 -19497702.96942  20520785.646    20520782.578
  24862925.150    -4216908.66243  -3250297.17242  24862925.019    24862925.711
  21750447.318   -19399397.69943 -15037598.92842  21750446.926    21750442.919
  22155584.366      310848.36443    278904.35842  22155583.819    22155581.623
  22731273.187   -12945385.84943 -10040929.44242  22731272.928    22731271.439
  24246524.822    -7140362.92943  -5524604.25942  24246524.653    24246525.559
  21068766.616   -24656846.51443 -19163551.38042  21068766.999    21068762.868
 04  5 20  3 42  0.0000000  0  7G 1G 4G16G20G27G 3G13
  20523656.813   -25063846.25444 -19485947.74042  20523656.379    20523653.330
  24873211.686    -4162853.16743  -3208176.08942  24873211.568    24873212.269
  21759859.196   -19349937.72343 -14999058.67242  21759858.818    21759854.807
  22173703.450      406064.60943    353098.79242  22173702.879    22173700.709
  22719868.165   -13005319.05843 -10087630.53442  22719867.912    22719866.404
  24232502.863    -7214047.55043  -5582020.67242  24232502.731    24232503.659
  21058515.671   -24710715.44243 -19205527.14642  21058516.061    21058511.923
 04  5 20  3 42 30.0000000  0  7G 1G 4G16G20G27G 3G13
  20526589.465   -25048434.98044 -19473938.94442  20526589.056    20526585.996
  24883555.407    -4108496.92143  -3165820.63142  24883555.263    24883556.042
  21769367.417   -19299971.70643 -14960124.09642  21769367.012    21769362.976
  22191881.929      501592.99843    427536.46742  22191881.353    22191879.186
  22708496.158   -13065079.09143 -10134196.69342  22708495.891    22708494.327
  24218514.516    -7287556.26143  -5639300.03842  24218514.443    24218515.216
  21048310.132   -24764345.77843 -19247316.99742  21048310.520    21048306.393
 04  5 20  3 43  0.0000000  0  7G 1G 4G16G20G27G 3G13
  20529584.436   -25032696.29044 -19461675.01842  20529584.023    20529580.956
  24893956.043    -4053841.07943  -3123231.74442  24893955.974    24893956.856
  21778971.811   -19249500.28343 -14920795.70142  21778971.387    21778967.330
  22210119.585      597432.32443    502216.42142  22210118.996    22210116.840
  22697157.287   -13124664.68343 -10180626.92942  22697157.047    22697155.460
  24204560.550    -7360884.61943  -5696438.83242  24204560.416    24204561.060
  21038150.559   -24817734.49043 -19288918.56742  21038150.945    21038146.816
 04  5 20  3 43 30.0000000  0  7G 1G 4G16G20G27G 3G13
  20532641.920   -25016628.97444 -19449155.02742  20532641.534    20532638.450
  24904413.311    -3998887.81843  -3080411.09042  24904413.100    24904414.117
  21788672.133   -19198524.57943 -14881074.36142  21788671.704    21788667.659
  22228415.917      693580.27743    577136.86642  22228415.321    22228413.215
  22685851.757   -13184075.33343 -10226920.87442  22685851.455    22685849.884
  24190641.598    -7434029.07743  -5753434.35642  24190641.499    24190641.940
  21028037.366   -24870879.64043 -19330330.34742  21028037.738    21028033.615
 04  5 20  3 44  0.0000000  0  7G 1G 4G16G20G27G 3G13
  20535762.009   -25000232.77244 -19436378.76442  20535761.616    20535758.518
  24914926.508    -3943640.33243  -3037361.16242  24914926.408    24914927.342
  21798467.984   -19147047.05343 -14840961.99742  21798467.532    21798463.469
  22246770.404      790033.66743    652295.30642  22246769.786    22246767.698
  22674579.458   -13243311.57743 -10273078.90842  22674579.132    22674577.525
  24176758.060    -7506987.09343  -5810284.59742  24176757.942    24176758.307
  21017970.761   -24923780.07543 -19371551.43842  21017971.094    21017966.967
 04  5 20  3 44 30.0000000  0  6G 1G16G20G27G 3G13
  20538948.475   -24983487.77543 -19423330.71242  20538948.067    20538944.972
  21808362.579   -19095050.64243 -14800445.30342  21808362.136    21808358.023
  22265186.141      886808.94943    727704.56642  22265185.514    22265183.446
  22663343.871   -13302354.44243 -10319086.26142  22663343.566    22663341.941
  24162914.369    -7579736.20043  -5866972.06142  24162914.261    24162914.537
  21007954.656   -24976414.78843 -19412565.46342  21007955.031    21007950.902
 04  5 20  3 45  0.0000000  0  6G 1G16G20G27G 3G13
  20542193.999   -24966432.32544 -19410040.75142  20542193.574    20542190.496
  21818348.118   -19042576.23943 -14759556.14242  21818347.697    21818343.549
  22283655.298      983864.52043    803332.21942  22283654.589    22283652.497
  22652137.667   -13361242.82343 -10364973.21642  22652137.371    22652135.761
  24149103.519    -7652312.54543  -5923524.91642  24149103.469    24149103.490
  20997981.894   -25028821.74743 -19453402.02342  20997982.280    20997978.146
 04  5 20  3 45 30.0000000  0  6G 1G16G20G27G 3G13
  20545503.138   -24949042.71043 -19396490.40142  20545502.685    20545499.617
  21828428.607   -18989602.66443 -14718278.01642  21828428.198    21828424.093
  22302181.664     1081220.93643    879194.31342  22302180.902    22302178.826
  22640965.266   -13419953.90843 -10410722.04242  22640964.987    22640963.316
  24135330.471    -7724689.79443  -5979922.63342  24135330.412    24135330.393
  20988057.233   -25080976.16743 -19494041.80142  20988057.615    20988053.442
 04  5 20  3 46  0.0000000  0  6G 1G16G20G27G 3G13
  20548875.727   -24931319.53443 -19382680.13242  20548875.285    20548872.198
  21838603.502   -18936133.18443 -14676613.47642  21838603.078    21838599.012
  22320764.437     1178874.09343    955287.63942  22320763.704    22320761.647
  22629826.318   -13478489.06043 -10456333.77942  22629826.045    22629824.354
  24121595.696    -7796866.16343  -6036163.81642  24121595.585    24121595.439
  20978180.685   -25132877.67243 -19534484.50642  20978181.090    20978176.862
 04  5 20  3 46 30.0000000  0  6G 1G16G20G27G 3G13
  20552310.710   -24913268.54143 -19368614.42442  20552310.242    20552307.168
  21848871.176   -18882176.21443 -14634569.07042  21848870.752    21848866.680
  22339402.013     1276814.89543   1031605.11042  22339401.214    22339399.222
  22618719.683   -13536854.69843 -10501813.42242  22618719.400    22618717.673
  24107898.406    -7868845.16243  -6092251.20942  24107898.334    24107898.068
  20968351.393   -25184530.95743 -19574733.79442  20968351.793    20968347.530
 04  5 20  3 47  0.0000000  0  6G 1G16G20G27G 3G13
  20555809.175   -24894883.91743 -19354288.74242  20555808.697    20555805.624
  21859232.199   -18827728.73843 -14592142.45242  21859231.768    21859227.687
  22358094.722     1375045.67243   1108148.54242  22358093.946    22358091.977
  22607646.231   -13595045.87243 -10547157.11142  22607645.950    22607644.207
  24094240.243    -7940618.49543  -6148178.34842  24094240.206    24094240.020
  20958570.599   -25235929.31943 -19614784.44042  20958571.002    20958566.707
 04  5 20  3 47 30.0000000  0  6G 1G16G20G27G 3G13
  20559371.533   -24876163.47844 -19339701.37742  20559371.082    20559367.993
  21869686.440   -18772791.26043 -14549334.01942  21869686.007    21869681.945
  22376842.372     1473565.11543   1184916.90642  22376841.592    22376839.621
  22596606.248   -13653061.11343 -10592363.72042  22596605.955    22596604.174
  24080622.050    -8012181.85543  -6203941.86942  24080622.080    24080621.870
  20948838.788   -25287070.18543 -19654634.44142  20948839.208    20948834.908
 04  5 20  3 48  0.0000000  0  6G 1G16G20G27G 3G13
  20562997.722   -24857107.68743 -19324852.70742  20562997.249    20562994.172
  21880233.325   -18717366.87943 -14506146.17842  21880232.908    21880228.853
  22395644.200     1572369.27343   1261907.11742  22395643.411    22395641.452
  22585599.468   -13710901.90443 -10637434.40242  22585599.151    22585597.315
  24067044.227    -8083533.26743  -6259540.24442  24067044.171    24067044.044
  20939156.081   -25337953.01743 -19694283.38042  20939156.503    20939152.216
 04  5 20  3 48 30.0000000  0  6G 1G16G20G27G 3G13
  20566687.308   -24837718.89044 -19309744.55542  20566686.826    20566683.721
  21890871.934   -18661460.61443 -14462582.83942  21890871.503    21890867.469
  22414499.109     1671452.52643   1339114.80042  22414498.326    22414496.396
  22574625.309   -13768571.26143 -10682371.49642  22574624.989    22574623.066
  24053506.779    -8154672.75543  -6314973.49142  24053506.671    24053506.496
  20929522.239   -25388578.98543 -19733732.15342  20929522.658    20929518.414
 04  5 20  3 49  0.0000000  0  6G 1G16G20G27G 3G13
  20570441.180   -24817992.29543 -19294373.19442  20570440.690    20570437.576
  21901602.587   -18605070.76043 -14418642.68142  21901602.146    21901598.085
  22433407.384     1770816.18843   1416540.97742  22433406.595    22433404.698
  22563684.523   -13826065.21943 -10727171.90942  22563684.176    22563682.241
  24040011.059    -8225593.11443  -6370235.99042  24040010.977    24040010.619
  20919938.353   -25438942.40843 -19772976.34342  20919938.780    20919934.541
 04  5 20  3 49 30.0000000  0  6G 1G16G20G27G 3G13
  20574258.950   -24797929.71144 -19278740.01342  20574258.470    20574255.333
  21912424.499   -18548201.37143 -14374328.85942  21912424.077    21912419.947
  22452368.074     1870455.13843   1494181.66142  22452367.283    22452365.399
  22552776.645   -13883386.15643 -10771837.51542  22552776.295    22552774.361
  24026557.110    -8296293.29143  -6425326.90142  24026556.984    24026556.684
  20910404.297   -25489044.21543 -19812016.68542  20910404.704    20910400.444
 04  5 20  3 50  0.0000000  0  6G 1G16G20G27G 3G13
  20578140.377   -24777532.61344 -19262846.17242  20578139.892    20578136.740
  21923336.772   -18490857.04243 -14329644.96042  21923336.342    21923332.195
  22471380.211     1970364.41543   1572032.98742  22471379.403    22471377.571
  22541901.228   -13940536.39343 -10816370.09842  22541900.899    22541898.946
  24013145.163    -8366772.75043  -6480245.84442  24013145.007    24013144.711
  20900919.879   -25538885.06243 -19850853.67842  20900920.296    20900916.024
 04  5 20  3 50 30.0000000  0  6G 1G16G20G27G 3G13
  20582086.553   -24756795.22343 -19246687.15742  20582086.088    20582082.948
  21934340.040   -18433034.47843 -14284588.40642  21934339.589    21934335.434
  22490444.261     2070546.55543   1650096.93242  22490443.477    22490441.630
  22531059.314   -13997510.90443 -10860765.75542  22531058.935    22531057.025
  23999776.839    -8437023.14743  -6534986.29742  23999776.742    23999776.273
  20891486.409   -25588458.03743 -19889481.94442  20891486.827    20891482.546
 04  5 20  3 51  0.0000000  0  6G 1G16G20G27G 3G13
  20586096.813   -24735721.08843 -19230265.75042  20586096.352    20586093.228
  21945433.094   -18374740.00943 -14239164.14142  21945432.652    21945428.483
  22509558.926     2170994.59343   1728368.07042  22509558.156    22509556.299
  22520249.992   -14054313.98143 -10905027.82142  22520249.626    22520247.678
  23986451.977    -8507045.66343  -6589549.20142  23986451.949    23986451.158
  20882103.516   -25637765.63243 -19927903.42542  20882103.884    20882099.572
 04  5 20  3 51 30.0000000  0  6G 1G16G20G27G 3G13
  20590172.061   -24714305.48544 -19213578.26242  20590171.612    20590168.483
  21956616.306   -18315971.79643 -14193370.72242  21956615.854    21956611.695
  22528724.463     2271709.81943   1806847.41542  22528723.674    22528721.816
  22509474.012   -14110941.71643 -10949153.26642  22509473.667    22509471.703
  23973171.795    -8576833.16243  -6643928.96042  23973171.747    23973170.884
  20872772.105   -25686802.50043 -19966113.94642  20872772.473    20872768.123
 04  5 20  3 52  0.0000000  0  6G 1G16G20G27G 3G13
  20594311.345   -24692553.45943 -19196628.63142  20594310.891    20594307.741
  21967888.221   -18256737.60143 -14147214.20742  21967887.756    21967883.575
  22547939.213     2372683.92443   1885528.48242  22547938.464    22547936.567
  22498730.340   -14167399.83243 -10993146.54342  22498729.972    22498728.012
  23959935.813    -8646388.33343  -6698127.68642  23959935.697    23959934.905
  20863491.483   -25735572.43044 -20004116.45442  20863491.848    20863487.479
 04  5 20  3 52 30.0000000  0  6G 1G16G20G27G 3G13
  20598515.935   -24670458.08543 -19179411.45442  20598515.492    20598512.349
  21979249.515   -18197033.35643 -14100691.41642  21979249.070    21979244.913
  22567203.921     2473920.19843   1964413.83542  22567203.143    22567201.224
  22488020.133   -14223682.05643 -11037002.75842  22488019.739    22488017.769
  23946745.840    -8715701.74143  -6752138.03142  23946745.773    23946744.853
  20854263.176   -25784067.36643 -20041904.67242  20854263.554    20854259.165
 04  5 20  3 53  0.0000000  0  6G 1G16G20G27G 3G13
  20602785.078   -24648023.65343 -19161930.07642  20602784.620    20602781.467
  21990698.945   -18136865.99543 -14053807.76042  21990698.495    21990694.383
  22586517.053     2575410.92743   2043497.47242  22586516.271    22586514.281
  22477342.354   -14279793.76543 -11080726.10142  22477341.970    22477340.015
  23933601.532    -8784775.23443  -6805961.42642  23933601.403    23933600.430
  20845086.473   -25832291.16044 -20079481.61542  20845086.860    20845082.447
 04  5 20  3 53 30.0000000  0  6G 1G16G20G27G 3G13
  20607119.255   -24625247.34943 -19144182.30042  20607118.802    20607115.632
  22002236.490   -18076235.63143 -14006563.32542  22002236.050    22002231.943
  22605878.516     2677155.78143   2122779.13642  22605877.751    22605875.692
  22466697.475   -14335732.70643 -11124314.83542  22466697.061    22466695.119
  23920503.858    -8853603.87743  -6859594.02942  23920503.676    23920502.644
  20835962.087   -25880239.83843 -20116844.18942  20835962.491    20835958.076
 04  5 20  3 54  0.0000000  0  6G 1G16G20G27G 3G13
  20611518.620   -24602128.37843 -19126167.50842  20611518.174    20611515.014
  22013861.783   -18015144.17443 -13958959.59042  22013861.357    22013857.252
  22625287.817     2779152.19743   2202256.83442  22625287.084    22625284.996
  22456085.497   -14391498.75343 -11167768.83642  22456085.080    22456083.142
  23907453.380    -8922184.32043  -6913033.23042  23907453.218    23907452.093
  20826890.435   -25927911.48943 -20153990.89742  20826890.836    20826886.416
 04  5 20  3 54 30.0000000  0  7G 1G16G20G27G 3G 8G13
  20615977.503   -24578696.65043 -19107909.01142  20615977.072    20615973.933
  22025568.592   -17953624.43143 -13911022.12942  22025568.161    22025564.071
  22644738.599     2881366.76343   2281904.50942  22644737.891    22644735.831
  22445500.595   -14447122.66343 -11211112.08642  22445500.182    22445498.187
  23894444.848    -8990543.96343  -6966300.36342  23894444.647    23894443.523
  24870582.821    -3843104.66153  -2982791.70852  24870581.815    24870583.477
  20817866.010   -25975334.93144 -20190944.19442  20817866.421    20817862.010
 04  5 20  3 55  0.0000000  0  7G 1G16G20G27G 3G 8G13
  20620508.384   -24554886.74443 -19089355.83042  20620507.934    20620504.813
  22037368.845   -17891613.50343 -13862701.92242  22037368.419    22037364.360
  22664242.762     2983861.41543   2361770.42042  22664242.029    22664239.975
  22434955.032   -14502539.64243 -11254294.08542  22434954.634    22434952.608
  23881491.225    -9058614.83543  -7019342.48742  23881490.952    23881489.967
  24853577.790    -3932465.59943  -3052423.37342  24853576.740    24853578.539
  20808901.440   -26022443.81443 -20227652.37942  20808901.847    20808897.455
 04  5 20  3 55 30.0000000  0  7G 1G16G20G27G 3G 8G13
  20625103.633   -24530738.52643 -19070539.02742  20625103.197    20625100.062
  22049254.476   -17829154.13343 -13814032.28242  22049254.037    22049250.004
  22683791.998     3086593.01243   2441820.96142  22683791.245    22683789.188
  22424441.152   -14557790.25043 -11297346.43942  22424440.759    22424438.703
  23868585.438    -9126434.39043  -7072188.76942  23868585.150    23868584.150
  24836589.343    -4021738.97443  -3121986.80142  24836588.387    24836590.134
  20799989.359   -26069276.82743 -20264145.59742  20799989.790    20799985.400
 04  5 20  3 56  0.0000000  0  7G 1G16G20G27G 3G 8G13
  20629764.667   -24506244.60943 -19051452.84842  20629764.241    20629761.086
  22061226.276   -17766241.80643 -13765009.68542  22061225.838    22061221.852
  22703387.101     3189565.78943   2522059.46142  22703386.379    22703384.298
  22413960.231   -14612867.72343 -11340263.88642  22413959.827    22413957.743
  23855729.324    -9193992.93843  -7124831.69242  23855729.083    23855727.978
  24819618.945    -4110918.00243  -3191476.75642  24819617.996    24819619.699
  20791131.414   -26115825.59843 -20300417.33742  20791131.818    20791127.431
 04  5 20  3 56 30.0000000  0  7G 1G16G20G27G 3G 8G13
  20634491.162   -24481406.60643 -19032098.54542  20634490.727    20634487.575
  22073283.413   -17702881.03343 -13715637.66442  22073282.976    22073279.010
  22723027.114     3292774.67143   2602481.92842  22723026.421    22723024.345
  22403511.782   -14667774.52443 -11383048.35042  22403511.361    22403509.266
  23842923.114    -9261289.50443  -7177270.45242  23842922.935    23842921.921
  24802666.279    -4200004.11543  -3260894.29742  24802665.317    24802667.043
  20782327.488   -26162090.45144 -20336467.83142  20782327.893    20782323.482
 04  5 20  3 57  0.0000000  0  7G 1G16G20G27G 3G 8G13
  20639283.371   -24456223.27843 -19012475.16842  20639282.930    20639279.804
  22085425.549   -17639073.54843 -13665917.53842  22085425.097    22085421.198
  22742711.580     3396217.22243   2683086.46442  22742710.908    22742708.853
  22393095.928   -14722510.12943 -11425699.41542  22393095.492    22393093.346
  23830167.387    -9328320.50643  -7229502.27942  23830167.234    23830166.287
  24785731.367    -4288996.68043  -3330238.92642  24785730.354    24785732.172
  20773577.913   -26208069.60244 -20372295.69842  20773578.321    20773573.905
 04  5 20  3 57 30.0000000  0  7G 1G16G20G27G 3G 8G13
  20644141.356   -24430694.44743 -18992582.56742  20644140.903    20644137.778
  22097652.243   -17574821.72143 -13615851.17842  22097651.794    22097647.914
  22762439.912     3499890.38943   2763870.70842  22762439.267    22762437.263
  22382712.519   -14777075.09043 -11468217.50042  22382712.071    22382709.892
  23817462.715    -9395083.47043  -7281525.25342  23817462.604    23817461.646
  24768814.404    -4377895.30443  -3399510.38242  24768813.474    24768814.928
  20764882.989   -26253761.57244 -20407899.78842  20764883.405    20764878.958
 04  5 20  3 58  0.0000000  0  7G 1G16G20G27G 3G 8G13
  20649065.712   -24404816.75943 -18972418.13042  20649065.246    20649062.123
  22109963.612   -17510124.99443 -13565438.14442  22109963.157    22109959.298
  22782212.232     3603794.54743   2844834.93642  22782211.566    22782209.582
  22372362.143   -14831466.61443 -11510600.44942  22372361.692    22372359.458
  23804810.120    -9461572.56443  -7333334.81542  23804810.045    23804809.066
  24751915.863    -4466696.76443  -3468706.10042  24751914.887    24751916.396
  20756243.565   -26299161.90443 -20443276.64442  20756243.987    20756239.526
 04  5 20  3 58 30.0000000  0  7G 1G16G20G27G 3G 8G13
  20654055.321   -24378596.18543 -18951986.51142  20654054.843    20654051.752
  22122357.995   -17444991.96843 -13514685.12742  22122357.551    22122353.666
  22802026.687     3707920.32343   2925971.86342  22802026.052    22802024.094
  22362043.487   -14885691.32143 -11552853.40542  22362043.053    22362040.808
  23792209.044    -9527791.02843  -7384933.50542  23792208.953    23792207.981
  24735034.733    -4555406.69943  -3537830.49142  24735033.780    24735035.267
  20747658.738   -26344275.28744 -20478429.89742  20747659.176    20747654.686
 04  5 20  3 59  0.0000000  0  7G 1G16G20G27G 3G 8G13
  20659111.864   -24352023.82843 -18931280.77542  20659111.383    20659108.295
  22134836.543   -17379416.81943 -13463587.60042  22134836.069    22134832.161
  22821884.339     3812272.95243   3007285.55042  22821883.702    22821881.812
  22351758.135   -14939741.00543 -11594969.97442  22351757.703    22351755.436
  23779661.656    -9593727.57243  -7436312.51442  23779661.523    23779660.601
  24718172.745    -4644016.74143  -3606877.08942  24718171.783    24718173.139
  20739130.397   -26389091.90744 -20513351.90442  20739130.820    20739126.324
 04  5 20  3 59 30.0000000  0  7G 1G16G20G27G 3G 8G13
  20664234.330   -24325105.18043 -18910305.20442  20664233.817    20664230.744
  22147397.663   -17313407.94343 -13412152.11042  22147397.158    22147393.207
  22841783.505     3916843.60643   3088769.14042  22841782.858    22841780.992
  22341504.838   -14993622.11043 -11636955.18542  22341504.424    22341502.116
  23767167.280    -9659385.42543  -7487474.36642  23767167.109    23767166.232
  24701328.500    -4732532.45743  -3675850.15142  24701327.451    24701328.952
  20730657.639   -26433616.42444 -20548046.30142  20730658.057    20730653.546
 04  5 20  4  0  0.0000000  0  7G 1G16G20G27G 3G 8G13
  20669423.082   -24297838.01343 -18889058.05542  20669422.582    20669419.503
  22160041.179   -17246965.83443 -13360379.03342  22160040.703    22160036.710
  22861723.926     4021631.19843   3170421.75942  22861723.278    22861721.463
  22331283.945   -15047332.88943 -11678807.66142  22331283.570    22331281.253
  23754726.843    -9724759.74143  -7538415.27942  23754726.695    23754725.794
  24684502.891    -4820951.35143  -3744747.78742  24684501.777    24684503.261
  20722241.160   -26477845.06543 -20582510.15142  20722241.591    20722237.088
 04  5 20  4  0 30.0000000  0  7G 1G16G20G27G 3G 8G13
  20674678.228   -24270221.95743 -18867539.04542  20674677.750    20674674.660
  22172766.730   -17180092.64343 -13308270.03842  22172766.268    22172762.213
  22881705.196     4126633.18043   3252241.43342  22881704.476    22881702.712
  22321095.440   -15100873.43243 -11720527.48842  22321095.052    22321092.753
  23742341.035    -9789847.56543  -7589132.95142  23742340.803    23742339.892
  24667695.666    -4909273.11543  -3813569.75542  24667694.569    24667695.958
  20713881.286   -26521776.45143 -20616742.37842  20713881.705    20713877.191
 04  5 20  4  1  0.0000000  0  7G 1G16G20G27G 3G 8G13
  20679999.490   -24242258.70743 -18845749.50542  20679998.968    20679995.885
  22185573.365   -17112793.38343 -13255829.04942  22185572.934    22185568.808
  22901726.225     4231844.19843   3334223.98742  22901725.486    22901723.779
  22310938.822   -15154246.28043 -11762116.63842  22310938.458    22310936.163
  23730009.806    -9854648.27343  -7639626.89942  23730009.589    23730008.666
  24650906.488    -4997499.94343  -3882317.72742  24650905.311    24650906.787
  20705577.893   -26565411.10243 -20650743.38542  20705578.288    20705573.759
 04  5 20  4  1 30.0000000  0  7G 1G16G20G27G 3G 8G13
  20685388.023   -24213941.69443 -18823684.30542  20685387.535    20685384.437
  22198461.809   -17045064.39443 -13203053.21742  22198461.350    22198457.178
  22921787.660     4337267.62443   3416372.05542  22921786.960    22921785.245
  22300815.242   -15207445.56443 -11803570.55242  22300814.870    22300812.628
  23717734.895    -9919152.98143  -7689890.20042  23717734.637    23717733.760
  24634136.638    -5085625.21843  -3950986.58142  24634135.467    24634136.845
  20697332.384   -26608741.54544 -20684507.34842  20697332.748    20697328.215
 04  5 20  4  2  0.0000000  0  7G 1G16G20G27G 3G 8G13
  20690843.301   -24185273.94743 -18801345.80542  20690842.818    20690839.738
  22211430.952   -16976911.01143 -13149946.68142  22211430.534    22211426.363
  22941888.315     4442897.12943   3498680.70842  22941887.647    22941885.942
  22290724.038   -15260474.82643 -11844891.97342  22290723.657    22290721.448
  23705516.166    -9983362.26943  -7739923.29642  23705515.907    23705515.055
  24617385.613    -5173651.89743  -4019578.61842  24617384.448    24617385.696
  20689144.448   -26651769.41543 -20718035.54042  20689144.816    20689140.269
 04  5 20  4  2 30.0000000  0  7G 1G16G20G27G 3G 8G13
  20696365.069   -24156256.81943 -18778735.06242  20696364.567    20696361.535
  22224480.024   -16908337.72243 -13096512.94742  22224479.569    22224475.426
  22962027.310     4548727.93043   3581146.19242  22962026.650    22962024.951
  22280664.816   -15313336.00943 -11886082.42142  22280664.408    22280662.230
  23693353.832   -10047274.77343  -7789725.13442  23693353.647    23693352.824
  24600653.075    -5261581.47143  -4088094.98942  24600651.790    24600653.054
  20681014.062   -26694495.06344 -20751328.24242  20681014.394    20681009.843
 04  5 20  4  3  0.0000000  0  7G 1G16G20G27G 3G 8G13
  20701953.936   -24126887.18943 -18755849.64742  20701953.429    20701950.391
  22237609.002   -16839344.49443 -13042751.99142  22237608.569    22237604.411
  22982204.585     4654760.02343   3663768.53842  22982203.934    22982202.271
  22270637.991   -15366026.96243 -11927140.23242  22270637.561    22270635.410
  23681249.109   -10110884.86143  -7839291.32742  23681248.936    23681248.125
  24583939.544    -5349410.83243  -4156533.25242  24583938.242    24583939.522
  20672941.954   -26736914.17744 -20784382.08242  20672942.276    20672937.733
 04  5 20  4  3 30.0000000  0  7G 1G16G20G27G 3G 8G13
  20707610.369   -24097162.36443 -18732687.44842  20707609.863    20707606.850
  22250817.973   -16769931.11943 -12988663.65142  22250817.517    22250813.339
  23002420.078     4760992.60843   3746547.13442  23002419.356    23002417.731
  22260643.985   -15418545.54143 -11968063.73642  22260643.547    22260641.370
  23669202.888   -10174187.89343  -7888618.26342  23669202.689    23669201.838
  24567245.524    -5437137.42743  -4224891.46942  24567244.277    24567245.535
  20664928.884   -26779022.99243 -20817194.12442  20664929.223    20664924.685
 04  5 20  4  4  0.0000000  0  7G 1G16G20G27G 3G 8G13
  20713332.859   -24067090.41843 -18709254.76942  20713332.355    20713329.350
  22264104.760   -16700108.66243 -12934256.54442  22264104.323    22264100.078
  23022671.502     4867414.41543   3829473.16642  23022670.805    23022669.187
  22250681.160   -15470900.32243 -12008859.60842  22250680.713    22250678.526
  23657214.042   -10237189.27743  -7937710.14842  23657213.814    23657212.999
  24550569.617    -5524768.96343  -4293175.59842  24550568.432    24550569.698
  20656973.608   -26820828.24544 -20849769.63242  20656973.947    20656969.392
 04  5 20  4  4 30.0000000  0  7G 1G16G20G27G 3G 8G13
  20719122.880   -24036663.74443 -18685545.67642  20719122.338    20719119.368
  22277470.269   -16629872.30443 -12879526.90942  22277469.854    22277465.609
  23042959.772     4974029.70043   3912549.96742  23042959.107    23042957.472
  22240750.837   -15523084.33443 -12049522.40842  22240750.358    22240748.156
  23645284.521   -10299878.97543  -7986559.14042  23645284.297    23645283.387
  24533913.223    -5612298.24943  -4361380.05942  24533911.996    24533913.310
  20649077.767   -26862321.15643 -20882101.75942  20649078.081    20649073.532
 04  5 20  4  5  0.0000000  0  7G 1G16G20G27G 3G 8G13
  20724979.743   -24005885.53443 -18661562.65042  20724979.232    20724976.260
  22290913.406   -16559227.91543 -12824479.31842  22290912.973    22290908.804
  23063283.642     5080832.11543   3995772.57042  23063282.964    23063281.369
  22230852.323   -15575101.14043 -12090054.91442  22230851.815    22230849.615
  23633414.260   -10362257.59543  -8035165.75442  23633414.026    23633413.054
  24517275.613    -5699728.79843  -4429507.58742  24517274.391    24517275.615
  20641240.973   -26903503.65843 -20914192.00342  20641241.295    20641236.739
 04  5 20  4  5 30.0000000  0  7G 1G16G20G27G 3G 8G13
  20730904.699   -23974749.64443 -18637300.92142  20730904.189    20730901.211
  22304434.751   -16488172.41743 -12769111.39642  22304434.309    22304430.219
  23083643.693     5187824.52343   4079143.23342  23083642.992    23083641.368
  22220986.640   -15626945.52843 -12130453.07242  22220986.121    22220983.869
  23621604.797   -10424316.47743  -8083523.21842  23621604.581    23621603.529
  24500658.012    -5787053.95643  -4497552.98742  24500656.766    24500657.997
  20633464.629   -26944368.49344 -20946034.71242  20633464.984    20633460.416
 04  5 20  4  6  0.0000000  0  7G 1G16G20G27G 3G 8G13
  20736896.603   -23943262.09643 -18612765.16942  20736896.088    20736893.065
  22318032.691   -16416714.52043 -12713429.92042  22318032.225    22318028.242
  23104038.149     5294997.73743   4162654.76342  23104037.414    23104035.790
  22211152.497   -15678624.00143 -12170721.95142  22211151.995    22211149.703
  23609855.519   -10486059.16343  -8131634.30042  23609855.330    23609854.130
  24484059.320    -5874279.76843  -4565520.97742  24484058.117    24484059.269
  20625747.831   -26984920.46644 -20977633.64042  20625748.189    20625743.613
 04  5 20  4  6 30.0000000  0  7G 1G16G20G27G 3G 8G13
  20742956.083   -23911419.41243 -18587952.69242  20742955.563    20742952.518
  22331707.353   -16344853.69043 -12657434.46442  22331706.880    22331702.925
  23124467.028     5402351.97943   4246307.37842  23124466.323    23124464.640
  22201350.492   -15730133.63643 -12210859.25642  22201349.984    22201347.674
  23598167.596   -10547479.63243  -8179494.28142  23598167.330    23598166.097
  24467480.190    -5961403.00343  -4633409.04942  24467479.019    24467480.095
  20618091.490   -27025154.77744 -21008985.04342  20618091.827    20618087.248
 04  5 20  4  7  0.0000000  0  7G 1G16G20G27G 3G 8G13
  20749083.498   -23879219.81943 -18562862.10442  20749082.961    20749079.909
  22345458.464   -16272591.00943 -12601125.88442  22345458.024    22345454.102
  23144930.101     5509885.76543   4330099.88742  23144929.344    23144927.706
  22191580.838   -15781473.14043 -12250863.98642  22191580.360    22191578.015
  23586541.797   -10608573.51343  -8227099.80342  23586541.570    23586540.162
  24450920.971    -6048421.94843  -4701215.87342  24450919.731    24450920.813
  20610496.146   -27065068.56343 -21040086.68542  20610496.490    20610491.896
 04  5 20  4  7 30.0000000  0  7G 1G16G20G27G 3G 8G13
  20755277.733   -23846668.85943 -18537497.72342  20755277.222    20755274.155
  22359284.495   -16199934.77043 -12544510.63642  22359284.047    22359280.108
  23165425.603     5617590.17543   4414025.34942  23165424.850    23165423.228
  22181842.352   -15832648.84443 -12290741.09542  22181841.876    22181839.543
  23574977.422   -10669344.16343  -8274453.43942  23574977.208    23574975.728
  24434380.511    -6135342.09043  -4768945.71042  24434379.277    24434380.309
  20602960.949   -27104666.28244 -21070942.03942  20602961.284    20602956.688
 04  5 20  4  8  0.0000000  0  7G 1G16G20G27G 3G 8G13
  20761540.476   -23813757.90243 -18511852.82142  20761539.983    20761536.880
  22373186.516   -16126879.04643 -12487584.10042  22373186.084    22373182.152
  23185954.568     5725470.77943   4498088.13142  23185953.823    23185952.252
  22172136.638   -15883652.40243 -12330484.05842  22172136.171    22172133.816
  23563476.788   -10729780.16743  -8321546.32242  23563476.451    23563475.022
  24417860.565    -6222154.61443  -4836591.69542  24417859.360    24417860.287
  20595487.796   -27143937.79844 -21101543.20342  20595488.134    20595483.546
 04  5 20  4  8 30.0000000  0  7G 1G16G20G27G 3G 8G13
  20767869.956   -23780496.32743 -18485934.70342  20767869.483    20767866.343
  22387162.246   -16053436.31443 -12430355.99842  22387161.781    22387157.869
  23206514.695     5833514.72243   4582278.17842  23206513.913    23206512.384
  22162461.803   -15934493.86843 -12370100.71842  22162461.334    22162458.923
  23552038.447   -10789888.62743  -8368383.97542  23552038.117    23552036.564
  24401359.268    -6308868.80643  -4904161.03142  24401358.047    24401359.064
  20588075.270   -27182891.00144 -21131896.33642  20588075.588    20588070.964
 04  5 20  4  9  0.0000000  0  7G 1G16G20G27G 3G 8G13
  20774268.445   -23746872.14543 -18459734.03742  20774267.952    20774264.784
  22401213.386   -15979597.12643 -12372818.96342  22401212.944    22401209.012
  23227107.615     5941731.21343   4666602.67242  23227106.888    23227105.320
  22152819.962   -15985161.85943 -12409582.21542  22152819.482    22152817.045
  23540665.226   -10849655.16443  -8414955.18742  23540664.857    23540663.269
  24384878.884    -6395473.05143  -4971644.70342  24384877.706    24384878.637
  20580725.807   -27221512.78344 -21161991.21942  20580726.122    20580721.460
 04  5 20  4  9 30.0000000  0  7G 1G16G20G27G 3G 8G13
  20780734.225   -23712894.19643 -18433257.70942  20780733.738    20780730.558
  22415337.745   -15905373.21843 -12314982.14642  22415337.307    22415333.357
  23247731.055     6050108.11343   4751052.16642  23247730.337    23247728.835
  22143209.382   -16035665.58943 -12448935.71642  22143208.870    22143206.437
  23529355.745   -10909086.00343  -8461264.81842  23529355.452    23529353.819
  24368417.792    -6481975.98143  -5039049.45342  24368416.585    24368417.404
  20573437.887   -27259811.02444 -21191833.98542  20573438.218    20573433.514
 04  5 20  4 10  0.0000000  0  7G 1G16G20G27G 3G 8G13
  20787267.993   -23678559.05943 -18406503.05342  20787267.510    20787264.319
  22429535.442   -15830764.02243 -12256845.10542  22429534.963    22429531.032
  23268385.098     6158645.52443   4835626.73442  23268384.365    23268382.825
  22133630.540   -16086002.28443 -12488159.05642  22133630.067    22133627.617
  23518111.281   -10968175.47043  -8507308.44142  23518110.973    23518109.407
  24351976.601    -6568374.38243  -5106372.73742  24351975.361    24351976.226
  20566212.456   -27297780.82944 -21221420.82242  20566212.793    20566208.080
 04  5 20  4 10 30.0000000  0  7G 1G16G20G27G 3G 8G13
  20793870.021   -23643865.37843 -18379469.01242  20793869.527    20793866.339
  22443806.157   -15755771.00843 -12198408.99542  22443805.645    22443801.724
  23289069.309     6267341.43743   4920324.79742  23289068.552    23289066.991
  22124083.719   -16136171.08643 -12527251.56942  22124083.233    22124080.761
  23506932.556   -11026919.52643  -8553082.90942  23506932.265    23506930.635
  24335555.621    -6654666.73343  -5173613.39042  24335554.307    24335555.112
  20559050.064   -27335419.36144 -21250749.52842  20559050.417    20559045.675
 04  5 20  4 11  0.0000000  0  7G 1G16G20G27G 3G 8G13
  20800539.987   -23608814.42643 -18352156.57842  20800539.512    20800536.325
  22458149.111   -15680398.52843 -12139677.21342  22458148.562    22458144.633
  23309782.920     6376191.65543   5005143.10242  23309782.129    23309780.558
  22114568.455   -16186173.98043 -12566214.80642  22114567.970    22114565.484
  23495819.740   -11085317.32343  -8598587.58442  23495819.447    23495817.821
  24319154.434    -6740854.44943  -5240772.50842  24319153.133    24319154.013
  20551950.604   -27372727.28044 -21279820.60642  20551950.960    20551946.197
 04  5 20  4 11 30.0000000  0  7G 1G16G20G27G 3G 8G13
  20807278.188   -23573404.80743 -18324564.66142  20807277.714    20807274.561
  22472563.976   -15604647.79743 -12080650.66442  22472563.439    22472559.477
  23330525.499     6485194.37643   5090080.23842  23330524.691    23330523.190
  22105084.941   -16236009.98143 -12605047.99642  22105084.471    22105081.936
  23484773.576   -11143364.81643  -8643819.29542  23484773.303    23484771.674
  24302773.553    -6826935.57743  -5307848.56842  24302772.292    24302773.220
  20544914.666   -27409701.35544 -21308631.55242  20544915.006    20544910.248
 04  5 20  4 12  0.0000000  0  7G 1G16G20G27G 3G 8G13
  20814084.731   -23537636.03643 -18296692.89442  20814084.267    20814081.127
  22487050.448   -15528520.92443 -12021331.02842  22487049.918    22487045.910
  23351296.575     6594346.87743   5175134.08442  23351295.777    23351294.275
  22095633.229   -16285679.03843 -12643751.09142  22095632.751    22095630.164
  23473794.608   -11201059.08443  -8688775.77042  23473794.387    23473792.682
  24286413.126    -6912909.96643  -5374841.47442  24286411.864    24286412.692
  20537942.561   -27446339.88944 -21337181.04242  20537942.910    20537938.166
 04  5 20  4 12 30.0000000  0  7G 1G16G20G27G 3G 8G13
  20820958.808   -23501512.60643 -18268544.76742  20820958.327    20820955.220
  22501607.094   -15452025.33743 -11961724.07242  22501606.570    22501602.506
  23372094.677     6703641.53843   5260298.71542  23372093.884    23372092.390
  22086212.334   -16335186.07843 -12682327.95542  22086211.868    22086209.205
  23462882.498   -11258402.01143  -8733458.45842  23462882.277    23462880.595
  24270072.187    -6998781.87343  -5441754.50842  24270070.906    24270071.672
  20531033.702   -27482646.13543 -21365471.60542  20531034.036    20531029.294
 04  5 20  4 13  0.0000000  0  7G 1G16G20G27G 3G 8G13
  20827902.181   -23465024.81643 -18240112.72042  20827901.703    20827898.638
  22516235.223   -15375154.09943 -11901824.40342  22516234.673    22516230.620
  23392921.120     6813085.01243   5345579.29342  23392920.340    23392918.785
  22076824.008   -16384521.91243 -12720771.40442  22076823.533    22076820.862
  23452039.618   -11315381.47343  -8777857.94042  23452039.364    23452037.740
  24253752.570    -7084541.44743  -5508580.00442  24253751.367    24253752.127
  20524190.206   -27518608.93344 -21393494.53942  20524190.511    20524185.788
 04  5 20  4 13 30.0000000  0  7G 1G16G20G27G 3G 8G13
  20834913.620   -23428179.56843 -18211402.13242  20834913.109    20834910.062
  22530932.949   -15297916.93143 -11841639.58742  22530932.413    22530928.381
  23413773.924     6922667.15043   5430967.92942  23413773.149    23413771.605
  22067466.865   -16433693.83243 -12759087.14142  22067466.393    22067463.694
  23441264.948   -11372001.93043  -8821977.68142  23441264.692    23441263.101
  24237452.934    -7170195.76343  -5575323.47942  24237451.712    24237452.524
  20517410.962   -27554233.88643 -21421254.21642  20517411.292    20517406.583
 04  5 20  4 14  0.0000000  0  7G 1G16G20G27G 3G 8G13
  20841993.346   -23390975.40743 -18182411.88042  20841992.828    20841989.773
  22545700.033   -15220315.32843 -11781170.80742  22545699.502    22545695.474
  23434652.807     7032386.49543   5516463.49142  23434652.064    23434650.532
  22058141.083   -16482700.92543 -12797274.43642  22058140.611    22058137.906
  23430559.400   -11428259.34443  -8865814.53742  23430559.171    23430557.557
  24221173.707    -7255742.88243  -5641983.42042  24221172.469    24221173.284
  20510696.565   -27589518.09243 -21448748.36742  20510696.891    20510692.203
 04  5 20  4 14 30.0000000  0  7G 1G16G20G27G 3G 8G13
  20849141.835   -23353409.90343 -18153140.05842  20849141.308    20849138.233
  22560536.425   -15142349.39643 -11720418.12842  22560535.918    22560531.884
  23455557.684     7142242.21143   5602065.31242  23455556.933    23455555.345
  22048847.057   -16531541.18543 -12835331.73742  22048846.566    22048843.836
  23419923.918   -11484149.15143  -8909364.94842  23419923.619    23419921.960
  24204915.308    -7341180.95543  -5708558.41142  24204914.049    24204914.796
  20504047.725   -27624457.88043 -21475974.15142  20504048.047    20504043.371
 04  5 20  4 15  0.0000000  0  7G 1G16G20G27G 3G 8G13
  20856358.670   -23315485.10843 -18123588.26942  20856358.150    20856355.069
  22575441.192   -15064024.14343 -11659385.46242  22575440.716    22575436.703
  23476487.532     7252229.16543   5687769.38942  23476486.767    23476485.231
  22039584.269   -16580217.17443 -12873261.02342  22039583.787    22039581.044
  23409358.445   -11539670.62343  -8952628.34142  23409358.130    23409356.471
  24188677.393    -7426511.34343  -5775049.46142  24188676.062    24188676.780
  20497464.318   -27659053.93343 -21502932.09742  20497464.642    20497459.929
 04  5 20  4 15 30.0000000  0  8G 1G16G20G27G 3G 8G13G19
  20863643.264   -23277204.10943 -18093758.92342  20863642.757    20863639.680
  22590413.251   -14985345.23743 -11598077.22042  22590412.805    22590408.788
  23497441.142     7362341.14343   5773570.89242  23497440.431    23497438.912
  22030352.093   -16628732.26443 -12911064.93542  22030351.603    22030348.849
  23398862.935   -11594824.64243  -8995605.41042  23398862.548    23398860.959
  24172459.381    -7511737.49343  -5841459.30042  24172458.047    24172458.581
  20490945.923   -27693308.08444 -21529623.61442  20490946.269    20490941.530
  24731253.629    -4538157.54453  -3501779.99152  24731252.934    24731251.783
 04  5 20  4 16  0.0000000  0  8G 1G16G20G27G 3G 8G13G19
  20870997.933   -23238554.97543 -18063642.72442  20870997.414    20870994.325
  22605454.319   -14906303.72843 -11536486.42642  22605453.900    22605449.869
  23518420.221     7472587.02743   5859476.72342  23518419.525    23518418.040
  22021152.712   -16677075.04343 -12948734.58342  22021152.203    22021149.455
  23388440.091   -11649596.82743  -9038284.95942  23388439.765    23388438.039
  24156263.380    -7596847.21243  -5907778.38642  24156262.059    24156262.651
  20484495.159   -27727207.08744 -21556038.39442  20484495.503    20484490.731
  24715259.724    -4622205.99043  -3567272.14542  24715259.037    24715257.776
 04  5 20  4 16 30.0000000  0  8G 1G16G20G27G 3G 8G13G19
  20878420.712   -23199547.98743 -18033247.67442  20878420.214    20878417.078
  22620561.952   -14826912.52743 -11474623.15042  22620561.513    22620557.490
  23539422.293     7582953.60243   5945476.60742  23539421.585    23539420.122
  22011984.086   -16725256.17743 -12986278.27742  22011983.570    22011980.845
  23378088.493   -11703994.68443  -9080672.81642  23378088.156    23378086.335
  24140087.643    -7681850.52343  -5974014.58742  24140086.365    24140086.894
  20478110.235   -27760759.88344 -21582183.40342  20478110.584    20478105.803
  24699269.849    -4706232.82343  -3632747.46442  24699269.099    24699267.833
 04  5 20  4 17  0.0000000  0  8G 1G16G20G27G 3G 8G13G19
  20885912.063   -23160180.58943 -18002571.78242  20885911.567    20885908.434
  22635736.075   -14747171.90343 -11412487.59142  22635735.615    22635731.616
  23560447.278     7693440.30343   6031570.10742  23560446.425    23560445.070
  22002846.645   -16773273.70243 -13023694.47342  22002846.119    22002843.376
  23367808.992   -11758013.41543  -9122765.25342  23367808.698    23367806.826
  24123932.561    -7766745.00143  -6040165.97342  24123931.331    24123931.860
  20471791.984   -27793962.39443 -21608055.46442  20471792.331    20471787.561
  24683284.996    -4790232.68743  -3698201.74642  24683284.443    24683283.005
 04  5 20  4 17 30.0000000  0  8G 1G16G20G27G 3G 8G13G19
  20893472.893   -23120448.06943 -17971611.37942  20893472.392    20893469.255
  22650977.084   -14667079.75543 -11350078.11442  22650976.636    22650972.643
  23581495.425     7804048.74943   6117758.46342  23581494.579    23581493.188
  21993741.201   -16821122.96043 -13060979.55242  21993740.691    21993737.916
  23357603.089   -11811645.54343  -9164556.43842  23357602.832    23357600.921
  24107799.283    -7851525.41143  -6106228.47242  24107798.037    24107798.513
  20465541.553   -27826808.52443 -21633649.82942  20465541.879    20465537.123
  24667306.831    -4874198.31343  -3763629.36342  24667306.296    24667304.709
 04  5 20  4 18  0.0000000  0  8G 1G16G20G27G 3G 8G13G19
  20901101.589   -23080358.86843 -17940373.04742  20901101.097    20901097.957
  22666282.826   -14586647.48243 -11287403.61842  22666282.378    22666278.365
  23602564.518     7914767.33343   6204032.63442  23602563.660    23602562.275
  21984666.046   -16868813.01443 -13098140.59042  21984665.538    21984662.766
  23347469.569   -11864897.38143  -9206051.28842  23347469.321    23347467.372
  24091686.059    -7936200.88843  -6172209.21842  24091684.773    24091685.143
  20459357.597   -27859305.27644 -21658971.95142  20459357.941    20459353.171
  24651334.032    -4958135.25043  -3829034.60242  24651333.565    24651331.809
 04  5 20  4 18 30.0000000  0  8G 1G16G20G27G 3G 8G13G19
  20908799.909   -23039903.97843 -17908849.76442  20908799.400    20908796.292
  22681654.481   -14505868.80743 -11224459.19842  22681654.026    22681650.032
  23623655.677     8025602.19943   6290397.42142  23623654.874    23623653.505
  21975622.802   -16916335.22143 -13135170.83642  21975622.322    21975619.534
  23337410.550   -11917757.39043  -9247240.80742  23337410.340    23337408.359
  24075594.511    -8020761.53443  -6238100.46442  24075593.233    24075593.621
  20453242.126   -27891442.25443 -21684013.73442  20453242.453    20453237.686
  24635368.926    -5042031.80443  -3894408.38642  24635368.611    24635366.693
 04  5 20  4 19  0.0000000  0  8G 1G16G20G27G 3G 8G13G19
  20916567.018   -22999087.67743 -17877044.85542  20916566.487    20916563.384
  22697090.796   -14424750.52643 -11161250.14042  22697090.278    22697086.343
  23644767.657     8136546.30843   6376847.33742  23644766.863    23644765.545
  21966610.679   -16963694.07943 -13172073.78942  21966610.210    21966607.390
  23327425.748   -11970227.57343  -9288126.58742  23327425.513    23327423.512
  24059524.170    -8105211.50043  -6303905.49942  24059522.869    24059523.142
  20447194.540   -27923222.36943 -21708777.44142  20447194.895    20447190.121
  24619411.153    -5125889.50643  -3959751.87242  24619410.852    24619408.882
 04  5 20  4 19 30.0000000  0  8G 1G16G20G27G 3G 8G13G19
  20924403.053   -22957909.15543 -17844957.69942  20924402.524    20924399.415
  22712591.345   -14343294.65343 -11097778.02742  22712590.762    22712586.881
  23665899.953     8247597.06743   6463380.34342  23665899.219    23665897.893
  21957629.705   -17010889.32743 -13208849.25942  21957629.220    21957626.402
  23317515.807   -12022304.54643  -9328705.97242  23317515.542    23317513.505
  24043474.942    -8189550.09943  -6369623.73342  24043473.671    24043473.910
  20441215.308   -27954643.32543 -21733261.28342  20441215.653    20441210.889
  24603461.543    -5209704.85943  -4025062.37642  24603461.263    24603459.163
 04  5 20  4 20  0.0000000  0  8G 1G16G20G27G 3G 8G13G19
  20932307.964   -22916368.59643 -17812588.43142  20932307.440    20932304.339
  22728155.579   -14261504.08843 -11034045.11942  22728154.996    22728151.132
  23687051.939     8358751.57743   6549994.20042  23687051.214    23687049.940
  21948679.759   -17057921.29743 -13245497.50142  21948679.317    21948676.466
  23307681.083   -12073985.96943  -9368977.12142  23307680.815    23307678.703
  24027446.888    -8273777.72243  -6435255.52042  24027445.565    24027445.721
  20435304.661   -27985703.92143 -21757464.32342  20435305.018    20435300.246
  24587520.554    -5293474.99943  -4090337.65042  24587520.317    24587518.058
 04  5 20  4 20 30.0000000  0  8G 1G16G20G27G 3G 8G13G19
  20940281.648   -22874466.53043 -17779937.46942  20940281.139    20940278.048
  22743782.873   -14179382.11343 -10970053.96742  22743782.281    22743778.399
  23708222.956     8470006.02543   6636685.91442  23708222.295    23708220.931
  21939760.751   -17104790.97543 -13282019.28942  21939760.263    21939757.427
  23297922.002   -12125270.01743  -9408938.63742  23297921.695    23297919.500
  24011440.021    -8357894.11743  -6500800.63442  24011438.724    24011438.709
  20429462.738   -28016403.37943 -21781385.95542  20429463.093    20429458.295
  24571588.575    -5377197.73143  -4155575.97942  24571588.330    24571585.960
 04  5 20  4 21  0.0000000  0  8G 1G16G20G27G 3G 8G13G19
  20948324.928   -22832198.77143 -17747001.54742  20948324.406    20948321.340
  22759473.486   -14096927.23343 -10905803.40042  22759472.945    22759469.041
  23729413.257     8581361.82343   6723456.60442  23729412.638    23729411.273
  21930873.315   -17151494.55243 -13318411.64842  21930872.842    21930869.982
  23288239.743   -12176150.28843  -9448585.53642  23288239.450    23288237.210
  23995455.051    -8441895.47343  -6566256.11842  23995453.732    23995453.506
  20423690.579   -28046736.23043 -21805021.91942  20423690.913    20423686.125
  24555666.925    -5460866.04343  -4220771.89342  24555666.628    24555664.222
 04  5 20  4 21 30.0000000  0  8G 1G16G20G27G 3G 8G13G19
  20956437.055   -22789569.29643 -17713783.77842  20956436.541    20956433.470
  22775226.184   -14014146.26543 -10841298.74042  22775225.656    22775221.754
  23750621.611     8692812.05743   6810300.88642  23750620.939    23750619.576
  21922016.739   -17198036.20043 -13354677.82742  21922016.234    21922013.351
  23278634.015   -12226628.15543  -9487918.85642  23278633.810    23278631.430
  23979491.291    -8525785.19943  -6631624.62942  23979489.996    23979489.680
  20417987.731   -28076704.83343 -21828374.06442  20417988.070    20417983.253
  24539755.361    -5544481.21543  -4285926.40642  24539754.972    24539752.586
 04  5 20  4 22  0.0000000  0  8G 1G16G20G27G 3G 8G13G19
  20964618.212   -22746577.02443 -17680283.30442  20964617.716    20964614.614
  22791040.721   -13931040.47343 -10776540.96742  22791040.193    22791036.259
  23771847.594     8804354.92243   6897217.35042  23771846.876    23771845.586
  21913191.125   -17244415.08643 -13390817.18342  21913190.607    21913187.686
  23269105.580   -12276699.97743  -9526935.77442  23269105.394    23269102.969
  23963549.093    -8609561.40643  -6696904.68142  23963547.801    23963547.472
  20412354.742   -28106306.40243 -21851440.20142  20412355.069    20412350.247
  24523854.516    -5628039.63943  -4351036.68042  24523854.102    24523851.750
 04  5 20  4 22 30.0000000  0  8G 1G16G20G27G 3G 8G13G19
  20972868.270   -22703222.77143 -17646500.77642  20972867.766    20972864.656
  22806916.343   -13847613.45943 -10711532.89342  22806915.864    22806911.887
  23793090.436     8915986.75843   6984203.15242  23793089.778    23793088.478
  21904396.301   -17290632.17843 -13426830.46642  21904395.788    21904392.832
  23259654.748   -12326363.99343  -9565634.92242  23259654.524    23259652.140
  23947628.247    -8693225.27743  -6762097.17442  23947626.935    23947626.760
  20406791.710   -28135540.36943 -21874219.89742  20406792.014    20406787.165
  24507964.972    -5711538.60443  -4416100.63942  24507964.556    24507962.209
 04  5 20  4 23  0.0000000  0  8G 1G16G20G27G 3G 8G13G19
  20981187.845   -22659503.01643 -17612433.44642  20981187.333    20981184.238
  22822853.241   -13763864.35543 -10646273.83242  22822852.767    22822848.797
  23814350.298     9027708.21443   7071258.76442  23814349.710    23814348.388
  21895632.812   -17336684.44843 -13462715.30642  21895632.289    21895629.344
  23250282.623   -12375614.37443  -9604011.76142  23250282.416    23250280.012
  23931729.466    -8776773.50943  -6827199.59242  23931728.148    23931727.933
  20401299.503   -28164401.93043 -21896709.40142  20401299.834    20401294.973
  24492088.024    -5794971.58043  -4481113.18342  24492087.609    24492085.384
 04  5 20  4 23 30.0000000  0  8G 1G16G20G27G 3G 8G13G19
  20989576.161   -22615422.17743 -17578084.74942  20989575.642    20989572.548
  22838850.055   -13679800.35043 -10580769.39442  22838849.640    22838845.651
  23835625.832     9139511.93743   7158378.49942  23835625.253    23835623.949
  21886899.804   -17382576.53443 -13498475.32442  21886899.283    21886896.346
  23240988.819   -12424453.31843  -9642068.01642  23240988.636    23240986.216
  23915851.975    -8860209.81743  -6892214.79142  23915850.695    23915850.412
  20395877.613   -28192894.00143 -21918910.99342  20395877.964    20395873.076
  24476223.368    -5878340.40143  -4546075.74442  24476222.954    24476220.621
 04  5 20  4 24  0.0000000  0  8G 1G16G20G27G 3G 8G13G19
  20998033.918   -22570976.49943 -17543451.75842  20998033.384    20998030.270
  22854907.086   -13595420.22943 -10515018.64142  22854906.651    22854902.671
  23856917.201     9251398.55543   7245562.81542  23856916.646    23856915.338
  21878197.900   -17428305.16043 -13534107.98742  21878197.387    21878194.431
  23231774.455   -12472874.64443  -9679798.83142  23231774.332    23231771.886
  23899996.489    -8943530.42143  -6957139.82642  23899995.190    23899994.893
  20390527.020   -28221011.38343 -21940820.62642  20390527.369    20390522.493
  24460372.056    -5961638.63543  -4610983.30342  24460371.672    24460369.249
 04  5 20  4 24 30.0000000  0  8G 1G16G20G27G 3G 8G13G19
  21006560.884   -22526167.00243 -17508535.27442  21006560.369    21006557.222
  22871023.542   -13510727.68043 -10449024.42842  22871023.109    22871019.134
  23878223.624     9363364.36043   7332808.83542  23878223.031    23878221.725
  21869526.908   -17473871.34043 -13569614.06242  21869526.409    21869523.435
  23222639.827   -12520877.15043  -9717203.30542  23222639.658    23222637.267
  23884162.870    -9026735.79543  -7021975.04042  23884161.597    23884161.357
  20385247.809   -28248753.78943 -21962438.07642  20385248.150    20385243.255
  24444534.608    -6044864.21743  -4675834.24442  24444534.295    24444531.859
 04  5 20  4 25  0.0000000  0  8G 1G16G20G27G 3G 8G13G19
  21015156.742   -22480995.52243 -17473336.72242  21015156.230    21015153.036
  22887198.566   -13425727.31243 -10382790.37642  22887198.152    22887194.147
  23899544.230     9475404.61243   7420112.87542  23899543.539    23899542.308
  21860886.447   -17519277.14343 -13604995.16342  21860885.949    21860882.941
  23213584.993   -12568460.13443  -9754280.87542  23213584.782    23213582.492
  23868350.870    -9109827.91143  -7086722.03542  23868349.576    23868349.352
  20380039.964   -28276121.23043 -21983763.34642  20380040.262    20380035.389
  24428711.190    -6128016.18243  -4740627.82742  24428710.929    24428708.415
 04  5 20  4 25 30.0000000  0  8G 1G16G20G27G 3G 8G13G19
  21023821.821   -22435460.16843 -17437854.63742  21023821.318    21023818.125
  22903432.016   -13340419.90443 -10316317.07942  22903431.579    22903427.581
  23920878.761     9587518.16843   7507474.03342  23920878.073    23920876.881
  21852276.772   -17564521.13243 -13640250.17442  21852276.296    21852273.263
  23204610.893   -12615618.93843  -9791027.91142  23204610.600    23204608.400
  23852560.775    -9192804.95343  -7151379.36242  23852559.404    23852559.333
  20374904.050   -28303110.62243 -22004794.03042  20374904.345    20374899.472
  24412902.703    -6211089.66043  -4805360.25842  24412902.440    24412899.813
